<?xml version="1.0" encoding="UTF-8" standalone="no" ?>
<gpx xmlns="http://www.topografix.com/GPX/1/1" creator="www.cicloide.com" version="1.1" xmlns:xsi="http://www.w3.org/2001/XMLSchema-instance" xsi:schemaLocation="http://www.topografix.com/GPX/1/1 http://www.topografix.com/GPX/1/1/gpx.xsd">
  <trk>
    <name>www.cicloide.com 20314</name>
    <desc>www.cicloide.com 20314</desc>
    <trkseg>
      <trkpt lat="41.544631000" lon="1.886224000">
        <ele>98.30</ele>
        <time>2014-12-07T05:49:31Z</time>
      </trkpt>
      <trkpt lat="41.544644000" lon="1.886208000">
        <ele>98.30</ele>
        <time>2014-12-07T05:49:36Z</time>
      </trkpt>
      <trkpt lat="41.544663000" lon="1.886214000">
        <ele>98.30</ele>
        <time>2014-12-07T05:49:43Z</time>
      </trkpt>
      <trkpt lat="41.544745000" lon="1.886242000">
        <ele>98.30</ele>
        <time>2014-12-07T05:49:53Z</time>
      </trkpt>
      <trkpt lat="41.544763000" lon="1.886257000">
        <ele>98.30</ele>
        <time>2014-12-07T05:49:54Z</time>
      </trkpt>
      <trkpt lat="41.544787000" lon="1.886373000">
        <ele>99.10</ele>
        <time>2014-12-07T05:49:58Z</time>
      </trkpt>
      <trkpt lat="41.544550000" lon="1.887027000">
        <ele>100.10</ele>
        <time>2014-12-07T05:50:14Z</time>
      </trkpt>
      <trkpt lat="41.544554000" lon="1.887470000">
        <ele>101.70</ele>
        <time>2014-12-07T05:50:24Z</time>
      </trkpt>
      <trkpt lat="41.544507000" lon="1.887607000">
        <ele>100.20</ele>
        <time>2014-12-07T05:50:29Z</time>
      </trkpt>
      <trkpt lat="41.544616000" lon="1.887655000">
        <ele>100.50</ele>
        <time>2014-12-07T05:50:33Z</time>
      </trkpt>
      <trkpt lat="41.544599000" lon="1.888088000">
        <ele>100.00</ele>
        <time>2014-12-07T05:50:43Z</time>
      </trkpt>
      <trkpt lat="41.544416000" lon="1.889075000">
        <ele>100.10</ele>
        <time>2014-12-07T05:51:03Z</time>
      </trkpt>
      <trkpt lat="41.544428000" lon="1.889691000">
        <ele>102.00</ele>
        <time>2014-12-07T05:51:17Z</time>
      </trkpt>
      <trkpt lat="41.544394000" lon="1.889966000">
        <ele>103.00</ele>
        <time>2014-12-07T05:51:24Z</time>
      </trkpt>
      <trkpt lat="41.544097000" lon="1.889939000">
        <ele>104.40</ele>
        <time>2014-12-07T05:51:35Z</time>
      </trkpt>
      <trkpt lat="41.544131000" lon="1.890005000">
        <ele>105.40</ele>
        <time>2014-12-07T05:51:41Z</time>
      </trkpt>
      <trkpt lat="41.544246000" lon="1.890101000">
        <ele>106.60</ele>
        <time>2014-12-07T05:51:45Z</time>
      </trkpt>
      <trkpt lat="41.544192000" lon="1.890683000">
        <ele>108.60</ele>
        <time>2014-12-07T05:52:00Z</time>
      </trkpt>
      <trkpt lat="41.544154000" lon="1.890953000">
        <ele>108.60</ele>
        <time>2014-12-07T05:52:11Z</time>
      </trkpt>
      <trkpt lat="41.544079000" lon="1.891096000">
        <ele>108.30</ele>
        <time>2014-12-07T05:52:16Z</time>
      </trkpt>
      <trkpt lat="41.544001000" lon="1.891172000">
        <ele>108.50</ele>
        <time>2014-12-07T05:52:20Z</time>
      </trkpt>
      <trkpt lat="41.543955000" lon="1.891348000">
        <ele>108.20</ele>
        <time>2014-12-07T05:52:25Z</time>
      </trkpt>
      <trkpt lat="41.544108000" lon="1.892068000">
        <ele>108.80</ele>
        <time>2014-12-07T05:52:41Z</time>
      </trkpt>
      <trkpt lat="41.544341000" lon="1.892485000">
        <ele>110.40</ele>
        <time>2014-12-07T05:52:54Z</time>
      </trkpt>
      <trkpt lat="41.544417000" lon="1.892506000">
        <ele>110.80</ele>
        <time>2014-12-07T05:53:00Z</time>
      </trkpt>
      <trkpt lat="41.544449000" lon="1.892628000">
        <ele>110.80</ele>
        <time>2014-12-07T05:53:05Z</time>
      </trkpt>
      <trkpt lat="41.544692000" lon="1.893213000">
        <ele>111.60</ele>
        <time>2014-12-07T05:53:21Z</time>
      </trkpt>
      <trkpt lat="41.544787000" lon="1.893633000">
        <ele>112.70</ele>
        <time>2014-12-07T05:53:34Z</time>
      </trkpt>
      <trkpt lat="41.544849000" lon="1.893624000">
        <ele>112.90</ele>
        <time>2014-12-07T05:53:38Z</time>
      </trkpt>
      <trkpt lat="41.544869000" lon="1.893711000">
        <ele>113.10</ele>
        <time>2014-12-07T05:53:44Z</time>
      </trkpt>
      <trkpt lat="41.544805000" lon="1.893832000">
        <ele>113.00</ele>
        <time>2014-12-07T05:53:56Z</time>
      </trkpt>
      <trkpt lat="41.544847000" lon="1.893887000">
        <ele>113.20</ele>
        <time>2014-12-07T05:54:16Z</time>
      </trkpt>
      <trkpt lat="41.544843000" lon="1.893900000">
        <ele>113.00</ele>
        <time>2014-12-07T05:54:19Z</time>
      </trkpt>
      <trkpt lat="41.544770000" lon="1.893919000">
        <ele>112.80</ele>
        <time>2014-12-07T05:54:24Z</time>
      </trkpt>
      <trkpt lat="41.544728000" lon="1.893947000">
        <ele>112.90</ele>
        <time>2014-12-07T05:54:29Z</time>
      </trkpt>
      <trkpt lat="41.544730000" lon="1.893993000">
        <ele>112.80</ele>
        <time>2014-12-07T05:54:50Z</time>
      </trkpt>
      <trkpt lat="41.544714000" lon="1.893971000">
        <ele>112.40</ele>
        <time>2014-12-07T06:01:44Z</time>
      </trkpt>
      <trkpt lat="41.544742000" lon="1.893901000">
        <ele>112.60</ele>
        <time>2014-12-07T06:01:51Z</time>
      </trkpt>
      <trkpt lat="41.544742000" lon="1.893851000">
        <ele>112.50</ele>
        <time>2014-12-07T06:01:53Z</time>
      </trkpt>
      <trkpt lat="41.544860000" lon="1.893755000">
        <ele>112.60</ele>
        <time>2014-12-07T06:02:07Z</time>
      </trkpt>
      <trkpt lat="41.544910000" lon="1.893730000">
        <ele>112.70</ele>
        <time>2014-12-07T06:02:21Z</time>
      </trkpt>
      <trkpt lat="41.544911000" lon="1.893730000">
        <ele>112.50</ele>
        <time>2014-12-07T06:03:00Z</time>
      </trkpt>
      <trkpt lat="41.544946000" lon="1.893674000">
        <ele>112.40</ele>
        <time>2014-12-07T06:03:04Z</time>
      </trkpt>
      <trkpt lat="41.544954000" lon="1.893549000">
        <ele>112.70</ele>
        <time>2014-12-07T06:03:09Z</time>
      </trkpt>
      <trkpt lat="41.545087000" lon="1.893174000">
        <ele>112.50</ele>
        <time>2014-12-07T06:03:22Z</time>
      </trkpt>
      <trkpt lat="41.545111000" lon="1.892568000">
        <ele>111.90</ele>
        <time>2014-12-07T06:03:35Z</time>
      </trkpt>
      <trkpt lat="41.545051000" lon="1.891728000">
        <ele>109.80</ele>
        <time>2014-12-07T06:03:51Z</time>
      </trkpt>
      <trkpt lat="41.545060000" lon="1.891614000">
        <ele>109.40</ele>
        <time>2014-12-07T06:03:53Z</time>
      </trkpt>
      <trkpt lat="41.545156000" lon="1.891363000">
        <ele>109.00</ele>
        <time>2014-12-07T06:03:59Z</time>
      </trkpt>
      <trkpt lat="41.544988000" lon="1.891179000">
        <ele>107.20</ele>
        <time>2014-12-07T06:04:06Z</time>
      </trkpt>
      <trkpt lat="41.544783000" lon="1.890916000">
        <ele>104.30</ele>
        <time>2014-12-07T06:04:11Z</time>
      </trkpt>
      <trkpt lat="41.544635000" lon="1.890710000">
        <ele>101.70</ele>
        <time>2014-12-07T06:04:14Z</time>
      </trkpt>
      <trkpt lat="41.544590000" lon="1.890413000">
        <ele>101.70</ele>
        <time>2014-12-07T06:04:18Z</time>
      </trkpt>
      <trkpt lat="41.544643000" lon="1.890208000">
        <ele>101.30</ele>
        <time>2014-12-07T06:04:21Z</time>
      </trkpt>
      <trkpt lat="41.544563000" lon="1.890018000">
        <ele>101.20</ele>
        <time>2014-12-07T06:04:25Z</time>
      </trkpt>
      <trkpt lat="41.544479000" lon="1.889981000">
        <ele>101.20</ele>
        <time>2014-12-07T06:04:27Z</time>
      </trkpt>
      <trkpt lat="41.544421000" lon="1.889792000">
        <ele>100.40</ele>
        <time>2014-12-07T06:04:31Z</time>
      </trkpt>
      <trkpt lat="41.544447000" lon="1.889475000">
        <ele>98.90</ele>
        <time>2014-12-07T06:04:36Z</time>
      </trkpt>
      <trkpt lat="41.544410000" lon="1.889343000">
        <ele>98.20</ele>
        <time>2014-12-07T06:04:38Z</time>
      </trkpt>
      <trkpt lat="41.544378000" lon="1.889202000">
        <ele>97.70</ele>
        <time>2014-12-07T06:04:40Z</time>
      </trkpt>
      <trkpt lat="41.544593000" lon="1.888149000">
        <ele>97.70</ele>
        <time>2014-12-07T06:04:57Z</time>
      </trkpt>
      <trkpt lat="41.544679000" lon="1.887748000">
        <ele>98.10</ele>
        <time>2014-12-07T06:05:05Z</time>
      </trkpt>
      <trkpt lat="41.544601000" lon="1.887633000">
        <ele>98.10</ele>
        <time>2014-12-07T06:05:09Z</time>
      </trkpt>
      <trkpt lat="41.544466000" lon="1.887591000">
        <ele>97.80</ele>
        <time>2014-12-07T06:05:13Z</time>
      </trkpt>
      <trkpt lat="41.544348000" lon="1.887476000">
        <ele>97.50</ele>
        <time>2014-12-07T06:05:18Z</time>
      </trkpt>
      <trkpt lat="41.544060000" lon="1.887163000">
        <ele>97.10</ele>
        <time>2014-12-07T06:05:30Z</time>
      </trkpt>
      <trkpt lat="41.543837000" lon="1.886843000">
        <ele>96.80</ele>
        <time>2014-12-07T06:05:40Z</time>
      </trkpt>
      <trkpt lat="41.543847000" lon="1.886696000">
        <ele>97.10</ele>
        <time>2014-12-07T06:05:43Z</time>
      </trkpt>
      <trkpt lat="41.544232000" lon="1.886047000">
        <ele>96.00</ele>
        <time>2014-12-07T06:05:57Z</time>
      </trkpt>
      <trkpt lat="41.545008000" lon="1.885123000">
        <ele>92.80</ele>
        <time>2014-12-07T06:06:17Z</time>
      </trkpt>
      <trkpt lat="41.545692000" lon="1.884286000">
        <ele>89.90</ele>
        <time>2014-12-07T06:06:32Z</time>
      </trkpt>
      <trkpt lat="41.545599000" lon="1.883922000">
        <ele>90.10</ele>
        <time>2014-12-07T06:06:39Z</time>
      </trkpt>
      <trkpt lat="41.545542000" lon="1.883889000">
        <ele>89.80</ele>
        <time>2014-12-07T06:06:40Z</time>
      </trkpt>
      <trkpt lat="41.544991000" lon="1.883625000">
        <ele>88.30</ele>
        <time>2014-12-07T06:06:49Z</time>
      </trkpt>
      <trkpt lat="41.544753000" lon="1.883428000">
        <ele>88.90</ele>
        <time>2014-12-07T06:06:54Z</time>
      </trkpt>
      <trkpt lat="41.544667000" lon="1.883270000">
        <ele>89.90</ele>
        <time>2014-12-07T06:06:57Z</time>
      </trkpt>
      <trkpt lat="41.544682000" lon="1.882941000">
        <ele>90.80</ele>
        <time>2014-12-07T06:07:03Z</time>
      </trkpt>
      <trkpt lat="41.544733000" lon="1.882826000">
        <ele>90.80</ele>
        <time>2014-12-07T06:07:05Z</time>
      </trkpt>
      <trkpt lat="41.544787000" lon="1.882478000">
        <ele>89.80</ele>
        <time>2014-12-07T06:07:10Z</time>
      </trkpt>
      <trkpt lat="41.544726000" lon="1.882178000">
        <ele>88.90</ele>
        <time>2014-12-07T06:07:14Z</time>
      </trkpt>
      <trkpt lat="41.544670000" lon="1.882042000">
        <ele>88.70</ele>
        <time>2014-12-07T06:07:16Z</time>
      </trkpt>
      <trkpt lat="41.544167000" lon="1.881860000">
        <ele>87.00</ele>
        <time>2014-12-07T06:07:26Z</time>
      </trkpt>
      <trkpt lat="41.543917000" lon="1.882018000">
        <ele>86.40</ele>
        <time>2014-12-07T06:07:31Z</time>
      </trkpt>
      <trkpt lat="41.543643000" lon="1.882055000">
        <ele>85.80</ele>
        <time>2014-12-07T06:07:37Z</time>
      </trkpt>
      <trkpt lat="41.543305000" lon="1.881832000">
        <ele>81.50</ele>
        <time>2014-12-07T06:07:43Z</time>
      </trkpt>
      <trkpt lat="41.543094000" lon="1.881683000">
        <ele>79.50</ele>
        <time>2014-12-07T06:07:46Z</time>
      </trkpt>
      <trkpt lat="41.542695000" lon="1.881424000">
        <ele>76.60</ele>
        <time>2014-12-07T06:07:51Z</time>
      </trkpt>
      <trkpt lat="41.541571000" lon="1.880713000">
        <ele>76.60</ele>
        <time>2014-12-07T06:08:07Z</time>
      </trkpt>
      <trkpt lat="41.541144000" lon="1.880478000">
        <ele>76.50</ele>
        <time>2014-12-07T06:08:15Z</time>
      </trkpt>
      <trkpt lat="41.541072000" lon="1.880194000">
        <ele>76.30</ele>
        <time>2014-12-07T06:08:20Z</time>
      </trkpt>
      <trkpt lat="41.541350000" lon="1.879007000">
        <ele>76.40</ele>
        <time>2014-12-07T06:08:38Z</time>
      </trkpt>
      <trkpt lat="41.541914000" lon="1.878000000">
        <ele>76.60</ele>
        <time>2014-12-07T06:08:56Z</time>
      </trkpt>
      <trkpt lat="41.542064000" lon="1.877592000">
        <ele>77.50</ele>
        <time>2014-12-07T06:09:03Z</time>
      </trkpt>
      <trkpt lat="41.542238000" lon="1.876386000">
        <ele>80.60</ele>
        <time>2014-12-07T06:09:25Z</time>
      </trkpt>
      <trkpt lat="41.542402000" lon="1.875120000">
        <ele>82.60</ele>
        <time>2014-12-07T06:09:49Z</time>
      </trkpt>
      <trkpt lat="41.542671000" lon="1.873943000">
        <ele>83.20</ele>
        <time>2014-12-07T06:10:11Z</time>
      </trkpt>
      <trkpt lat="41.543116000" lon="1.872926000">
        <ele>82.60</ele>
        <time>2014-12-07T06:10:31Z</time>
      </trkpt>
      <trkpt lat="41.543624000" lon="1.872346000">
        <ele>79.90</ele>
        <time>2014-12-07T06:10:43Z</time>
      </trkpt>
      <trkpt lat="41.543978000" lon="1.872178000">
        <ele>78.00</ele>
        <time>2014-12-07T06:10:49Z</time>
      </trkpt>
      <trkpt lat="41.544154000" lon="1.872149000">
        <ele>78.30</ele>
        <time>2014-12-07T06:10:52Z</time>
      </trkpt>
      <trkpt lat="41.544572000" lon="1.872059000">
        <ele>76.50</ele>
        <time>2014-12-07T06:10:59Z</time>
      </trkpt>
      <trkpt lat="41.544852000" lon="1.872155000">
        <ele>75.30</ele>
        <time>2014-12-07T06:11:04Z</time>
      </trkpt>
      <trkpt lat="41.544904000" lon="1.872182000">
        <ele>76.80</ele>
        <time>2014-12-07T06:11:05Z</time>
      </trkpt>
      <trkpt lat="41.545005000" lon="1.872220000">
        <ele>76.10</ele>
        <time>2014-12-07T06:11:07Z</time>
      </trkpt>
      <trkpt lat="41.545154000" lon="1.872243000">
        <ele>76.70</ele>
        <time>2014-12-07T06:11:10Z</time>
      </trkpt>
      <trkpt lat="41.545307000" lon="1.872238000">
        <ele>77.40</ele>
        <time>2014-12-07T06:11:13Z</time>
      </trkpt>
      <trkpt lat="41.545756000" lon="1.871966000">
        <ele>77.80</ele>
        <time>2014-12-07T06:11:23Z</time>
      </trkpt>
      <trkpt lat="41.545934000" lon="1.871868000">
        <ele>77.70</ele>
        <time>2014-12-07T06:11:27Z</time>
      </trkpt>
      <trkpt lat="41.546131000" lon="1.871821000">
        <ele>76.00</ele>
        <time>2014-12-07T06:11:31Z</time>
      </trkpt>
      <trkpt lat="41.546952000" lon="1.871949000">
        <ele>77.00</ele>
        <time>2014-12-07T06:11:47Z</time>
      </trkpt>
      <trkpt lat="41.547099000" lon="1.871970000">
        <ele>76.50</ele>
        <time>2014-12-07T06:11:50Z</time>
      </trkpt>
      <trkpt lat="41.547389000" lon="1.871917000">
        <ele>75.70</ele>
        <time>2014-12-07T06:11:56Z</time>
      </trkpt>
      <trkpt lat="41.547833000" lon="1.871455000">
        <ele>79.30</ele>
        <time>2014-12-07T06:12:08Z</time>
      </trkpt>
      <trkpt lat="41.547860000" lon="1.871418000">
        <ele>74.70</ele>
        <time>2014-12-07T06:12:09Z</time>
      </trkpt>
      <trkpt lat="41.547888000" lon="1.871384000">
        <ele>78.90</ele>
        <time>2014-12-07T06:12:10Z</time>
      </trkpt>
      <trkpt lat="41.548284000" lon="1.870936000">
        <ele>82.30</ele>
        <time>2014-12-07T06:12:24Z</time>
      </trkpt>
      <trkpt lat="41.548639000" lon="1.870486000">
        <ele>83.20</ele>
        <time>2014-12-07T06:12:38Z</time>
      </trkpt>
      <trkpt lat="41.548823000" lon="1.870303000">
        <ele>85.00</ele>
        <time>2014-12-07T06:12:46Z</time>
      </trkpt>
      <trkpt lat="41.548911000" lon="1.870389000">
        <ele>85.50</ele>
        <time>2014-12-07T06:12:50Z</time>
      </trkpt>
      <trkpt lat="41.549016000" lon="1.870362000">
        <ele>85.40</ele>
        <time>2014-12-07T06:12:54Z</time>
      </trkpt>
      <trkpt lat="41.549044000" lon="1.870293000">
        <ele>85.90</ele>
        <time>2014-12-07T06:12:56Z</time>
      </trkpt>
      <trkpt lat="41.549361000" lon="1.869865000">
        <ele>87.70</ele>
        <time>2014-12-07T06:13:10Z</time>
      </trkpt>
      <trkpt lat="41.549631000" lon="1.869370000">
        <ele>90.70</ele>
        <time>2014-12-07T06:13:25Z</time>
      </trkpt>
      <trkpt lat="41.549851000" lon="1.868926000">
        <ele>93.10</ele>
        <time>2014-12-07T06:13:39Z</time>
      </trkpt>
      <trkpt lat="41.550117000" lon="1.868455000">
        <ele>95.90</ele>
        <time>2014-12-07T06:13:55Z</time>
      </trkpt>
      <trkpt lat="41.550391000" lon="1.868199000">
        <ele>98.20</ele>
        <time>2014-12-07T06:14:08Z</time>
      </trkpt>
      <trkpt lat="41.550666000" lon="1.867851000">
        <ele>98.60</ele>
        <time>2014-12-07T06:14:21Z</time>
      </trkpt>
      <trkpt lat="41.550814000" lon="1.867597000">
        <ele>100.00</ele>
        <time>2014-12-07T06:14:32Z</time>
      </trkpt>
      <trkpt lat="41.551183000" lon="1.867183000">
        <ele>103.00</ele>
        <time>2014-12-07T06:14:51Z</time>
      </trkpt>
      <trkpt lat="41.551539000" lon="1.866769000">
        <ele>105.70</ele>
        <time>2014-12-07T06:15:10Z</time>
      </trkpt>
      <trkpt lat="41.551877000" lon="1.866401000">
        <ele>108.90</ele>
        <time>2014-12-07T06:15:28Z</time>
      </trkpt>
      <trkpt lat="41.552041000" lon="1.865925000">
        <ele>111.00</ele>
        <time>2014-12-07T06:15:44Z</time>
      </trkpt>
      <trkpt lat="41.552298000" lon="1.865467000">
        <ele>114.00</ele>
        <time>2014-12-07T06:16:05Z</time>
      </trkpt>
      <trkpt lat="41.552345000" lon="1.865400000">
        <ele>114.20</ele>
        <time>2014-12-07T06:16:09Z</time>
      </trkpt>
      <trkpt lat="41.552614000" lon="1.865075000">
        <ele>115.80</ele>
        <time>2014-12-07T06:16:30Z</time>
      </trkpt>
      <trkpt lat="41.552862000" lon="1.864782000">
        <ele>117.20</ele>
        <time>2014-12-07T06:16:47Z</time>
      </trkpt>
      <trkpt lat="41.553057000" lon="1.864304000">
        <ele>120.20</ele>
        <time>2014-12-07T06:17:07Z</time>
      </trkpt>
      <trkpt lat="41.553094000" lon="1.863830000">
        <ele>122.00</ele>
        <time>2014-12-07T06:17:25Z</time>
      </trkpt>
      <trkpt lat="41.553183000" lon="1.863368000">
        <ele>123.90</ele>
        <time>2014-12-07T06:17:42Z</time>
      </trkpt>
      <trkpt lat="41.553282000" lon="1.862795000">
        <ele>126.40</ele>
        <time>2014-12-07T06:18:03Z</time>
      </trkpt>
      <trkpt lat="41.553407000" lon="1.862355000">
        <ele>128.80</ele>
        <time>2014-12-07T06:18:21Z</time>
      </trkpt>
      <trkpt lat="41.553484000" lon="1.861947000">
        <ele>130.70</ele>
        <time>2014-12-07T06:18:36Z</time>
      </trkpt>
      <trkpt lat="41.553469000" lon="1.861663000">
        <ele>131.80</ele>
        <time>2014-12-07T06:18:48Z</time>
      </trkpt>
      <trkpt lat="41.553477000" lon="1.861519000">
        <ele>133.20</ele>
        <time>2014-12-07T06:18:55Z</time>
      </trkpt>
      <trkpt lat="41.553475000" lon="1.861475000">
        <ele>133.40</ele>
        <time>2014-12-07T06:18:57Z</time>
      </trkpt>
      <trkpt lat="41.553517000" lon="1.861211000">
        <ele>135.70</ele>
        <time>2014-12-07T06:19:10Z</time>
      </trkpt>
      <trkpt lat="41.553631000" lon="1.861180000">
        <ele>137.00</ele>
        <time>2014-12-07T06:19:20Z</time>
      </trkpt>
      <trkpt lat="41.553706000" lon="1.860925000">
        <ele>140.10</ele>
        <time>2014-12-07T06:19:33Z</time>
      </trkpt>
      <trkpt lat="41.553744000" lon="1.860829000">
        <ele>141.10</ele>
        <time>2014-12-07T06:19:38Z</time>
      </trkpt>
      <trkpt lat="41.553766000" lon="1.860804000">
        <ele>141.60</ele>
        <time>2014-12-07T06:19:41Z</time>
      </trkpt>
      <trkpt lat="41.553829000" lon="1.860864000">
        <ele>142.80</ele>
        <time>2014-12-07T06:19:47Z</time>
      </trkpt>
      <trkpt lat="41.553846000" lon="1.861221000">
        <ele>145.10</ele>
        <time>2014-12-07T06:20:03Z</time>
      </trkpt>
      <trkpt lat="41.553854000" lon="1.861500000">
        <ele>146.50</ele>
        <time>2014-12-07T06:20:15Z</time>
      </trkpt>
      <trkpt lat="41.553850000" lon="1.861963000">
        <ele>149.20</ele>
        <time>2014-12-07T06:20:33Z</time>
      </trkpt>
      <trkpt lat="41.553854000" lon="1.862086000">
        <ele>150.20</ele>
        <time>2014-12-07T06:20:38Z</time>
      </trkpt>
      <trkpt lat="41.553863000" lon="1.862390000">
        <ele>153.50</ele>
        <time>2014-12-07T06:20:51Z</time>
      </trkpt>
      <trkpt lat="41.553871000" lon="1.862406000">
        <ele>153.90</ele>
        <time>2014-12-07T06:20:52Z</time>
      </trkpt>
      <trkpt lat="41.553987000" lon="1.862401000">
        <ele>155.90</ele>
        <time>2014-12-07T06:20:59Z</time>
      </trkpt>
      <trkpt lat="41.554011000" lon="1.862368000">
        <ele>156.70</ele>
        <time>2014-12-07T06:21:01Z</time>
      </trkpt>
      <trkpt lat="41.554121000" lon="1.862126000">
        <ele>160.00</ele>
        <time>2014-12-07T06:21:14Z</time>
      </trkpt>
      <trkpt lat="41.554137000" lon="1.862044000">
        <ele>160.70</ele>
        <time>2014-12-07T06:21:19Z</time>
      </trkpt>
      <trkpt lat="41.554171000" lon="1.862115000">
        <ele>161.90</ele>
        <time>2014-12-07T06:21:25Z</time>
      </trkpt>
      <trkpt lat="41.554116000" lon="1.862396000">
        <ele>163.80</ele>
        <time>2014-12-07T06:21:38Z</time>
      </trkpt>
      <trkpt lat="41.554120000" lon="1.862501000">
        <ele>164.00</ele>
        <time>2014-12-07T06:21:42Z</time>
      </trkpt>
      <trkpt lat="41.554150000" lon="1.862601000">
        <ele>164.20</ele>
        <time>2014-12-07T06:21:46Z</time>
      </trkpt>
      <trkpt lat="41.554296000" lon="1.862611000">
        <ele>166.10</ele>
        <time>2014-12-07T06:21:55Z</time>
      </trkpt>
      <trkpt lat="41.554329000" lon="1.862205000">
        <ele>168.80</ele>
        <time>2014-12-07T06:22:11Z</time>
      </trkpt>
      <trkpt lat="41.554349000" lon="1.861699000">
        <ele>171.80</ele>
        <time>2014-12-07T06:22:31Z</time>
      </trkpt>
      <trkpt lat="41.554415000" lon="1.861283000">
        <ele>173.50</ele>
        <time>2014-12-07T06:22:47Z</time>
      </trkpt>
      <trkpt lat="41.554472000" lon="1.861047000">
        <ele>174.70</ele>
        <time>2014-12-07T06:22:57Z</time>
      </trkpt>
      <trkpt lat="41.554542000" lon="1.861078000">
        <ele>177.00</ele>
        <time>2014-12-07T06:23:04Z</time>
      </trkpt>
      <trkpt lat="41.554618000" lon="1.861602000">
        <ele>180.30</ele>
        <time>2014-12-07T06:23:24Z</time>
      </trkpt>
      <trkpt lat="41.554708000" lon="1.861999000">
        <ele>183.40</ele>
        <time>2014-12-07T06:23:40Z</time>
      </trkpt>
      <trkpt lat="41.554706000" lon="1.862441000">
        <ele>186.40</ele>
        <time>2014-12-07T06:23:57Z</time>
      </trkpt>
      <trkpt lat="41.554670000" lon="1.862699000">
        <ele>188.00</ele>
        <time>2014-12-07T06:24:07Z</time>
      </trkpt>
      <trkpt lat="41.554757000" lon="1.862753000">
        <ele>189.70</ele>
        <time>2014-12-07T06:24:14Z</time>
      </trkpt>
      <trkpt lat="41.554836000" lon="1.862411000">
        <ele>191.80</ele>
        <time>2014-12-07T06:24:28Z</time>
      </trkpt>
      <trkpt lat="41.554986000" lon="1.861897000">
        <ele>194.60</ele>
        <time>2014-12-07T06:24:48Z</time>
      </trkpt>
      <trkpt lat="41.555014000" lon="1.861729000">
        <ele>195.00</ele>
        <time>2014-12-07T06:24:54Z</time>
      </trkpt>
      <trkpt lat="41.554975000" lon="1.861379000">
        <ele>196.60</ele>
        <time>2014-12-07T06:25:07Z</time>
      </trkpt>
      <trkpt lat="41.555061000" lon="1.860780000">
        <ele>199.50</ele>
        <time>2014-12-07T06:25:28Z</time>
      </trkpt>
      <trkpt lat="41.555101000" lon="1.860537000">
        <ele>202.80</ele>
        <time>2014-12-07T06:25:38Z</time>
      </trkpt>
      <trkpt lat="41.555233000" lon="1.860375000">
        <ele>205.80</ele>
        <time>2014-12-07T06:25:50Z</time>
      </trkpt>
      <trkpt lat="41.555241000" lon="1.860384000">
        <ele>206.20</ele>
        <time>2014-12-07T06:25:51Z</time>
      </trkpt>
      <trkpt lat="41.555247000" lon="1.860453000">
        <ele>207.00</ele>
        <time>2014-12-07T06:25:55Z</time>
      </trkpt>
      <trkpt lat="41.555256000" lon="1.860883000">
        <ele>209.80</ele>
        <time>2014-12-07T06:26:12Z</time>
      </trkpt>
      <trkpt lat="41.555426000" lon="1.861215000">
        <ele>212.10</ele>
        <time>2014-12-07T06:26:28Z</time>
      </trkpt>
      <trkpt lat="41.555576000" lon="1.861127000">
        <ele>215.30</ele>
        <time>2014-12-07T06:26:37Z</time>
      </trkpt>
      <trkpt lat="41.555648000" lon="1.860952000">
        <ele>218.80</ele>
        <time>2014-12-07T06:26:47Z</time>
      </trkpt>
      <trkpt lat="41.555737000" lon="1.860712000">
        <ele>221.90</ele>
        <time>2014-12-07T06:27:00Z</time>
      </trkpt>
      <trkpt lat="41.555898000" lon="1.860479000">
        <ele>225.10</ele>
        <time>2014-12-07T06:27:15Z</time>
      </trkpt>
      <trkpt lat="41.556042000" lon="1.860249000">
        <ele>227.80</ele>
        <time>2014-12-07T06:27:29Z</time>
      </trkpt>
      <trkpt lat="41.555998000" lon="1.860006000">
        <ele>231.40</ele>
        <time>2014-12-07T06:27:42Z</time>
      </trkpt>
      <trkpt lat="41.555933000" lon="1.859922000">
        <ele>233.40</ele>
        <time>2014-12-07T06:27:48Z</time>
      </trkpt>
      <trkpt lat="41.555905000" lon="1.859846000">
        <ele>234.90</ele>
        <time>2014-12-07T06:27:53Z</time>
      </trkpt>
      <trkpt lat="41.555893000" lon="1.859813000">
        <ele>235.30</ele>
        <time>2014-12-07T06:27:56Z</time>
      </trkpt>
      <trkpt lat="41.555902000" lon="1.859742000">
        <ele>235.20</ele>
        <time>2014-12-07T06:28:02Z</time>
      </trkpt>
      <trkpt lat="41.555963000" lon="1.859529000">
        <ele>236.20</ele>
        <time>2014-12-07T06:28:20Z</time>
      </trkpt>
      <trkpt lat="41.555954000" lon="1.859500000">
        <ele>237.10</ele>
        <time>2014-12-07T06:28:23Z</time>
      </trkpt>
      <trkpt lat="41.555923000" lon="1.859561000">
        <ele>236.30</ele>
        <time>2014-12-07T06:28:29Z</time>
      </trkpt>
      <trkpt lat="41.555873000" lon="1.859686000">
        <ele>235.30</ele>
        <time>2014-12-07T06:28:35Z</time>
      </trkpt>
      <trkpt lat="41.555861000" lon="1.859730000">
        <ele>235.10</ele>
        <time>2014-12-07T06:28:38Z</time>
      </trkpt>
      <trkpt lat="41.555876000" lon="1.859805000">
        <ele>234.80</ele>
        <time>2014-12-07T06:28:45Z</time>
      </trkpt>
      <trkpt lat="41.555860000" lon="1.859795000">
        <ele>234.90</ele>
        <time>2014-12-07T06:28:55Z</time>
      </trkpt>
      <trkpt lat="41.555867000" lon="1.859796000">
        <ele>234.40</ele>
        <time>2014-12-07T06:30:16Z</time>
      </trkpt>
      <trkpt lat="41.555876000" lon="1.859785000">
        <ele>232.80</ele>
        <time>2014-12-07T06:33:08Z</time>
      </trkpt>
      <trkpt lat="41.555889000" lon="1.859698000">
        <ele>233.00</ele>
        <time>2014-12-07T06:33:13Z</time>
      </trkpt>
      <trkpt lat="41.556011000" lon="1.859314000">
        <ele>236.40</ele>
        <time>2014-12-07T06:33:29Z</time>
      </trkpt>
      <trkpt lat="41.556169000" lon="1.858802000">
        <ele>237.50</ele>
        <time>2014-12-07T06:33:48Z</time>
      </trkpt>
      <trkpt lat="41.556233000" lon="1.858361000">
        <ele>236.40</ele>
        <time>2014-12-07T06:34:00Z</time>
      </trkpt>
      <trkpt lat="41.556265000" lon="1.858231000">
        <ele>235.70</ele>
        <time>2014-12-07T06:34:02Z</time>
      </trkpt>
      <trkpt lat="41.556309000" lon="1.858018000">
        <ele>234.20</ele>
        <time>2014-12-07T06:34:05Z</time>
      </trkpt>
      <trkpt lat="41.556358000" lon="1.857862000">
        <ele>231.60</ele>
        <time>2014-12-07T06:34:07Z</time>
      </trkpt>
      <trkpt lat="41.556480000" lon="1.857627000">
        <ele>227.30</ele>
        <time>2014-12-07T06:34:10Z</time>
      </trkpt>
      <trkpt lat="41.556598000" lon="1.857511000">
        <ele>224.10</ele>
        <time>2014-12-07T06:34:12Z</time>
      </trkpt>
      <trkpt lat="41.556738000" lon="1.857392000">
        <ele>221.10</ele>
        <time>2014-12-07T06:34:14Z</time>
      </trkpt>
      <trkpt lat="41.556959000" lon="1.857006000">
        <ele>216.90</ele>
        <time>2014-12-07T06:34:18Z</time>
      </trkpt>
      <trkpt lat="41.557102000" lon="1.856727000">
        <ele>215.90</ele>
        <time>2014-12-07T06:34:21Z</time>
      </trkpt>
      <trkpt lat="41.557449000" lon="1.856495000">
        <ele>212.50</ele>
        <time>2014-12-07T06:34:27Z</time>
      </trkpt>
      <trkpt lat="41.557572000" lon="1.856472000">
        <ele>211.70</ele>
        <time>2014-12-07T06:34:29Z</time>
      </trkpt>
      <trkpt lat="41.557653000" lon="1.856310000">
        <ele>215.30</ele>
        <time>2014-12-07T06:34:33Z</time>
      </trkpt>
      <trkpt lat="41.557629000" lon="1.856277000">
        <ele>216.40</ele>
        <time>2014-12-07T06:34:34Z</time>
      </trkpt>
      <trkpt lat="41.557549000" lon="1.856189000">
        <ele>218.50</ele>
        <time>2014-12-07T06:34:38Z</time>
      </trkpt>
      <trkpt lat="41.557333000" lon="1.856032000">
        <ele>221.80</ele>
        <time>2014-12-07T06:34:48Z</time>
      </trkpt>
      <trkpt lat="41.556916000" lon="1.855992000">
        <ele>225.00</ele>
        <time>2014-12-07T06:35:04Z</time>
      </trkpt>
      <trkpt lat="41.556734000" lon="1.856064000">
        <ele>228.10</ele>
        <time>2014-12-07T06:35:12Z</time>
      </trkpt>
      <trkpt lat="41.556408000" lon="1.856288000">
        <ele>231.40</ele>
        <time>2014-12-07T06:35:27Z</time>
      </trkpt>
      <trkpt lat="41.556294000" lon="1.856349000">
        <ele>233.00</ele>
        <time>2014-12-07T06:35:33Z</time>
      </trkpt>
      <trkpt lat="41.556036000" lon="1.856328000">
        <ele>235.20</ele>
        <time>2014-12-07T06:35:44Z</time>
      </trkpt>
      <trkpt lat="41.556013000" lon="1.856145000">
        <ele>236.00</ele>
        <time>2014-12-07T06:35:50Z</time>
      </trkpt>
      <trkpt lat="41.556178000" lon="1.855538000">
        <ele>238.60</ele>
        <time>2014-12-07T06:36:10Z</time>
      </trkpt>
      <trkpt lat="41.556458000" lon="1.855073000">
        <ele>240.70</ele>
        <time>2014-12-07T06:36:29Z</time>
      </trkpt>
      <trkpt lat="41.556606000" lon="1.854611000">
        <ele>240.60</ele>
        <time>2014-12-07T06:36:43Z</time>
      </trkpt>
      <trkpt lat="41.556887000" lon="1.854474000">
        <ele>243.30</ele>
        <time>2014-12-07T06:36:55Z</time>
      </trkpt>
      <trkpt lat="41.556930000" lon="1.854140000">
        <ele>242.50</ele>
        <time>2014-12-07T06:37:05Z</time>
      </trkpt>
      <trkpt lat="41.556783000" lon="1.854100000">
        <ele>243.50</ele>
        <time>2014-12-07T06:37:11Z</time>
      </trkpt>
      <trkpt lat="41.556345000" lon="1.854048000">
        <ele>245.40</ele>
        <time>2014-12-07T06:37:28Z</time>
      </trkpt>
      <trkpt lat="41.556066000" lon="1.854289000">
        <ele>247.00</ele>
        <time>2014-12-07T06:37:41Z</time>
      </trkpt>
      <trkpt lat="41.555870000" lon="1.854142000">
        <ele>249.30</ele>
        <time>2014-12-07T06:37:51Z</time>
      </trkpt>
      <trkpt lat="41.555849000" lon="1.854022000">
        <ele>250.50</ele>
        <time>2014-12-07T06:37:55Z</time>
      </trkpt>
      <trkpt lat="41.555873000" lon="1.853849000">
        <ele>251.70</ele>
        <time>2014-12-07T06:38:02Z</time>
      </trkpt>
      <trkpt lat="41.555841000" lon="1.853733000">
        <ele>249.20</ele>
        <time>2014-12-07T06:38:04Z</time>
      </trkpt>
      <trkpt lat="41.555801000" lon="1.853621000">
        <ele>248.40</ele>
        <time>2014-12-07T06:38:06Z</time>
      </trkpt>
      <trkpt lat="41.555607000" lon="1.853438000">
        <ele>249.90</ele>
        <time>2014-12-07T06:38:11Z</time>
      </trkpt>
      <trkpt lat="41.555439000" lon="1.853377000">
        <ele>253.90</ele>
        <time>2014-12-07T06:38:16Z</time>
      </trkpt>
      <trkpt lat="41.555423000" lon="1.853363000">
        <ele>254.10</ele>
        <time>2014-12-07T06:38:17Z</time>
      </trkpt>
      <trkpt lat="41.555410000" lon="1.853345000">
        <ele>254.60</ele>
        <time>2014-12-07T06:38:18Z</time>
      </trkpt>
      <trkpt lat="41.555389000" lon="1.853194000">
        <ele>255.50</ele>
        <time>2014-12-07T06:38:25Z</time>
      </trkpt>
      <trkpt lat="41.555364000" lon="1.853132000">
        <ele>255.50</ele>
        <time>2014-12-07T06:38:29Z</time>
      </trkpt>
      <trkpt lat="41.555324000" lon="1.853126000">
        <ele>255.10</ele>
        <time>2014-12-07T06:38:49Z</time>
      </trkpt>
      <trkpt lat="41.555299000" lon="1.853133000">
        <ele>254.90</ele>
        <time>2014-12-07T06:38:53Z</time>
      </trkpt>
      <trkpt lat="41.555106000" lon="1.853163000">
        <ele>254.20</ele>
        <time>2014-12-07T06:39:14Z</time>
      </trkpt>
      <trkpt lat="41.555096000" lon="1.853166000">
        <ele>254.40</ele>
        <time>2014-12-07T06:39:15Z</time>
      </trkpt>
      <trkpt lat="41.554795000" lon="1.853219000">
        <ele>253.00</ele>
        <time>2014-12-07T06:39:40Z</time>
      </trkpt>
      <trkpt lat="41.554664000" lon="1.853245000">
        <ele>252.50</ele>
        <time>2014-12-07T06:39:52Z</time>
      </trkpt>
      <trkpt lat="41.554547000" lon="1.853185000">
        <ele>252.70</ele>
        <time>2014-12-07T06:40:11Z</time>
      </trkpt>
      <trkpt lat="41.554528000" lon="1.853169000">
        <ele>252.20</ele>
        <time>2014-12-07T06:41:19Z</time>
      </trkpt>
      <trkpt lat="41.554473000" lon="1.852781000">
        <ele>252.40</ele>
        <time>2014-12-07T06:41:34Z</time>
      </trkpt>
      <trkpt lat="41.554552000" lon="1.852131000">
        <ele>253.40</ele>
        <time>2014-12-07T06:41:54Z</time>
      </trkpt>
      <trkpt lat="41.554501000" lon="1.851790000">
        <ele>250.40</ele>
        <time>2014-12-07T06:42:05Z</time>
      </trkpt>
      <trkpt lat="41.554372000" lon="1.851707000">
        <ele>247.20</ele>
        <time>2014-12-07T06:42:08Z</time>
      </trkpt>
      <trkpt lat="41.554205000" lon="1.851493000">
        <ele>242.30</ele>
        <time>2014-12-07T06:42:12Z</time>
      </trkpt>
      <trkpt lat="41.554173000" lon="1.851349000">
        <ele>241.10</ele>
        <time>2014-12-07T06:42:14Z</time>
      </trkpt>
      <trkpt lat="41.554024000" lon="1.850766000">
        <ele>242.30</ele>
        <time>2014-12-07T06:42:26Z</time>
      </trkpt>
      <trkpt lat="41.554029000" lon="1.850699000">
        <ele>243.80</ele>
        <time>2014-12-07T06:42:28Z</time>
      </trkpt>
      <trkpt lat="41.554045000" lon="1.850641000">
        <ele>244.70</ele>
        <time>2014-12-07T06:42:30Z</time>
      </trkpt>
      <trkpt lat="41.554356000" lon="1.850367000">
        <ele>246.10</ele>
        <time>2014-12-07T06:42:46Z</time>
      </trkpt>
      <trkpt lat="41.554679000" lon="1.850055000">
        <ele>249.20</ele>
        <time>2014-12-07T06:43:04Z</time>
      </trkpt>
      <trkpt lat="41.554940000" lon="1.849638000">
        <ele>251.20</ele>
        <time>2014-12-07T06:43:23Z</time>
      </trkpt>
      <trkpt lat="41.554862000" lon="1.849129000">
        <ele>247.90</ele>
        <time>2014-12-07T06:43:32Z</time>
      </trkpt>
      <trkpt lat="41.554787000" lon="1.848866000">
        <ele>243.90</ele>
        <time>2014-12-07T06:43:35Z</time>
      </trkpt>
      <trkpt lat="41.554633000" lon="1.848565000">
        <ele>239.80</ele>
        <time>2014-12-07T06:43:38Z</time>
      </trkpt>
      <trkpt lat="41.554522000" lon="1.848364000">
        <ele>239.50</ele>
        <time>2014-12-07T06:43:40Z</time>
      </trkpt>
      <trkpt lat="41.554400000" lon="1.848050000">
        <ele>240.60</ele>
        <time>2014-12-07T06:43:44Z</time>
      </trkpt>
      <trkpt lat="41.554247000" lon="1.847689000">
        <ele>241.40</ele>
        <time>2014-12-07T06:43:54Z</time>
      </trkpt>
      <trkpt lat="41.554239000" lon="1.847532000">
        <ele>241.40</ele>
        <time>2014-12-07T06:43:58Z</time>
      </trkpt>
      <trkpt lat="41.553928000" lon="1.846870000">
        <ele>242.10</ele>
        <time>2014-12-07T06:44:14Z</time>
      </trkpt>
      <trkpt lat="41.553796000" lon="1.846779000">
        <ele>242.50</ele>
        <time>2014-12-07T06:44:19Z</time>
      </trkpt>
      <trkpt lat="41.553635000" lon="1.846274000">
        <ele>242.10</ele>
        <time>2014-12-07T06:44:32Z</time>
      </trkpt>
      <trkpt lat="41.553666000" lon="1.845359000">
        <ele>244.60</ele>
        <time>2014-12-07T06:44:50Z</time>
      </trkpt>
      <trkpt lat="41.553793000" lon="1.844634000">
        <ele>247.30</ele>
        <time>2014-12-07T06:45:07Z</time>
      </trkpt>
      <trkpt lat="41.553891000" lon="1.843974000">
        <ele>249.00</ele>
        <time>2014-12-07T06:45:26Z</time>
      </trkpt>
      <trkpt lat="41.554067000" lon="1.843576000">
        <ele>250.20</ele>
        <time>2014-12-07T06:45:38Z</time>
      </trkpt>
      <trkpt lat="41.554387000" lon="1.842873000">
        <ele>251.80</ele>
        <time>2014-12-07T06:45:56Z</time>
      </trkpt>
      <trkpt lat="41.554736000" lon="1.842125000">
        <ele>253.10</ele>
        <time>2014-12-07T06:46:16Z</time>
      </trkpt>
      <trkpt lat="41.555033000" lon="1.841463000">
        <ele>255.40</ele>
        <time>2014-12-07T06:46:32Z</time>
      </trkpt>
      <trkpt lat="41.555317000" lon="1.840880000">
        <ele>258.70</ele>
        <time>2014-12-07T06:46:48Z</time>
      </trkpt>
      <trkpt lat="41.555590000" lon="1.840444000">
        <ele>261.00</ele>
        <time>2014-12-07T06:47:01Z</time>
      </trkpt>
      <trkpt lat="41.555961000" lon="1.839828000">
        <ele>264.20</ele>
        <time>2014-12-07T06:47:18Z</time>
      </trkpt>
      <trkpt lat="41.556331000" lon="1.839332000">
        <ele>266.30</ele>
        <time>2014-12-07T06:47:34Z</time>
      </trkpt>
      <trkpt lat="41.556715000" lon="1.838826000">
        <ele>269.10</ele>
        <time>2014-12-07T06:47:51Z</time>
      </trkpt>
      <trkpt lat="41.557138000" lon="1.838432000">
        <ele>272.30</ele>
        <time>2014-12-07T06:48:07Z</time>
      </trkpt>
      <trkpt lat="41.557547000" lon="1.838078000">
        <ele>274.30</ele>
        <time>2014-12-07T06:48:22Z</time>
      </trkpt>
      <trkpt lat="41.557965000" lon="1.837492000">
        <ele>277.40</ele>
        <time>2014-12-07T06:48:40Z</time>
      </trkpt>
      <trkpt lat="41.558118000" lon="1.837288000">
        <ele>280.00</ele>
        <time>2014-12-07T06:48:47Z</time>
      </trkpt>
      <trkpt lat="41.558377000" lon="1.836903000">
        <ele>282.10</ele>
        <time>2014-12-07T06:48:59Z</time>
      </trkpt>
      <trkpt lat="41.558825000" lon="1.836086000">
        <ele>285.10</ele>
        <time>2014-12-07T06:49:22Z</time>
      </trkpt>
      <trkpt lat="41.559128000" lon="1.835534000">
        <ele>288.10</ele>
        <time>2014-12-07T06:49:38Z</time>
      </trkpt>
      <trkpt lat="41.559454000" lon="1.835185000">
        <ele>291.20</ele>
        <time>2014-12-07T06:49:51Z</time>
      </trkpt>
      <trkpt lat="41.559826000" lon="1.834909000">
        <ele>293.50</ele>
        <time>2014-12-07T06:50:04Z</time>
      </trkpt>
      <trkpt lat="41.560098000" lon="1.834620000">
        <ele>296.50</ele>
        <time>2014-12-07T06:50:15Z</time>
      </trkpt>
      <trkpt lat="41.560552000" lon="1.834242000">
        <ele>299.60</ele>
        <time>2014-12-07T06:50:32Z</time>
      </trkpt>
      <trkpt lat="41.560889000" lon="1.833914000">
        <ele>302.60</ele>
        <time>2014-12-07T06:50:46Z</time>
      </trkpt>
      <trkpt lat="41.561207000" lon="1.833533000">
        <ele>305.70</ele>
        <time>2014-12-07T06:51:00Z</time>
      </trkpt>
      <trkpt lat="41.561555000" lon="1.833267000">
        <ele>308.90</ele>
        <time>2014-12-07T06:51:14Z</time>
      </trkpt>
      <trkpt lat="41.561916000" lon="1.833013000">
        <ele>312.10</ele>
        <time>2014-12-07T06:51:28Z</time>
      </trkpt>
      <trkpt lat="41.562267000" lon="1.832801000">
        <ele>315.30</ele>
        <time>2014-12-07T06:51:42Z</time>
      </trkpt>
      <trkpt lat="41.562623000" lon="1.832586000">
        <ele>318.50</ele>
        <time>2014-12-07T06:51:57Z</time>
      </trkpt>
      <trkpt lat="41.563215000" lon="1.832457000">
        <ele>320.30</ele>
        <time>2014-12-07T06:52:18Z</time>
      </trkpt>
      <trkpt lat="41.563650000" lon="1.832409000">
        <ele>323.40</ele>
        <time>2014-12-07T06:52:33Z</time>
      </trkpt>
      <trkpt lat="41.563960000" lon="1.832151000">
        <ele>326.60</ele>
        <time>2014-12-07T06:52:46Z</time>
      </trkpt>
      <trkpt lat="41.564199000" lon="1.831862000">
        <ele>329.70</ele>
        <time>2014-12-07T06:52:58Z</time>
      </trkpt>
      <trkpt lat="41.564385000" lon="1.831606000">
        <ele>333.30</ele>
        <time>2014-12-07T06:53:09Z</time>
      </trkpt>
      <trkpt lat="41.564386000" lon="1.831592000">
        <ele>333.40</ele>
        <time>2014-12-07T06:53:10Z</time>
      </trkpt>
      <trkpt lat="41.564384000" lon="1.831583000">
        <ele>333.50</ele>
        <time>2014-12-07T06:53:11Z</time>
      </trkpt>
      <trkpt lat="41.564336000" lon="1.831595000">
        <ele>333.40</ele>
        <time>2014-12-07T06:53:15Z</time>
      </trkpt>
      <trkpt lat="41.564243000" lon="1.831667000">
        <ele>332.80</ele>
        <time>2014-12-07T06:53:22Z</time>
      </trkpt>
      <trkpt lat="41.564207000" lon="1.831727000">
        <ele>331.60</ele>
        <time>2014-12-07T06:53:26Z</time>
      </trkpt>
      <trkpt lat="41.564220000" lon="1.831832000">
        <ele>330.10</ele>
        <time>2014-12-07T06:53:32Z</time>
      </trkpt>
      <trkpt lat="41.564397000" lon="1.831685000">
        <ele>332.20</ele>
        <time>2014-12-07T06:53:48Z</time>
      </trkpt>
      <trkpt lat="41.564357000" lon="1.831572000">
        <ele>332.90</ele>
        <time>2014-12-07T06:54:05Z</time>
      </trkpt>
      <trkpt lat="41.564208000" lon="1.831729000">
        <ele>331.80</ele>
        <time>2014-12-07T06:54:20Z</time>
      </trkpt>
      <trkpt lat="41.564204000" lon="1.831738000">
        <ele>331.70</ele>
        <time>2014-12-07T06:54:21Z</time>
      </trkpt>
      <trkpt lat="41.564215000" lon="1.831768000">
        <ele>331.40</ele>
        <time>2014-12-07T06:54:24Z</time>
      </trkpt>
      <trkpt lat="41.564271000" lon="1.831814000">
        <ele>329.90</ele>
        <time>2014-12-07T06:54:27Z</time>
      </trkpt>
      <trkpt lat="41.564402000" lon="1.831696000">
        <ele>331.90</ele>
        <time>2014-12-07T06:54:39Z</time>
      </trkpt>
      <trkpt lat="41.564422000" lon="1.831607000">
        <ele>332.90</ele>
        <time>2014-12-07T06:54:45Z</time>
      </trkpt>
      <trkpt lat="41.564394000" lon="1.831548000">
        <ele>333.20</ele>
        <time>2014-12-07T06:54:50Z</time>
      </trkpt>
      <trkpt lat="41.564262000" lon="1.831667000">
        <ele>332.30</ele>
        <time>2014-12-07T06:55:06Z</time>
      </trkpt>
      <trkpt lat="41.564265000" lon="1.831685000">
        <ele>332.30</ele>
        <time>2014-12-07T06:55:27Z</time>
      </trkpt>
      <trkpt lat="41.564264000" lon="1.831684000">
        <ele>332.50</ele>
        <time>2014-12-07T06:56:21Z</time>
      </trkpt>
      <trkpt lat="41.564261000" lon="1.831685000">
        <ele>332.30</ele>
        <time>2014-12-07T06:56:40Z</time>
      </trkpt>
      <trkpt lat="41.564230000" lon="1.831701000">
        <ele>332.30</ele>
        <time>2014-12-07T06:56:48Z</time>
      </trkpt>
      <trkpt lat="41.564245000" lon="1.831686000">
        <ele>332.70</ele>
        <time>2014-12-07T06:56:50Z</time>
      </trkpt>
      <trkpt lat="41.564282000" lon="1.831651000">
        <ele>332.60</ele>
        <time>2014-12-07T06:57:11Z</time>
      </trkpt>
      <trkpt lat="41.564290000" lon="1.831627000">
        <ele>332.70</ele>
        <time>2014-12-07T06:57:33Z</time>
      </trkpt>
      <trkpt lat="41.564297000" lon="1.831549000">
        <ele>332.20</ele>
        <time>2014-12-07T06:57:37Z</time>
      </trkpt>
      <trkpt lat="41.564520000" lon="1.831483000">
        <ele>334.20</ele>
        <time>2014-12-07T06:57:51Z</time>
      </trkpt>
      <trkpt lat="41.564595000" lon="1.831451000">
        <ele>334.80</ele>
        <time>2014-12-07T06:57:56Z</time>
      </trkpt>
      <trkpt lat="41.564625000" lon="1.831444000">
        <ele>335.10</ele>
        <time>2014-12-07T06:57:58Z</time>
      </trkpt>
      <trkpt lat="41.564974000" lon="1.831344000">
        <ele>338.00</ele>
        <time>2014-12-07T06:58:18Z</time>
      </trkpt>
      <trkpt lat="41.565280000" lon="1.831150000">
        <ele>340.50</ele>
        <time>2014-12-07T06:58:36Z</time>
      </trkpt>
      <trkpt lat="41.565631000" lon="1.830842000">
        <ele>343.20</ele>
        <time>2014-12-07T06:58:57Z</time>
      </trkpt>
      <trkpt lat="41.566006000" lon="1.830456000">
        <ele>346.30</ele>
        <time>2014-12-07T06:59:18Z</time>
      </trkpt>
      <trkpt lat="41.566349000" lon="1.830224000">
        <ele>349.50</ele>
        <time>2014-12-07T06:59:37Z</time>
      </trkpt>
      <trkpt lat="41.566794000" lon="1.830056000">
        <ele>352.60</ele>
        <time>2014-12-07T06:59:58Z</time>
      </trkpt>
      <trkpt lat="41.567151000" lon="1.830187000">
        <ele>355.30</ele>
        <time>2014-12-07T07:00:16Z</time>
      </trkpt>
      <trkpt lat="41.567366000" lon="1.830523000">
        <ele>357.90</ele>
        <time>2014-12-07T07:00:31Z</time>
      </trkpt>
      <trkpt lat="41.567736000" lon="1.830572000">
        <ele>360.70</ele>
        <time>2014-12-07T07:00:48Z</time>
      </trkpt>
      <trkpt lat="41.567800000" lon="1.830563000">
        <ele>361.10</ele>
        <time>2014-12-07T07:00:51Z</time>
      </trkpt>
      <trkpt lat="41.567734000" lon="1.830491000">
        <ele>360.90</ele>
        <time>2014-12-07T07:00:56Z</time>
      </trkpt>
      <trkpt lat="41.567389000" lon="1.830423000">
        <ele>362.50</ele>
        <time>2014-12-07T07:01:10Z</time>
      </trkpt>
      <trkpt lat="41.567371000" lon="1.830305000">
        <ele>362.90</ele>
        <time>2014-12-07T07:01:14Z</time>
      </trkpt>
      <trkpt lat="41.567465000" lon="1.829776000">
        <ele>363.90</ele>
        <time>2014-12-07T07:01:32Z</time>
      </trkpt>
      <trkpt lat="41.567462000" lon="1.829693000">
        <ele>363.70</ele>
        <time>2014-12-07T07:01:35Z</time>
      </trkpt>
      <trkpt lat="41.567691000" lon="1.829626000">
        <ele>365.70</ele>
        <time>2014-12-07T07:01:46Z</time>
      </trkpt>
      <trkpt lat="41.567954000" lon="1.829457000">
        <ele>369.10</ele>
        <time>2014-12-07T07:01:59Z</time>
      </trkpt>
      <trkpt lat="41.568165000" lon="1.829525000">
        <ele>372.20</ele>
        <time>2014-12-07T07:02:12Z</time>
      </trkpt>
      <trkpt lat="41.568306000" lon="1.829704000">
        <ele>375.30</ele>
        <time>2014-12-07T07:02:22Z</time>
      </trkpt>
      <trkpt lat="41.568317000" lon="1.829724000">
        <ele>376.10</ele>
        <time>2014-12-07T07:02:23Z</time>
      </trkpt>
      <trkpt lat="41.568390000" lon="1.829741000">
        <ele>376.90</ele>
        <time>2014-12-07T07:02:27Z</time>
      </trkpt>
      <trkpt lat="41.568453000" lon="1.829736000">
        <ele>378.20</ele>
        <time>2014-12-07T07:02:31Z</time>
      </trkpt>
      <trkpt lat="41.568481000" lon="1.829707000">
        <ele>378.60</ele>
        <time>2014-12-07T07:02:34Z</time>
      </trkpt>
      <trkpt lat="41.568653000" lon="1.829659000">
        <ele>381.00</ele>
        <time>2014-12-07T07:02:42Z</time>
      </trkpt>
      <trkpt lat="41.568863000" lon="1.829556000">
        <ele>384.50</ele>
        <time>2014-12-07T07:02:53Z</time>
      </trkpt>
      <trkpt lat="41.569231000" lon="1.829452000">
        <ele>387.40</ele>
        <time>2014-12-07T07:03:11Z</time>
      </trkpt>
      <trkpt lat="41.569475000" lon="1.829341000">
        <ele>387.10</ele>
        <time>2014-12-07T07:03:22Z</time>
      </trkpt>
      <trkpt lat="41.569712000" lon="1.829107000">
        <ele>384.40</ele>
        <time>2014-12-07T07:03:32Z</time>
      </trkpt>
      <trkpt lat="41.569906000" lon="1.828767000">
        <ele>380.90</ele>
        <time>2014-12-07T07:03:37Z</time>
      </trkpt>
      <trkpt lat="41.570062000" lon="1.828509000">
        <ele>381.10</ele>
        <time>2014-12-07T07:03:41Z</time>
      </trkpt>
      <trkpt lat="41.570244000" lon="1.828176000">
        <ele>383.40</ele>
        <time>2014-12-07T07:03:50Z</time>
      </trkpt>
      <trkpt lat="41.570353000" lon="1.827918000">
        <ele>385.60</ele>
        <time>2014-12-07T07:04:01Z</time>
      </trkpt>
      <trkpt lat="41.570505000" lon="1.827572000">
        <ele>386.30</ele>
        <time>2014-12-07T07:04:15Z</time>
      </trkpt>
      <trkpt lat="41.570519000" lon="1.826971000">
        <ele>387.00</ele>
        <time>2014-12-07T07:04:34Z</time>
      </trkpt>
      <trkpt lat="41.570539000" lon="1.826406000">
        <ele>388.70</ele>
        <time>2014-12-07T07:04:51Z</time>
      </trkpt>
      <trkpt lat="41.570630000" lon="1.825898000">
        <ele>391.00</ele>
        <time>2014-12-07T07:05:09Z</time>
      </trkpt>
      <trkpt lat="41.570718000" lon="1.825275000">
        <ele>394.00</ele>
        <time>2014-12-07T07:05:29Z</time>
      </trkpt>
      <trkpt lat="41.570863000" lon="1.824932000">
        <ele>397.20</ele>
        <time>2014-12-07T07:05:42Z</time>
      </trkpt>
      <trkpt lat="41.571102000" lon="1.824615000">
        <ele>400.40</ele>
        <time>2014-12-07T07:05:58Z</time>
      </trkpt>
      <trkpt lat="41.571362000" lon="1.824164000">
        <ele>402.90</ele>
        <time>2014-12-07T07:06:17Z</time>
      </trkpt>
      <trkpt lat="41.571561000" lon="1.823688000">
        <ele>404.10</ele>
        <time>2014-12-07T07:06:36Z</time>
      </trkpt>
      <trkpt lat="41.571824000" lon="1.823253000">
        <ele>404.00</ele>
        <time>2014-12-07T07:06:56Z</time>
      </trkpt>
      <trkpt lat="41.572076000" lon="1.822941000">
        <ele>403.70</ele>
        <time>2014-12-07T07:07:12Z</time>
      </trkpt>
      <trkpt lat="41.572331000" lon="1.822481000">
        <ele>404.20</ele>
        <time>2014-12-07T07:07:33Z</time>
      </trkpt>
      <trkpt lat="41.572520000" lon="1.822044000">
        <ele>403.90</ele>
        <time>2014-12-07T07:07:47Z</time>
      </trkpt>
      <trkpt lat="41.572896000" lon="1.821697000">
        <ele>403.40</ele>
        <time>2014-12-07T07:08:00Z</time>
      </trkpt>
      <trkpt lat="41.573311000" lon="1.821273000">
        <ele>406.60</ele>
        <time>2014-12-07T07:08:15Z</time>
      </trkpt>
      <trkpt lat="41.573537000" lon="1.820881000">
        <ele>409.80</ele>
        <time>2014-12-07T07:08:29Z</time>
      </trkpt>
      <trkpt lat="41.573744000" lon="1.820287000">
        <ele>412.80</ele>
        <time>2014-12-07T07:08:48Z</time>
      </trkpt>
      <trkpt lat="41.573802000" lon="1.819921000">
        <ele>414.20</ele>
        <time>2014-12-07T07:09:02Z</time>
      </trkpt>
      <trkpt lat="41.573902000" lon="1.819669000">
        <ele>413.70</ele>
        <time>2014-12-07T07:09:16Z</time>
      </trkpt>
      <trkpt lat="41.574108000" lon="1.819214000">
        <ele>413.90</ele>
        <time>2014-12-07T07:09:32Z</time>
      </trkpt>
      <trkpt lat="41.574270000" lon="1.818829000">
        <ele>417.00</ele>
        <time>2014-12-07T07:09:46Z</time>
      </trkpt>
      <trkpt lat="41.574603000" lon="1.818309000">
        <ele>419.90</ele>
        <time>2014-12-07T07:10:09Z</time>
      </trkpt>
      <trkpt lat="41.574752000" lon="1.817732000">
        <ele>421.10</ele>
        <time>2014-12-07T07:10:27Z</time>
      </trkpt>
      <trkpt lat="41.574941000" lon="1.817225000">
        <ele>422.90</ele>
        <time>2014-12-07T07:10:46Z</time>
      </trkpt>
      <trkpt lat="41.575203000" lon="1.816758000">
        <ele>423.30</ele>
        <time>2014-12-07T07:11:03Z</time>
      </trkpt>
      <trkpt lat="41.575449000" lon="1.816501000">
        <ele>422.00</ele>
        <time>2014-12-07T07:11:14Z</time>
      </trkpt>
      <trkpt lat="41.575527000" lon="1.816301000">
        <ele>420.80</ele>
        <time>2014-12-07T07:11:18Z</time>
      </trkpt>
      <trkpt lat="41.575543000" lon="1.815753000">
        <ele>421.70</ele>
        <time>2014-12-07T07:11:31Z</time>
      </trkpt>
      <trkpt lat="41.575473000" lon="1.815350000">
        <ele>423.70</ele>
        <time>2014-12-07T07:11:47Z</time>
      </trkpt>
      <trkpt lat="41.575551000" lon="1.814941000">
        <ele>425.50</ele>
        <time>2014-12-07T07:12:06Z</time>
      </trkpt>
      <trkpt lat="41.575632000" lon="1.814807000">
        <ele>425.20</ele>
        <time>2014-12-07T07:12:14Z</time>
      </trkpt>
      <trkpt lat="41.575681000" lon="1.814758000">
        <ele>425.20</ele>
        <time>2014-12-07T07:12:19Z</time>
      </trkpt>
      <trkpt lat="41.575886000" lon="1.814715000">
        <ele>426.20</ele>
        <time>2014-12-07T07:12:31Z</time>
      </trkpt>
      <trkpt lat="41.575979000" lon="1.814680000">
        <ele>427.20</ele>
        <time>2014-12-07T07:12:38Z</time>
      </trkpt>
      <trkpt lat="41.576289000" lon="1.814682000">
        <ele>429.70</ele>
        <time>2014-12-07T07:12:55Z</time>
      </trkpt>
      <trkpt lat="41.576584000" lon="1.814454000">
        <ele>432.00</ele>
        <time>2014-12-07T07:13:12Z</time>
      </trkpt>
      <trkpt lat="41.576826000" lon="1.814126000">
        <ele>434.60</ele>
        <time>2014-12-07T07:13:29Z</time>
      </trkpt>
      <trkpt lat="41.577096000" lon="1.813853000">
        <ele>437.10</ele>
        <time>2014-12-07T07:13:45Z</time>
      </trkpt>
      <trkpt lat="41.577407000" lon="1.813522000">
        <ele>439.30</ele>
        <time>2014-12-07T07:14:03Z</time>
      </trkpt>
      <trkpt lat="41.577882000" lon="1.813058000">
        <ele>440.30</ele>
        <time>2014-12-07T07:14:26Z</time>
      </trkpt>
      <trkpt lat="41.578401000" lon="1.812598000">
        <ele>440.60</ele>
        <time>2014-12-07T07:14:46Z</time>
      </trkpt>
      <trkpt lat="41.578802000" lon="1.812349000">
        <ele>439.50</ele>
        <time>2014-12-07T07:14:59Z</time>
      </trkpt>
      <trkpt lat="41.579200000" lon="1.811903000">
        <ele>439.60</ele>
        <time>2014-12-07T07:15:13Z</time>
      </trkpt>
      <trkpt lat="41.579427000" lon="1.811571000">
        <ele>440.60</ele>
        <time>2014-12-07T07:15:24Z</time>
      </trkpt>
      <trkpt lat="41.579612000" lon="1.811549000">
        <ele>437.10</ele>
        <time>2014-12-07T07:15:28Z</time>
      </trkpt>
      <trkpt lat="41.579917000" lon="1.811223000">
        <ele>434.20</ele>
        <time>2014-12-07T07:15:35Z</time>
      </trkpt>
      <trkpt lat="41.580041000" lon="1.810933000">
        <ele>435.10</ele>
        <time>2014-12-07T07:15:40Z</time>
      </trkpt>
      <trkpt lat="41.580248000" lon="1.810241000">
        <ele>438.40</ele>
        <time>2014-12-07T07:15:55Z</time>
      </trkpt>
      <trkpt lat="41.580396000" lon="1.809974000">
        <ele>441.80</ele>
        <time>2014-12-07T07:16:05Z</time>
      </trkpt>
      <trkpt lat="41.580422000" lon="1.809961000">
        <ele>442.00</ele>
        <time>2014-12-07T07:16:06Z</time>
      </trkpt>
      <trkpt lat="41.580561000" lon="1.809900000">
        <ele>444.40</ele>
        <time>2014-12-07T07:16:12Z</time>
      </trkpt>
      <trkpt lat="41.580579000" lon="1.809887000">
        <ele>444.70</ele>
        <time>2014-12-07T07:16:13Z</time>
      </trkpt>
      <trkpt lat="41.580668000" lon="1.809802000">
        <ele>446.90</ele>
        <time>2014-12-07T07:16:18Z</time>
      </trkpt>
      <trkpt lat="41.580818000" lon="1.809633000">
        <ele>450.00</ele>
        <time>2014-12-07T07:16:27Z</time>
      </trkpt>
      <trkpt lat="41.581072000" lon="1.809569000">
        <ele>453.30</ele>
        <time>2014-12-07T07:16:38Z</time>
      </trkpt>
      <trkpt lat="41.581434000" lon="1.809503000">
        <ele>456.50</ele>
        <time>2014-12-07T07:16:55Z</time>
      </trkpt>
      <trkpt lat="41.581780000" lon="1.809442000">
        <ele>459.60</ele>
        <time>2014-12-07T07:17:11Z</time>
      </trkpt>
      <trkpt lat="41.582062000" lon="1.809196000">
        <ele>461.80</ele>
        <time>2014-12-07T07:17:26Z</time>
      </trkpt>
      <trkpt lat="41.582431000" lon="1.809106000">
        <ele>464.80</ele>
        <time>2014-12-07T07:17:42Z</time>
      </trkpt>
      <trkpt lat="41.582587000" lon="1.809106000">
        <ele>467.10</ele>
        <time>2014-12-07T07:17:49Z</time>
      </trkpt>
      <trkpt lat="41.582762000" lon="1.808794000">
        <ele>468.50</ele>
        <time>2014-12-07T07:18:03Z</time>
      </trkpt>
      <trkpt lat="41.582908000" lon="1.808507000">
        <ele>469.40</ele>
        <time>2014-12-07T07:18:19Z</time>
      </trkpt>
      <trkpt lat="41.583023000" lon="1.808429000">
        <ele>470.10</ele>
        <time>2014-12-07T07:18:32Z</time>
      </trkpt>
      <trkpt lat="41.583244000" lon="1.807956000">
        <ele>470.90</ele>
        <time>2014-12-07T07:18:51Z</time>
      </trkpt>
      <trkpt lat="41.583372000" lon="1.807461000">
        <ele>470.90</ele>
        <time>2014-12-07T07:19:10Z</time>
      </trkpt>
      <trkpt lat="41.583505000" lon="1.807029000">
        <ele>471.70</ele>
        <time>2014-12-07T07:19:26Z</time>
      </trkpt>
      <trkpt lat="41.583629000" lon="1.806537000">
        <ele>474.70</ele>
        <time>2014-12-07T07:19:44Z</time>
      </trkpt>
      <trkpt lat="41.583677000" lon="1.806260000">
        <ele>477.90</ele>
        <time>2014-12-07T07:19:55Z</time>
      </trkpt>
      <trkpt lat="41.583677000" lon="1.806238000">
        <ele>478.20</ele>
        <time>2014-12-07T07:19:56Z</time>
      </trkpt>
      <trkpt lat="41.583649000" lon="1.806091000">
        <ele>478.20</ele>
        <time>2014-12-07T07:20:09Z</time>
      </trkpt>
      <trkpt lat="41.583638000" lon="1.806050000">
        <ele>478.30</ele>
        <time>2014-12-07T07:20:52Z</time>
      </trkpt>
      <trkpt lat="41.583623000" lon="1.806028000">
        <ele>478.30</ele>
        <time>2014-12-07T07:20:55Z</time>
      </trkpt>
      <trkpt lat="41.583616000" lon="1.806092000">
        <ele>478.20</ele>
        <time>2014-12-07T07:21:05Z</time>
      </trkpt>
      <trkpt lat="41.583657000" lon="1.806094000">
        <ele>478.20</ele>
        <time>2014-12-07T07:21:09Z</time>
      </trkpt>
      <trkpt lat="41.583697000" lon="1.806058000">
        <ele>478.40</ele>
        <time>2014-12-07T07:21:13Z</time>
      </trkpt>
      <trkpt lat="41.583750000" lon="1.806025000">
        <ele>479.80</ele>
        <time>2014-12-07T07:21:20Z</time>
      </trkpt>
      <trkpt lat="41.583783000" lon="1.805944000">
        <ele>481.00</ele>
        <time>2014-12-07T07:21:35Z</time>
      </trkpt>
      <trkpt lat="41.583843000" lon="1.805869000">
        <ele>481.30</ele>
        <time>2014-12-07T07:21:46Z</time>
      </trkpt>
      <trkpt lat="41.583822000" lon="1.805909000">
        <ele>481.20</ele>
        <time>2014-12-07T07:21:50Z</time>
      </trkpt>
      <trkpt lat="41.583871000" lon="1.805926000">
        <ele>481.50</ele>
        <time>2014-12-07T07:21:54Z</time>
      </trkpt>
      <trkpt lat="41.583932000" lon="1.805915000">
        <ele>482.30</ele>
        <time>2014-12-07T07:21:58Z</time>
      </trkpt>
      <trkpt lat="41.584053000" lon="1.805904000">
        <ele>483.90</ele>
        <time>2014-12-07T07:22:07Z</time>
      </trkpt>
      <trkpt lat="41.584142000" lon="1.805781000">
        <ele>485.60</ele>
        <time>2014-12-07T07:22:19Z</time>
      </trkpt>
      <trkpt lat="41.584246000" lon="1.805753000">
        <ele>486.80</ele>
        <time>2014-12-07T07:22:27Z</time>
      </trkpt>
      <trkpt lat="41.584457000" lon="1.805628000">
        <ele>488.10</ele>
        <time>2014-12-07T07:22:45Z</time>
      </trkpt>
      <trkpt lat="41.584646000" lon="1.805607000">
        <ele>490.20</ele>
        <time>2014-12-07T07:22:58Z</time>
      </trkpt>
      <trkpt lat="41.584713000" lon="1.805578000">
        <ele>490.20</ele>
        <time>2014-12-07T07:23:03Z</time>
      </trkpt>
      <trkpt lat="41.584792000" lon="1.805545000">
        <ele>490.50</ele>
        <time>2014-12-07T07:23:08Z</time>
      </trkpt>
      <trkpt lat="41.584828000" lon="1.805553000">
        <ele>491.00</ele>
        <time>2014-12-07T07:23:10Z</time>
      </trkpt>
      <trkpt lat="41.584869000" lon="1.805530000">
        <ele>492.10</ele>
        <time>2014-12-07T07:23:13Z</time>
      </trkpt>
      <trkpt lat="41.584978000" lon="1.805492000">
        <ele>491.80</ele>
        <time>2014-12-07T07:23:20Z</time>
      </trkpt>
      <trkpt lat="41.585010000" lon="1.805451000">
        <ele>491.60</ele>
        <time>2014-12-07T07:23:23Z</time>
      </trkpt>
      <trkpt lat="41.585019000" lon="1.805402000">
        <ele>491.70</ele>
        <time>2014-12-07T07:23:25Z</time>
      </trkpt>
      <trkpt lat="41.585027000" lon="1.805297000">
        <ele>492.40</ele>
        <time>2014-12-07T07:23:30Z</time>
      </trkpt>
      <trkpt lat="41.584893000" lon="1.805028000">
        <ele>493.20</ele>
        <time>2014-12-07T07:23:42Z</time>
      </trkpt>
      <trkpt lat="41.584863000" lon="1.804845000">
        <ele>493.90</ele>
        <time>2014-12-07T07:23:51Z</time>
      </trkpt>
      <trkpt lat="41.584930000" lon="1.804507000">
        <ele>493.20</ele>
        <time>2014-12-07T07:24:04Z</time>
      </trkpt>
      <trkpt lat="41.585056000" lon="1.804207000">
        <ele>493.20</ele>
        <time>2014-12-07T07:24:17Z</time>
      </trkpt>
      <trkpt lat="41.585183000" lon="1.803942000">
        <ele>493.70</ele>
        <time>2014-12-07T07:24:31Z</time>
      </trkpt>
      <trkpt lat="41.585255000" lon="1.803797000">
        <ele>493.50</ele>
        <time>2014-12-07T07:24:37Z</time>
      </trkpt>
      <trkpt lat="41.585308000" lon="1.803618000">
        <ele>492.70</ele>
        <time>2014-12-07T07:24:41Z</time>
      </trkpt>
      <trkpt lat="41.585462000" lon="1.803079000">
        <ele>492.00</ele>
        <time>2014-12-07T07:24:54Z</time>
      </trkpt>
      <trkpt lat="41.585499000" lon="1.802584000">
        <ele>494.20</ele>
        <time>2014-12-07T07:25:07Z</time>
      </trkpt>
      <trkpt lat="41.585581000" lon="1.802230000">
        <ele>493.30</ele>
        <time>2014-12-07T07:25:16Z</time>
      </trkpt>
      <trkpt lat="41.585672000" lon="1.802128000">
        <ele>493.30</ele>
        <time>2014-12-07T07:25:20Z</time>
      </trkpt>
      <trkpt lat="41.585959000" lon="1.801770000">
        <ele>492.80</ele>
        <time>2014-12-07T07:25:34Z</time>
      </trkpt>
      <trkpt lat="41.585971000" lon="1.801698000">
        <ele>492.60</ele>
        <time>2014-12-07T07:25:36Z</time>
      </trkpt>
      <trkpt lat="41.585813000" lon="1.801138000">
        <ele>494.50</ele>
        <time>2014-12-07T07:25:52Z</time>
      </trkpt>
      <trkpt lat="41.585622000" lon="1.800795000">
        <ele>495.30</ele>
        <time>2014-12-07T07:26:05Z</time>
      </trkpt>
      <trkpt lat="41.585626000" lon="1.800745000">
        <ele>494.50</ele>
        <time>2014-12-07T07:26:06Z</time>
      </trkpt>
      <trkpt lat="41.585652000" lon="1.800639000">
        <ele>493.70</ele>
        <time>2014-12-07T07:26:08Z</time>
      </trkpt>
      <trkpt lat="41.585869000" lon="1.800415000">
        <ele>490.30</ele>
        <time>2014-12-07T07:26:14Z</time>
      </trkpt>
      <trkpt lat="41.585978000" lon="1.800371000">
        <ele>490.10</ele>
        <time>2014-12-07T07:26:16Z</time>
      </trkpt>
      <trkpt lat="41.586214000" lon="1.800182000">
        <ele>490.00</ele>
        <time>2014-12-07T07:26:21Z</time>
      </trkpt>
      <trkpt lat="41.586425000" lon="1.799840000">
        <ele>486.10</ele>
        <time>2014-12-07T07:26:27Z</time>
      </trkpt>
      <trkpt lat="41.586569000" lon="1.799569000">
        <ele>487.10</ele>
        <time>2014-12-07T07:26:31Z</time>
      </trkpt>
      <trkpt lat="41.586680000" lon="1.799477000">
        <ele>488.50</ele>
        <time>2014-12-07T07:26:34Z</time>
      </trkpt>
      <trkpt lat="41.587189000" lon="1.799409000">
        <ele>489.00</ele>
        <time>2014-12-07T07:26:47Z</time>
      </trkpt>
      <trkpt lat="41.587563000" lon="1.799194000">
        <ele>489.80</ele>
        <time>2014-12-07T07:26:58Z</time>
      </trkpt>
      <trkpt lat="41.587741000" lon="1.798755000">
        <ele>491.00</ele>
        <time>2014-12-07T07:27:12Z</time>
      </trkpt>
      <trkpt lat="41.587825000" lon="1.798485000">
        <ele>494.50</ele>
        <time>2014-12-07T07:27:19Z</time>
      </trkpt>
      <trkpt lat="41.587873000" lon="1.798296000">
        <ele>497.80</ele>
        <time>2014-12-07T07:27:24Z</time>
      </trkpt>
      <trkpt lat="41.587902000" lon="1.798123000">
        <ele>501.10</ele>
        <time>2014-12-07T07:27:29Z</time>
      </trkpt>
      <trkpt lat="41.587894000" lon="1.798089000">
        <ele>501.40</ele>
        <time>2014-12-07T07:27:30Z</time>
      </trkpt>
      <trkpt lat="41.587841000" lon="1.797910000">
        <ele>502.90</ele>
        <time>2014-12-07T07:27:35Z</time>
      </trkpt>
      <trkpt lat="41.587885000" lon="1.797603000">
        <ele>506.20</ele>
        <time>2014-12-07T07:27:43Z</time>
      </trkpt>
      <trkpt lat="41.587875000" lon="1.797152000">
        <ele>509.40</ele>
        <time>2014-12-07T07:27:56Z</time>
      </trkpt>
      <trkpt lat="41.587911000" lon="1.796766000">
        <ele>509.20</ele>
        <time>2014-12-07T07:28:13Z</time>
      </trkpt>
      <trkpt lat="41.587939000" lon="1.796493000">
        <ele>509.90</ele>
        <time>2014-12-07T07:28:22Z</time>
      </trkpt>
      <trkpt lat="41.588095000" lon="1.796370000">
        <ele>513.40</ele>
        <time>2014-12-07T07:28:31Z</time>
      </trkpt>
      <trkpt lat="41.588204000" lon="1.796271000">
        <ele>516.30</ele>
        <time>2014-12-07T07:28:37Z</time>
      </trkpt>
      <trkpt lat="41.588280000" lon="1.796054000">
        <ele>518.00</ele>
        <time>2014-12-07T07:28:45Z</time>
      </trkpt>
      <trkpt lat="41.588304000" lon="1.795869000">
        <ele>521.40</ele>
        <time>2014-12-07T07:28:51Z</time>
      </trkpt>
      <trkpt lat="41.588314000" lon="1.795835000">
        <ele>521.60</ele>
        <time>2014-12-07T07:28:52Z</time>
      </trkpt>
      <trkpt lat="41.588481000" lon="1.795422000">
        <ele>521.50</ele>
        <time>2014-12-07T07:29:07Z</time>
      </trkpt>
      <trkpt lat="41.588693000" lon="1.794943000">
        <ele>521.10</ele>
        <time>2014-12-07T07:29:27Z</time>
      </trkpt>
      <trkpt lat="41.588855000" lon="1.794586000">
        <ele>520.30</ele>
        <time>2014-12-07T07:29:39Z</time>
      </trkpt>
      <trkpt lat="41.588997000" lon="1.794253000">
        <ele>518.90</ele>
        <time>2014-12-07T07:29:55Z</time>
      </trkpt>
      <trkpt lat="41.589038000" lon="1.794200000">
        <ele>517.70</ele>
        <time>2014-12-07T07:30:04Z</time>
      </trkpt>
      <trkpt lat="41.589066000" lon="1.794173000">
        <ele>517.10</ele>
        <time>2014-12-07T07:30:08Z</time>
      </trkpt>
      <trkpt lat="41.589025000" lon="1.793922000">
        <ele>513.80</ele>
        <time>2014-12-07T07:30:23Z</time>
      </trkpt>
      <trkpt lat="41.588940000" lon="1.793530000">
        <ele>512.50</ele>
        <time>2014-12-07T07:30:39Z</time>
      </trkpt>
      <trkpt lat="41.588644000" lon="1.793468000">
        <ele>512.40</ele>
        <time>2014-12-07T07:30:56Z</time>
      </trkpt>
      <trkpt lat="41.588259000" lon="1.793449000">
        <ele>510.90</ele>
        <time>2014-12-07T07:31:11Z</time>
      </trkpt>
      <trkpt lat="41.588118000" lon="1.793442000">
        <ele>508.70</ele>
        <time>2014-12-07T07:31:15Z</time>
      </trkpt>
      <trkpt lat="41.587916000" lon="1.793423000">
        <ele>506.60</ele>
        <time>2014-12-07T07:31:20Z</time>
      </trkpt>
      <trkpt lat="41.587791000" lon="1.793410000">
        <ele>505.20</ele>
        <time>2014-12-07T07:31:23Z</time>
      </trkpt>
      <trkpt lat="41.587752000" lon="1.793406000">
        <ele>505.10</ele>
        <time>2014-12-07T07:31:24Z</time>
      </trkpt>
      <trkpt lat="41.587417000" lon="1.793383000">
        <ele>502.70</ele>
        <time>2014-12-07T07:31:32Z</time>
      </trkpt>
      <trkpt lat="41.587359000" lon="1.793336000">
        <ele>502.70</ele>
        <time>2014-12-07T07:31:34Z</time>
      </trkpt>
      <trkpt lat="41.587390000" lon="1.792977000">
        <ele>500.90</ele>
        <time>2014-12-07T07:31:44Z</time>
      </trkpt>
      <trkpt lat="41.587492000" lon="1.792224000">
        <ele>501.40</ele>
        <time>2014-12-07T07:32:04Z</time>
      </trkpt>
      <trkpt lat="41.587575000" lon="1.791472000">
        <ele>500.20</ele>
        <time>2014-12-07T07:32:23Z</time>
      </trkpt>
      <trkpt lat="41.587650000" lon="1.790976000">
        <ele>496.90</ele>
        <time>2014-12-07T07:32:36Z</time>
      </trkpt>
      <trkpt lat="41.587654000" lon="1.790933000">
        <ele>496.90</ele>
        <time>2014-12-07T07:32:37Z</time>
      </trkpt>
      <trkpt lat="41.587849000" lon="1.790553000">
        <ele>494.40</ele>
        <time>2014-12-07T07:32:48Z</time>
      </trkpt>
      <trkpt lat="41.588078000" lon="1.790521000">
        <ele>492.70</ele>
        <time>2014-12-07T07:32:54Z</time>
      </trkpt>
      <trkpt lat="41.588175000" lon="1.790492000">
        <ele>491.80</ele>
        <time>2014-12-07T07:32:56Z</time>
      </trkpt>
      <trkpt lat="41.588318000" lon="1.790365000">
        <ele>489.80</ele>
        <time>2014-12-07T07:33:00Z</time>
      </trkpt>
      <trkpt lat="41.588463000" lon="1.790055000">
        <ele>484.60</ele>
        <time>2014-12-07T07:33:05Z</time>
      </trkpt>
      <trkpt lat="41.588485000" lon="1.789889000">
        <ele>484.00</ele>
        <time>2014-12-07T07:33:07Z</time>
      </trkpt>
      <trkpt lat="41.588494000" lon="1.789515000">
        <ele>484.40</ele>
        <time>2014-12-07T07:33:12Z</time>
      </trkpt>
      <trkpt lat="41.588572000" lon="1.789330000">
        <ele>485.20</ele>
        <time>2014-12-07T07:33:16Z</time>
      </trkpt>
      <trkpt lat="41.589035000" lon="1.788989000">
        <ele>487.40</ele>
        <time>2014-12-07T07:33:33Z</time>
      </trkpt>
      <trkpt lat="41.589102000" lon="1.788912000">
        <ele>488.90</ele>
        <time>2014-12-07T07:33:36Z</time>
      </trkpt>
      <trkpt lat="41.589314000" lon="1.788495000">
        <ele>490.80</ele>
        <time>2014-12-07T07:33:49Z</time>
      </trkpt>
      <trkpt lat="41.589597000" lon="1.787935000">
        <ele>492.70</ele>
        <time>2014-12-07T07:34:09Z</time>
      </trkpt>
      <trkpt lat="41.589631000" lon="1.787749000">
        <ele>493.30</ele>
        <time>2014-12-07T07:34:15Z</time>
      </trkpt>
      <trkpt lat="41.589605000" lon="1.787706000">
        <ele>494.60</ele>
        <time>2014-12-07T07:34:17Z</time>
      </trkpt>
      <trkpt lat="41.589428000" lon="1.787759000">
        <ele>495.00</ele>
        <time>2014-12-07T07:34:26Z</time>
      </trkpt>
      <trkpt lat="41.589100000" lon="1.788186000">
        <ele>498.10</ele>
        <time>2014-12-07T07:34:46Z</time>
      </trkpt>
      <trkpt lat="41.588708000" lon="1.788421000">
        <ele>500.50</ele>
        <time>2014-12-07T07:35:07Z</time>
      </trkpt>
      <trkpt lat="41.588514000" lon="1.788420000">
        <ele>502.50</ele>
        <time>2014-12-07T07:35:17Z</time>
      </trkpt>
      <trkpt lat="41.588572000" lon="1.788262000">
        <ele>504.50</ele>
        <time>2014-12-07T07:35:27Z</time>
      </trkpt>
      <trkpt lat="41.588657000" lon="1.788213000">
        <ele>505.60</ele>
        <time>2014-12-07T07:35:31Z</time>
      </trkpt>
      <trkpt lat="41.588921000" lon="1.787974000">
        <ele>508.90</ele>
        <time>2014-12-07T07:35:47Z</time>
      </trkpt>
      <trkpt lat="41.588995000" lon="1.787832000">
        <ele>510.70</ele>
        <time>2014-12-07T07:35:54Z</time>
      </trkpt>
      <trkpt lat="41.589071000" lon="1.787505000">
        <ele>513.80</ele>
        <time>2014-12-07T07:36:08Z</time>
      </trkpt>
      <trkpt lat="41.589124000" lon="1.787268000">
        <ele>516.90</ele>
        <time>2014-12-07T07:36:18Z</time>
      </trkpt>
      <trkpt lat="41.589150000" lon="1.787146000">
        <ele>517.30</ele>
        <time>2014-12-07T07:36:23Z</time>
      </trkpt>
      <trkpt lat="41.589146000" lon="1.786804000">
        <ele>520.50</ele>
        <time>2014-12-07T07:36:37Z</time>
      </trkpt>
      <trkpt lat="41.589094000" lon="1.786500000">
        <ele>522.60</ele>
        <time>2014-12-07T07:36:49Z</time>
      </trkpt>
      <trkpt lat="41.589043000" lon="1.786077000">
        <ele>522.10</ele>
        <time>2014-12-07T07:37:06Z</time>
      </trkpt>
      <trkpt lat="41.589131000" lon="1.785608000">
        <ele>523.10</ele>
        <time>2014-12-07T07:37:22Z</time>
      </trkpt>
      <trkpt lat="41.589251000" lon="1.785090000">
        <ele>525.50</ele>
        <time>2014-12-07T07:37:40Z</time>
      </trkpt>
      <trkpt lat="41.589214000" lon="1.785063000">
        <ele>526.60</ele>
        <time>2014-12-07T07:37:42Z</time>
      </trkpt>
      <trkpt lat="41.589119000" lon="1.784984000">
        <ele>526.50</ele>
        <time>2014-12-07T07:37:48Z</time>
      </trkpt>
      <trkpt lat="41.588778000" lon="1.784542000">
        <ele>524.30</ele>
        <time>2014-12-07T07:38:05Z</time>
      </trkpt>
      <trkpt lat="41.588560000" lon="1.783943000">
        <ele>523.80</ele>
        <time>2014-12-07T07:38:21Z</time>
      </trkpt>
      <trkpt lat="41.588314000" lon="1.783541000">
        <ele>524.80</ele>
        <time>2014-12-07T07:38:37Z</time>
      </trkpt>
      <trkpt lat="41.588179000" lon="1.783067000">
        <ele>523.90</ele>
        <time>2014-12-07T07:38:52Z</time>
      </trkpt>
      <trkpt lat="41.588060000" lon="1.783019000">
        <ele>522.00</ele>
        <time>2014-12-07T07:38:56Z</time>
      </trkpt>
      <trkpt lat="41.587879000" lon="1.783101000">
        <ele>518.50</ele>
        <time>2014-12-07T07:39:00Z</time>
      </trkpt>
      <trkpt lat="41.587538000" lon="1.783162000">
        <ele>517.50</ele>
        <time>2014-12-07T07:39:06Z</time>
      </trkpt>
      <trkpt lat="41.587353000" lon="1.783121000">
        <ele>513.30</ele>
        <time>2014-12-07T07:39:09Z</time>
      </trkpt>
      <trkpt lat="41.587286000" lon="1.783088000">
        <ele>513.10</ele>
        <time>2014-12-07T07:39:10Z</time>
      </trkpt>
      <trkpt lat="41.587222000" lon="1.783043000">
        <ele>512.80</ele>
        <time>2014-12-07T07:39:11Z</time>
      </trkpt>
      <trkpt lat="41.587095000" lon="1.782961000">
        <ele>512.10</ele>
        <time>2014-12-07T07:39:13Z</time>
      </trkpt>
      <trkpt lat="41.586677000" lon="1.782853000">
        <ele>512.90</ele>
        <time>2014-12-07T07:39:20Z</time>
      </trkpt>
      <trkpt lat="41.586531000" lon="1.782745000">
        <ele>514.00</ele>
        <time>2014-12-07T07:39:24Z</time>
      </trkpt>
      <trkpt lat="41.586340000" lon="1.782256000">
        <ele>514.40</ele>
        <time>2014-12-07T07:39:39Z</time>
      </trkpt>
      <trkpt lat="41.586257000" lon="1.781666000">
        <ele>514.20</ele>
        <time>2014-12-07T07:39:59Z</time>
      </trkpt>
      <trkpt lat="41.586150000" lon="1.781264000">
        <ele>515.10</ele>
        <time>2014-12-07T07:40:16Z</time>
      </trkpt>
      <trkpt lat="41.586142000" lon="1.781221000">
        <ele>515.20</ele>
        <time>2014-12-07T07:40:18Z</time>
      </trkpt>
      <trkpt lat="41.586120000" lon="1.781159000">
        <ele>515.40</ele>
        <time>2014-12-07T07:40:41Z</time>
      </trkpt>
      <trkpt lat="41.586088000" lon="1.781029000">
        <ele>514.70</ele>
        <time>2014-12-07T07:41:00Z</time>
      </trkpt>
      <trkpt lat="41.586210000" lon="1.780930000">
        <ele>515.30</ele>
        <time>2014-12-07T07:41:07Z</time>
      </trkpt>
      <trkpt lat="41.586561000" lon="1.780968000">
        <ele>518.20</ele>
        <time>2014-12-07T07:41:23Z</time>
      </trkpt>
      <trkpt lat="41.586856000" lon="1.780962000">
        <ele>520.60</ele>
        <time>2014-12-07T07:41:37Z</time>
      </trkpt>
      <trkpt lat="41.587165000" lon="1.780903000">
        <ele>523.70</ele>
        <time>2014-12-07T07:41:52Z</time>
      </trkpt>
      <trkpt lat="41.587411000" lon="1.780863000">
        <ele>525.40</ele>
        <time>2014-12-07T07:42:05Z</time>
      </trkpt>
      <trkpt lat="41.587669000" lon="1.780799000">
        <ele>527.10</ele>
        <time>2014-12-07T07:42:18Z</time>
      </trkpt>
      <trkpt lat="41.587875000" lon="1.780782000">
        <ele>528.70</ele>
        <time>2014-12-07T07:42:30Z</time>
      </trkpt>
      <trkpt lat="41.588178000" lon="1.780646000">
        <ele>531.00</ele>
        <time>2014-12-07T07:42:45Z</time>
      </trkpt>
      <trkpt lat="41.588517000" lon="1.780574000">
        <ele>533.90</ele>
        <time>2014-12-07T07:43:02Z</time>
      </trkpt>
      <trkpt lat="41.588881000" lon="1.780509000">
        <ele>535.90</ele>
        <time>2014-12-07T07:43:21Z</time>
      </trkpt>
      <trkpt lat="41.589271000" lon="1.780446000">
        <ele>538.20</ele>
        <time>2014-12-07T07:43:40Z</time>
      </trkpt>
      <trkpt lat="41.589677000" lon="1.780342000">
        <ele>541.00</ele>
        <time>2014-12-07T07:44:00Z</time>
      </trkpt>
      <trkpt lat="41.589971000" lon="1.780512000">
        <ele>543.40</ele>
        <time>2014-12-07T07:44:17Z</time>
      </trkpt>
      <trkpt lat="41.590327000" lon="1.780591000">
        <ele>545.60</ele>
        <time>2014-12-07T07:44:34Z</time>
      </trkpt>
      <trkpt lat="41.590568000" lon="1.780572000">
        <ele>547.20</ele>
        <time>2014-12-07T07:44:45Z</time>
      </trkpt>
      <trkpt lat="41.590976000" lon="1.780410000">
        <ele>549.20</ele>
        <time>2014-12-07T07:45:03Z</time>
      </trkpt>
      <trkpt lat="41.591294000" lon="1.780422000">
        <ele>552.40</ele>
        <time>2014-12-07T07:45:17Z</time>
      </trkpt>
      <trkpt lat="41.591617000" lon="1.780442000">
        <ele>555.60</ele>
        <time>2014-12-07T07:45:34Z</time>
      </trkpt>
      <trkpt lat="41.591891000" lon="1.780414000">
        <ele>557.30</ele>
        <time>2014-12-07T07:45:48Z</time>
      </trkpt>
      <trkpt lat="41.592274000" lon="1.780331000">
        <ele>559.80</ele>
        <time>2014-12-07T07:46:07Z</time>
      </trkpt>
      <trkpt lat="41.592666000" lon="1.780191000">
        <ele>562.90</ele>
        <time>2014-12-07T07:46:27Z</time>
      </trkpt>
      <trkpt lat="41.592897000" lon="1.780108000">
        <ele>565.30</ele>
        <time>2014-12-07T07:46:39Z</time>
      </trkpt>
      <trkpt lat="41.593233000" lon="1.779943000">
        <ele>567.10</ele>
        <time>2014-12-07T07:46:55Z</time>
      </trkpt>
      <trkpt lat="41.593498000" lon="1.779559000">
        <ele>566.30</ele>
        <time>2014-12-07T07:47:11Z</time>
      </trkpt>
      <trkpt lat="41.593861000" lon="1.779028000">
        <ele>564.70</ele>
        <time>2014-12-07T07:47:30Z</time>
      </trkpt>
      <trkpt lat="41.593910000" lon="1.778972000">
        <ele>563.30</ele>
        <time>2014-12-07T07:47:32Z</time>
      </trkpt>
      <trkpt lat="41.593989000" lon="1.778927000">
        <ele>562.70</ele>
        <time>2014-12-07T07:47:34Z</time>
      </trkpt>
      <trkpt lat="41.594161000" lon="1.778856000">
        <ele>562.70</ele>
        <time>2014-12-07T07:47:38Z</time>
      </trkpt>
      <trkpt lat="41.594167000" lon="1.778633000">
        <ele>565.90</ele>
        <time>2014-12-07T07:47:46Z</time>
      </trkpt>
      <trkpt lat="41.593972000" lon="1.778380000">
        <ele>569.30</ele>
        <time>2014-12-07T07:47:59Z</time>
      </trkpt>
      <trkpt lat="41.593932000" lon="1.778312000">
        <ele>570.40</ele>
        <time>2014-12-07T07:48:02Z</time>
      </trkpt>
      <trkpt lat="41.593943000" lon="1.778151000">
        <ele>572.60</ele>
        <time>2014-12-07T07:48:08Z</time>
      </trkpt>
      <trkpt lat="41.594086000" lon="1.777970000">
        <ele>575.70</ele>
        <time>2014-12-07T07:48:19Z</time>
      </trkpt>
      <trkpt lat="41.594382000" lon="1.777848000">
        <ele>577.90</ele>
        <time>2014-12-07T07:48:35Z</time>
      </trkpt>
      <trkpt lat="41.594570000" lon="1.777618000">
        <ele>580.90</ele>
        <time>2014-12-07T07:48:49Z</time>
      </trkpt>
      <trkpt lat="41.594881000" lon="1.777386000">
        <ele>583.90</ele>
        <time>2014-12-07T07:49:07Z</time>
      </trkpt>
      <trkpt lat="41.595143000" lon="1.777202000">
        <ele>585.80</ele>
        <time>2014-12-07T07:49:22Z</time>
      </trkpt>
      <trkpt lat="41.595213000" lon="1.777079000">
        <ele>587.30</ele>
        <time>2014-12-07T07:49:28Z</time>
      </trkpt>
      <trkpt lat="41.595450000" lon="1.776799000">
        <ele>589.70</ele>
        <time>2014-12-07T07:49:44Z</time>
      </trkpt>
      <trkpt lat="41.595613000" lon="1.776605000">
        <ele>592.70</ele>
        <time>2014-12-07T07:49:55Z</time>
      </trkpt>
      <trkpt lat="41.595813000" lon="1.776419000">
        <ele>595.20</ele>
        <time>2014-12-07T07:50:07Z</time>
      </trkpt>
      <trkpt lat="41.596078000" lon="1.776047000">
        <ele>598.40</ele>
        <time>2014-12-07T07:50:26Z</time>
      </trkpt>
      <trkpt lat="41.596422000" lon="1.775862000">
        <ele>601.50</ele>
        <time>2014-12-07T07:50:45Z</time>
      </trkpt>
      <trkpt lat="41.596654000" lon="1.775694000">
        <ele>604.90</ele>
        <time>2014-12-07T07:50:59Z</time>
      </trkpt>
      <trkpt lat="41.596933000" lon="1.775448000">
        <ele>608.00</ele>
        <time>2014-12-07T07:51:16Z</time>
      </trkpt>
      <trkpt lat="41.596949000" lon="1.775433000">
        <ele>608.30</ele>
        <time>2014-12-07T07:51:17Z</time>
      </trkpt>
      <trkpt lat="41.597218000" lon="1.775176000">
        <ele>611.50</ele>
        <time>2014-12-07T07:51:33Z</time>
      </trkpt>
      <trkpt lat="41.597366000" lon="1.774847000">
        <ele>614.50</ele>
        <time>2014-12-07T07:51:47Z</time>
      </trkpt>
      <trkpt lat="41.597601000" lon="1.774311000">
        <ele>616.50</ele>
        <time>2014-12-07T07:52:08Z</time>
      </trkpt>
      <trkpt lat="41.597908000" lon="1.773972000">
        <ele>618.40</ele>
        <time>2014-12-07T07:52:27Z</time>
      </trkpt>
      <trkpt lat="41.598186000" lon="1.773675000">
        <ele>620.40</ele>
        <time>2014-12-07T07:52:43Z</time>
      </trkpt>
      <trkpt lat="41.598510000" lon="1.773368000">
        <ele>623.10</ele>
        <time>2014-12-07T07:53:02Z</time>
      </trkpt>
      <trkpt lat="41.598562000" lon="1.773022000">
        <ele>625.60</ele>
        <time>2014-12-07T07:53:16Z</time>
      </trkpt>
      <trkpt lat="41.598343000" lon="1.772561000">
        <ele>626.90</ele>
        <time>2014-12-07T07:53:34Z</time>
      </trkpt>
      <trkpt lat="41.598301000" lon="1.772351000">
        <ele>627.90</ele>
        <time>2014-12-07T07:53:42Z</time>
      </trkpt>
      <trkpt lat="41.598515000" lon="1.772402000">
        <ele>631.00</ele>
        <time>2014-12-07T07:53:55Z</time>
      </trkpt>
      <trkpt lat="41.598688000" lon="1.772329000">
        <ele>634.10</ele>
        <time>2014-12-07T07:54:07Z</time>
      </trkpt>
      <trkpt lat="41.598943000" lon="1.772222000">
        <ele>637.30</ele>
        <time>2014-12-07T07:54:23Z</time>
      </trkpt>
      <trkpt lat="41.599274000" lon="1.772256000">
        <ele>640.50</ele>
        <time>2014-12-07T07:54:42Z</time>
      </trkpt>
      <trkpt lat="41.599623000" lon="1.772331000">
        <ele>642.30</ele>
        <time>2014-12-07T07:55:00Z</time>
      </trkpt>
      <trkpt lat="41.599972000" lon="1.772383000">
        <ele>645.40</ele>
        <time>2014-12-07T07:55:19Z</time>
      </trkpt>
      <trkpt lat="41.600318000" lon="1.772465000">
        <ele>648.50</ele>
        <time>2014-12-07T07:55:38Z</time>
      </trkpt>
      <trkpt lat="41.600607000" lon="1.772630000">
        <ele>651.80</ele>
        <time>2014-12-07T07:55:56Z</time>
      </trkpt>
      <trkpt lat="41.600797000" lon="1.772702000">
        <ele>654.80</ele>
        <time>2014-12-07T07:56:08Z</time>
      </trkpt>
      <trkpt lat="41.601099000" lon="1.772786000">
        <ele>658.10</ele>
        <time>2014-12-07T07:56:25Z</time>
      </trkpt>
      <trkpt lat="41.601420000" lon="1.772929000">
        <ele>659.60</ele>
        <time>2014-12-07T07:56:43Z</time>
      </trkpt>
      <trkpt lat="41.601615000" lon="1.773009000">
        <ele>662.80</ele>
        <time>2014-12-07T07:56:54Z</time>
      </trkpt>
      <trkpt lat="41.601934000" lon="1.773165000">
        <ele>665.40</ele>
        <time>2014-12-07T07:57:12Z</time>
      </trkpt>
      <trkpt lat="41.602216000" lon="1.773081000">
        <ele>668.60</ele>
        <time>2014-12-07T07:57:29Z</time>
      </trkpt>
      <trkpt lat="41.602570000" lon="1.772843000">
        <ele>669.40</ele>
        <time>2014-12-07T07:57:49Z</time>
      </trkpt>
      <trkpt lat="41.602883000" lon="1.772828000">
        <ele>669.50</ele>
        <time>2014-12-07T07:58:05Z</time>
      </trkpt>
      <trkpt lat="41.603327000" lon="1.772836000">
        <ele>671.40</ele>
        <time>2014-12-07T07:58:27Z</time>
      </trkpt>
      <trkpt lat="41.603505000" lon="1.772844000">
        <ele>674.70</ele>
        <time>2014-12-07T07:58:38Z</time>
      </trkpt>
      <trkpt lat="41.603644000" lon="1.772847000">
        <ele>677.80</ele>
        <time>2014-12-07T07:58:47Z</time>
      </trkpt>
      <trkpt lat="41.603763000" lon="1.772820000">
        <ele>679.00</ele>
        <time>2014-12-07T07:59:03Z</time>
      </trkpt>
      <trkpt lat="41.603790000" lon="1.772824000">
        <ele>679.60</ele>
        <time>2014-12-07T07:59:07Z</time>
      </trkpt>
      <trkpt lat="41.603783000" lon="1.772854000">
        <ele>679.70</ele>
        <time>2014-12-07T07:59:10Z</time>
      </trkpt>
      <trkpt lat="41.603696000" lon="1.772818000">
        <ele>678.70</ele>
        <time>2014-12-07T07:59:21Z</time>
      </trkpt>
      <trkpt lat="41.603698000" lon="1.772825000">
        <ele>678.80</ele>
        <time>2014-12-07T07:59:48Z</time>
      </trkpt>
      <trkpt lat="41.603692000" lon="1.772824000">
        <ele>679.20</ele>
        <time>2014-12-07T08:03:00Z</time>
      </trkpt>
      <trkpt lat="41.603688000" lon="1.772823000">
        <ele>679.30</ele>
        <time>2014-12-07T08:07:17Z</time>
      </trkpt>
      <trkpt lat="41.603683000" lon="1.772845000">
        <ele>679.20</ele>
        <time>2014-12-07T08:07:19Z</time>
      </trkpt>
      <trkpt lat="41.603708000" lon="1.772888000">
        <ele>679.50</ele>
        <time>2014-12-07T08:07:24Z</time>
      </trkpt>
      <trkpt lat="41.603953000" lon="1.772669000">
        <ele>680.80</ele>
        <time>2014-12-07T08:07:45Z</time>
      </trkpt>
      <trkpt lat="41.604366000" lon="1.772590000">
        <ele>680.20</ele>
        <time>2014-12-07T08:08:03Z</time>
      </trkpt>
      <trkpt lat="41.604832000" lon="1.772467000">
        <ele>679.10</ele>
        <time>2014-12-07T08:08:22Z</time>
      </trkpt>
      <trkpt lat="41.605355000" lon="1.772257000">
        <ele>677.80</ele>
        <time>2014-12-07T08:08:39Z</time>
      </trkpt>
      <trkpt lat="41.605585000" lon="1.771919000">
        <ele>678.00</ele>
        <time>2014-12-07T08:08:54Z</time>
      </trkpt>
      <trkpt lat="41.605585000" lon="1.771879000">
        <ele>678.20</ele>
        <time>2014-12-07T08:08:55Z</time>
      </trkpt>
      <trkpt lat="41.605303000" lon="1.771491000">
        <ele>679.70</ele>
        <time>2014-12-07T08:09:11Z</time>
      </trkpt>
      <trkpt lat="41.604997000" lon="1.771276000">
        <ele>682.80</ele>
        <time>2014-12-07T08:09:27Z</time>
      </trkpt>
      <trkpt lat="41.604800000" lon="1.771118000">
        <ele>684.90</ele>
        <time>2014-12-07T08:09:38Z</time>
      </trkpt>
      <trkpt lat="41.604851000" lon="1.771038000">
        <ele>685.60</ele>
        <time>2014-12-07T08:09:43Z</time>
      </trkpt>
      <trkpt lat="41.605045000" lon="1.770984000">
        <ele>689.00</ele>
        <time>2014-12-07T08:09:54Z</time>
      </trkpt>
      <trkpt lat="41.605239000" lon="1.770909000">
        <ele>692.20</ele>
        <time>2014-12-07T08:10:07Z</time>
      </trkpt>
      <trkpt lat="41.605265000" lon="1.770914000">
        <ele>692.80</ele>
        <time>2014-12-07T08:10:09Z</time>
      </trkpt>
      <trkpt lat="41.605416000" lon="1.771046000">
        <ele>696.40</ele>
        <time>2014-12-07T08:10:22Z</time>
      </trkpt>
      <trkpt lat="41.605553000" lon="1.771079000">
        <ele>699.50</ele>
        <time>2014-12-07T08:10:33Z</time>
      </trkpt>
      <trkpt lat="41.605792000" lon="1.771128000">
        <ele>702.70</ele>
        <time>2014-12-07T08:10:52Z</time>
      </trkpt>
      <trkpt lat="41.605893000" lon="1.771119000">
        <ele>704.00</ele>
        <time>2014-12-07T08:11:00Z</time>
      </trkpt>
      <trkpt lat="41.606019000" lon="1.771014000">
        <ele>707.40</ele>
        <time>2014-12-07T08:11:13Z</time>
      </trkpt>
      <trkpt lat="41.606192000" lon="1.770909000">
        <ele>709.80</ele>
        <time>2014-12-07T08:11:32Z</time>
      </trkpt>
      <trkpt lat="41.606263000" lon="1.770868000">
        <ele>712.00</ele>
        <time>2014-12-07T08:11:39Z</time>
      </trkpt>
      <trkpt lat="41.606388000" lon="1.770778000">
        <ele>715.40</ele>
        <time>2014-12-07T08:11:50Z</time>
      </trkpt>
      <trkpt lat="41.606440000" lon="1.770771000">
        <ele>716.80</ele>
        <time>2014-12-07T08:12:01Z</time>
      </trkpt>
      <trkpt lat="41.606481000" lon="1.770775000">
        <ele>718.60</ele>
        <time>2014-12-07T08:12:18Z</time>
      </trkpt>
      <trkpt lat="41.606602000" lon="1.770764000">
        <ele>721.00</ele>
        <time>2014-12-07T08:12:27Z</time>
      </trkpt>
      <trkpt lat="41.606741000" lon="1.770953000">
        <ele>724.30</ele>
        <time>2014-12-07T08:12:42Z</time>
      </trkpt>
      <trkpt lat="41.607012000" lon="1.771125000">
        <ele>726.10</ele>
        <time>2014-12-07T08:12:59Z</time>
      </trkpt>
      <trkpt lat="41.607191000" lon="1.771243000">
        <ele>729.20</ele>
        <time>2014-12-07T08:13:12Z</time>
      </trkpt>
      <trkpt lat="41.607389000" lon="1.771365000">
        <ele>732.40</ele>
        <time>2014-12-07T08:13:27Z</time>
      </trkpt>
      <trkpt lat="41.607499000" lon="1.771377000">
        <ele>734.70</ele>
        <time>2014-12-07T08:13:34Z</time>
      </trkpt>
      <trkpt lat="41.607523000" lon="1.771383000">
        <ele>735.30</ele>
        <time>2014-12-07T08:13:36Z</time>
      </trkpt>
      <trkpt lat="41.607615000" lon="1.771340000">
        <ele>738.20</ele>
        <time>2014-12-07T08:13:43Z</time>
      </trkpt>
      <trkpt lat="41.607655000" lon="1.771293000">
        <ele>740.00</ele>
        <time>2014-12-07T08:13:56Z</time>
      </trkpt>
      <trkpt lat="41.607676000" lon="1.771282000">
        <ele>740.40</ele>
        <time>2014-12-07T08:14:16Z</time>
      </trkpt>
      <trkpt lat="41.607772000" lon="1.771281000">
        <ele>740.10</ele>
        <time>2014-12-07T08:14:33Z</time>
      </trkpt>
      <trkpt lat="41.608234000" lon="1.771238000">
        <ele>739.30</ele>
        <time>2014-12-07T08:14:49Z</time>
      </trkpt>
      <trkpt lat="41.608575000" lon="1.771031000">
        <ele>741.90</ele>
        <time>2014-12-07T08:15:03Z</time>
      </trkpt>
      <trkpt lat="41.609047000" lon="1.771105000">
        <ele>738.80</ele>
        <time>2014-12-07T08:15:15Z</time>
      </trkpt>
      <trkpt lat="41.609275000" lon="1.771135000">
        <ele>739.80</ele>
        <time>2014-12-07T08:15:20Z</time>
      </trkpt>
      <trkpt lat="41.609417000" lon="1.771207000">
        <ele>737.40</ele>
        <time>2014-12-07T08:15:23Z</time>
      </trkpt>
      <trkpt lat="41.609639000" lon="1.771196000">
        <ele>738.50</ele>
        <time>2014-12-07T08:15:28Z</time>
      </trkpt>
      <trkpt lat="41.609693000" lon="1.771035000">
        <ele>737.10</ele>
        <time>2014-12-07T08:15:33Z</time>
      </trkpt>
      <trkpt lat="41.609645000" lon="1.770932000">
        <ele>735.00</ele>
        <time>2014-12-07T08:15:35Z</time>
      </trkpt>
      <trkpt lat="41.609581000" lon="1.770725000">
        <ele>733.40</ele>
        <time>2014-12-07T08:15:38Z</time>
      </trkpt>
      <trkpt lat="41.609508000" lon="1.770514000">
        <ele>732.10</ele>
        <time>2014-12-07T08:15:41Z</time>
      </trkpt>
      <trkpt lat="41.609592000" lon="1.770198000">
        <ele>728.20</ele>
        <time>2014-12-07T08:15:46Z</time>
      </trkpt>
      <trkpt lat="41.609736000" lon="1.770010000">
        <ele>726.20</ele>
        <time>2014-12-07T08:15:49Z</time>
      </trkpt>
      <trkpt lat="41.609831000" lon="1.769742000">
        <ele>725.50</ele>
        <time>2014-12-07T08:15:53Z</time>
      </trkpt>
      <trkpt lat="41.609834000" lon="1.769605000">
        <ele>725.30</ele>
        <time>2014-12-07T08:15:55Z</time>
      </trkpt>
      <trkpt lat="41.609885000" lon="1.769376000">
        <ele>723.60</ele>
        <time>2014-12-07T08:15:58Z</time>
      </trkpt>
      <trkpt lat="41.609916000" lon="1.769028000">
        <ele>720.30</ele>
        <time>2014-12-07T08:16:02Z</time>
      </trkpt>
      <trkpt lat="41.609916000" lon="1.768872000">
        <ele>718.90</ele>
        <time>2014-12-07T08:16:04Z</time>
      </trkpt>
      <trkpt lat="41.609842000" lon="1.768627000">
        <ele>715.90</ele>
        <time>2014-12-07T08:16:09Z</time>
      </trkpt>
      <trkpt lat="41.609828000" lon="1.768499000">
        <ele>713.70</ele>
        <time>2014-12-07T08:16:12Z</time>
      </trkpt>
      <trkpt lat="41.609763000" lon="1.768210000">
        <ele>709.20</ele>
        <time>2014-12-07T08:16:17Z</time>
      </trkpt>
      <trkpt lat="41.609755000" lon="1.768058000">
        <ele>708.00</ele>
        <time>2014-12-07T08:16:19Z</time>
      </trkpt>
      <trkpt lat="41.609802000" lon="1.767759000">
        <ele>711.30</ele>
        <time>2014-12-07T08:16:26Z</time>
      </trkpt>
      <trkpt lat="41.609790000" lon="1.767772000">
        <ele>710.80</ele>
        <time>2014-12-07T08:16:58Z</time>
      </trkpt>
      <trkpt lat="41.609791000" lon="1.767774000">
        <ele>710.70</ele>
        <time>2014-12-07T08:18:48Z</time>
      </trkpt>
      <trkpt lat="41.609795000" lon="1.767772000">
        <ele>710.20</ele>
        <time>2014-12-07T08:19:42Z</time>
      </trkpt>
      <trkpt lat="41.609785000" lon="1.767748000">
        <ele>710.10</ele>
        <time>2014-12-07T08:19:44Z</time>
      </trkpt>
      <trkpt lat="41.609819000" lon="1.767509000">
        <ele>712.00</ele>
        <time>2014-12-07T08:19:56Z</time>
      </trkpt>
      <trkpt lat="41.609825000" lon="1.767495000">
        <ele>712.20</ele>
        <time>2014-12-07T08:19:57Z</time>
      </trkpt>
      <trkpt lat="41.610011000" lon="1.767538000">
        <ele>714.40</ele>
        <time>2014-12-07T08:20:10Z</time>
      </trkpt>
      <trkpt lat="41.610344000" lon="1.767351000">
        <ele>714.10</ele>
        <time>2014-12-07T08:20:25Z</time>
      </trkpt>
      <trkpt lat="41.610380000" lon="1.767097000">
        <ele>712.60</ele>
        <time>2014-12-07T08:20:30Z</time>
      </trkpt>
      <trkpt lat="41.610441000" lon="1.766875000">
        <ele>711.30</ele>
        <time>2014-12-07T08:20:34Z</time>
      </trkpt>
      <trkpt lat="41.610510000" lon="1.766698000">
        <ele>712.00</ele>
        <time>2014-12-07T08:20:37Z</time>
      </trkpt>
      <trkpt lat="41.610624000" lon="1.766498000">
        <ele>710.60</ele>
        <time>2014-12-07T08:20:40Z</time>
      </trkpt>
      <trkpt lat="41.610876000" lon="1.766367000">
        <ele>709.00</ele>
        <time>2014-12-07T08:20:44Z</time>
      </trkpt>
      <trkpt lat="41.611017000" lon="1.766344000">
        <ele>708.10</ele>
        <time>2014-12-07T08:20:46Z</time>
      </trkpt>
      <trkpt lat="41.611638000" lon="1.766279000">
        <ele>704.30</ele>
        <time>2014-12-07T08:20:55Z</time>
      </trkpt>
      <trkpt lat="41.612333000" lon="1.766171000">
        <ele>699.60</ele>
        <time>2014-12-07T08:21:04Z</time>
      </trkpt>
      <trkpt lat="41.613013000" lon="1.766118000">
        <ele>696.00</ele>
        <time>2014-12-07T08:21:12Z</time>
      </trkpt>
      <trkpt lat="41.613090000" lon="1.766110000">
        <ele>695.90</ele>
        <time>2014-12-07T08:21:13Z</time>
      </trkpt>
      <trkpt lat="41.613226000" lon="1.766094000">
        <ele>696.30</ele>
        <time>2014-12-07T08:21:15Z</time>
      </trkpt>
      <trkpt lat="41.613520000" lon="1.765873000">
        <ele>692.40</ele>
        <time>2014-12-07T08:21:20Z</time>
      </trkpt>
      <trkpt lat="41.613595000" lon="1.765704000">
        <ele>691.40</ele>
        <time>2014-12-07T08:21:22Z</time>
      </trkpt>
      <trkpt lat="41.614016000" lon="1.764619000">
        <ele>687.20</ele>
        <time>2014-12-07T08:21:34Z</time>
      </trkpt>
      <trkpt lat="41.614282000" lon="1.764326000">
        <ele>685.40</ele>
        <time>2014-12-07T08:21:38Z</time>
      </trkpt>
      <trkpt lat="41.614633000" lon="1.764157000">
        <ele>681.70</ele>
        <time>2014-12-07T08:21:42Z</time>
      </trkpt>
      <trkpt lat="41.614941000" lon="1.764089000">
        <ele>680.80</ele>
        <time>2014-12-07T08:21:46Z</time>
      </trkpt>
      <trkpt lat="41.615058000" lon="1.764062000">
        <ele>681.00</ele>
        <time>2014-12-07T08:21:49Z</time>
      </trkpt>
      <trkpt lat="41.615170000" lon="1.763725000">
        <ele>682.00</ele>
        <time>2014-12-07T08:21:57Z</time>
      </trkpt>
      <trkpt lat="41.615025000" lon="1.763400000">
        <ele>685.00</ele>
        <time>2014-12-07T08:22:08Z</time>
      </trkpt>
      <trkpt lat="41.614783000" lon="1.763055000">
        <ele>688.10</ele>
        <time>2014-12-07T08:22:23Z</time>
      </trkpt>
      <trkpt lat="41.614621000" lon="1.762583000">
        <ele>689.40</ele>
        <time>2014-12-07T08:22:41Z</time>
      </trkpt>
      <trkpt lat="41.614735000" lon="1.762064000">
        <ele>689.50</ele>
        <time>2014-12-07T08:22:54Z</time>
      </trkpt>
      <trkpt lat="41.614752000" lon="1.761628000">
        <ele>689.30</ele>
        <time>2014-12-07T08:23:05Z</time>
      </trkpt>
      <trkpt lat="41.614882000" lon="1.761155000">
        <ele>689.70</ele>
        <time>2014-12-07T08:23:18Z</time>
      </trkpt>
      <trkpt lat="41.615305000" lon="1.760925000">
        <ele>690.00</ele>
        <time>2014-12-07T08:23:34Z</time>
      </trkpt>
      <trkpt lat="41.615578000" lon="1.760809000">
        <ele>686.90</ele>
        <time>2014-12-07T08:23:44Z</time>
      </trkpt>
      <trkpt lat="41.615644000" lon="1.760753000">
        <ele>686.00</ele>
        <time>2014-12-07T08:23:46Z</time>
      </trkpt>
      <trkpt lat="41.615727000" lon="1.760661000">
        <ele>684.60</ele>
        <time>2014-12-07T08:23:49Z</time>
      </trkpt>
      <trkpt lat="41.615876000" lon="1.760411000">
        <ele>681.80</ele>
        <time>2014-12-07T08:23:56Z</time>
      </trkpt>
      <trkpt lat="41.615994000" lon="1.760173000">
        <ele>680.20</ele>
        <time>2014-12-07T08:24:00Z</time>
      </trkpt>
      <trkpt lat="41.616170000" lon="1.759910000">
        <ele>679.80</ele>
        <time>2014-12-07T08:24:05Z</time>
      </trkpt>
      <trkpt lat="41.616396000" lon="1.759809000">
        <ele>679.60</ele>
        <time>2014-12-07T08:24:11Z</time>
      </trkpt>
      <trkpt lat="41.616580000" lon="1.759334000">
        <ele>681.30</ele>
        <time>2014-12-07T08:24:28Z</time>
      </trkpt>
      <trkpt lat="41.616599000" lon="1.758929000">
        <ele>680.70</ele>
        <time>2014-12-07T08:24:42Z</time>
      </trkpt>
      <trkpt lat="41.616548000" lon="1.758727000">
        <ele>681.10</ele>
        <time>2014-12-07T08:24:49Z</time>
      </trkpt>
      <trkpt lat="41.616194000" lon="1.758318000">
        <ele>681.40</ele>
        <time>2014-12-07T08:25:07Z</time>
      </trkpt>
      <trkpt lat="41.615773000" lon="1.758182000">
        <ele>679.60</ele>
        <time>2014-12-07T08:25:20Z</time>
      </trkpt>
      <trkpt lat="41.615453000" lon="1.758098000">
        <ele>678.60</ele>
        <time>2014-12-07T08:25:29Z</time>
      </trkpt>
      <trkpt lat="41.615297000" lon="1.757887000">
        <ele>677.00</ele>
        <time>2014-12-07T08:25:34Z</time>
      </trkpt>
      <trkpt lat="41.615179000" lon="1.757786000">
        <ele>675.80</ele>
        <time>2014-12-07T08:25:37Z</time>
      </trkpt>
      <trkpt lat="41.614981000" lon="1.757599000">
        <ele>674.70</ele>
        <time>2014-12-07T08:25:43Z</time>
      </trkpt>
      <trkpt lat="41.614839000" lon="1.757458000">
        <ele>673.40</ele>
        <time>2014-12-07T08:25:47Z</time>
      </trkpt>
      <trkpt lat="41.614664000" lon="1.757427000">
        <ele>672.60</ele>
        <time>2014-12-07T08:25:51Z</time>
      </trkpt>
      <trkpt lat="41.614400000" lon="1.757467000">
        <ele>670.30</ele>
        <time>2014-12-07T08:25:55Z</time>
      </trkpt>
      <trkpt lat="41.614263000" lon="1.757306000">
        <ele>669.70</ele>
        <time>2014-12-07T08:26:00Z</time>
      </trkpt>
      <trkpt lat="41.614575000" lon="1.756950000">
        <ele>666.70</ele>
        <time>2014-12-07T08:26:10Z</time>
      </trkpt>
      <trkpt lat="41.614614000" lon="1.756904000">
        <ele>665.60</ele>
        <time>2014-12-07T08:26:11Z</time>
      </trkpt>
      <trkpt lat="41.614679000" lon="1.756627000">
        <ele>662.80</ele>
        <time>2014-12-07T08:26:16Z</time>
      </trkpt>
      <trkpt lat="41.614607000" lon="1.756121000">
        <ele>660.30</ele>
        <time>2014-12-07T08:26:25Z</time>
      </trkpt>
      <trkpt lat="41.614540000" lon="1.755986000">
        <ele>659.00</ele>
        <time>2014-12-07T08:26:28Z</time>
      </trkpt>
      <trkpt lat="41.614453000" lon="1.755947000">
        <ele>657.90</ele>
        <time>2014-12-07T08:26:30Z</time>
      </trkpt>
      <trkpt lat="41.614353000" lon="1.755904000">
        <ele>656.20</ele>
        <time>2014-12-07T08:26:32Z</time>
      </trkpt>
      <trkpt lat="41.614274000" lon="1.755457000">
        <ele>651.80</ele>
        <time>2014-12-07T08:26:38Z</time>
      </trkpt>
      <trkpt lat="41.614298000" lon="1.755369000">
        <ele>651.40</ele>
        <time>2014-12-07T08:26:39Z</time>
      </trkpt>
      <trkpt lat="41.614350000" lon="1.755202000">
        <ele>650.10</ele>
        <time>2014-12-07T08:26:41Z</time>
      </trkpt>
      <trkpt lat="41.614366000" lon="1.754873000">
        <ele>650.20</ele>
        <time>2014-12-07T08:26:45Z</time>
      </trkpt>
      <trkpt lat="41.614305000" lon="1.754314000">
        <ele>650.40</ele>
        <time>2014-12-07T08:26:53Z</time>
      </trkpt>
      <trkpt lat="41.614210000" lon="1.754015000">
        <ele>649.90</ele>
        <time>2014-12-07T08:26:58Z</time>
      </trkpt>
      <trkpt lat="41.613655000" lon="1.753263000">
        <ele>653.00</ele>
        <time>2014-12-07T08:27:17Z</time>
      </trkpt>
      <trkpt lat="41.613374000" lon="1.753399000">
        <ele>654.30</ele>
        <time>2014-12-07T08:27:26Z</time>
      </trkpt>
      <trkpt lat="41.613262000" lon="1.753113000">
        <ele>654.60</ele>
        <time>2014-12-07T08:27:33Z</time>
      </trkpt>
      <trkpt lat="41.613222000" lon="1.752503000">
        <ele>656.10</ele>
        <time>2014-12-07T08:27:46Z</time>
      </trkpt>
      <trkpt lat="41.613364000" lon="1.751790000">
        <ele>655.60</ele>
        <time>2014-12-07T08:28:02Z</time>
      </trkpt>
      <trkpt lat="41.613390000" lon="1.751588000">
        <ele>655.30</ele>
        <time>2014-12-07T08:28:05Z</time>
      </trkpt>
      <trkpt lat="41.613426000" lon="1.751389000">
        <ele>654.90</ele>
        <time>2014-12-07T08:28:08Z</time>
      </trkpt>
      <trkpt lat="41.613432000" lon="1.751267000">
        <ele>655.00</ele>
        <time>2014-12-07T08:28:10Z</time>
      </trkpt>
      <trkpt lat="41.613334000" lon="1.751004000">
        <ele>655.10</ele>
        <time>2014-12-07T08:28:16Z</time>
      </trkpt>
      <trkpt lat="41.613287000" lon="1.750986000">
        <ele>655.30</ele>
        <time>2014-12-07T08:28:18Z</time>
      </trkpt>
      <trkpt lat="41.612997000" lon="1.750813000">
        <ele>655.00</ele>
        <time>2014-12-07T08:28:31Z</time>
      </trkpt>
      <trkpt lat="41.613009000" lon="1.750268000">
        <ele>655.00</ele>
        <time>2014-12-07T08:28:43Z</time>
      </trkpt>
      <trkpt lat="41.613160000" lon="1.749812000">
        <ele>654.00</ele>
        <time>2014-12-07T08:28:52Z</time>
      </trkpt>
      <trkpt lat="41.613327000" lon="1.749563000">
        <ele>652.90</ele>
        <time>2014-12-07T08:28:58Z</time>
      </trkpt>
      <trkpt lat="41.613447000" lon="1.749358000">
        <ele>652.60</ele>
        <time>2014-12-07T08:29:02Z</time>
      </trkpt>
      <trkpt lat="41.613436000" lon="1.748739000">
        <ele>650.70</ele>
        <time>2014-12-07T08:29:12Z</time>
      </trkpt>
      <trkpt lat="41.613269000" lon="1.748589000">
        <ele>649.30</ele>
        <time>2014-12-07T08:29:16Z</time>
      </trkpt>
      <trkpt lat="41.613180000" lon="1.748537000">
        <ele>649.60</ele>
        <time>2014-12-07T08:29:18Z</time>
      </trkpt>
      <trkpt lat="41.612989000" lon="1.748262000">
        <ele>649.80</ele>
        <time>2014-12-07T08:29:24Z</time>
      </trkpt>
      <trkpt lat="41.612969000" lon="1.747898000">
        <ele>649.90</ele>
        <time>2014-12-07T08:29:30Z</time>
      </trkpt>
      <trkpt lat="41.613044000" lon="1.747740000">
        <ele>649.30</ele>
        <time>2014-12-07T08:29:33Z</time>
      </trkpt>
      <trkpt lat="41.613080000" lon="1.747617000">
        <ele>648.40</ele>
        <time>2014-12-07T08:29:35Z</time>
      </trkpt>
      <trkpt lat="41.613093000" lon="1.747550000">
        <ele>647.50</ele>
        <time>2014-12-07T08:29:36Z</time>
      </trkpt>
      <trkpt lat="41.613096000" lon="1.747320000">
        <ele>646.00</ele>
        <time>2014-12-07T08:29:39Z</time>
      </trkpt>
      <trkpt lat="41.613022000" lon="1.747115000">
        <ele>645.70</ele>
        <time>2014-12-07T08:29:42Z</time>
      </trkpt>
      <trkpt lat="41.612980000" lon="1.747008000">
        <ele>645.60</ele>
        <time>2014-12-07T08:29:44Z</time>
      </trkpt>
      <trkpt lat="41.612971000" lon="1.746756000">
        <ele>645.30</ele>
        <time>2014-12-07T08:29:48Z</time>
      </trkpt>
      <trkpt lat="41.612987000" lon="1.746570000">
        <ele>645.00</ele>
        <time>2014-12-07T08:29:51Z</time>
      </trkpt>
      <trkpt lat="41.612864000" lon="1.745950000">
        <ele>647.50</ele>
        <time>2014-12-07T08:30:03Z</time>
      </trkpt>
      <trkpt lat="41.612575000" lon="1.745279000">
        <ele>648.60</ele>
        <time>2014-12-07T08:30:18Z</time>
      </trkpt>
      <trkpt lat="41.612386000" lon="1.744643000">
        <ele>651.60</ele>
        <time>2014-12-07T08:30:34Z</time>
      </trkpt>
      <trkpt lat="41.612210000" lon="1.744181000">
        <ele>654.90</ele>
        <time>2014-12-07T08:30:47Z</time>
      </trkpt>
      <trkpt lat="41.611998000" lon="1.744002000">
        <ele>658.00</ele>
        <time>2014-12-07T08:30:58Z</time>
      </trkpt>
      <trkpt lat="41.611716000" lon="1.744076000">
        <ele>661.60</ele>
        <time>2014-12-07T08:31:08Z</time>
      </trkpt>
      <trkpt lat="41.611428000" lon="1.743974000">
        <ele>662.60</ele>
        <time>2014-12-07T08:31:23Z</time>
      </trkpt>
      <trkpt lat="41.611290000" lon="1.743989000">
        <ele>663.00</ele>
        <time>2014-12-07T08:31:32Z</time>
      </trkpt>
      <trkpt lat="41.611157000" lon="1.743882000">
        <ele>661.50</ele>
        <time>2014-12-07T08:31:38Z</time>
      </trkpt>
      <trkpt lat="41.611059000" lon="1.744095000">
        <ele>662.20</ele>
        <time>2014-12-07T08:31:46Z</time>
      </trkpt>
      <trkpt lat="41.611124000" lon="1.744427000">
        <ele>665.60</ele>
        <time>2014-12-07T08:31:59Z</time>
      </trkpt>
      <trkpt lat="41.611252000" lon="1.744753000">
        <ele>668.80</ele>
        <time>2014-12-07T08:32:13Z</time>
      </trkpt>
      <trkpt lat="41.611377000" lon="1.745139000">
        <ele>672.00</ele>
        <time>2014-12-07T08:32:29Z</time>
      </trkpt>
      <trkpt lat="41.611431000" lon="1.745441000">
        <ele>675.00</ele>
        <time>2014-12-07T08:32:40Z</time>
      </trkpt>
      <trkpt lat="41.611430000" lon="1.745779000">
        <ele>678.30</ele>
        <time>2014-12-07T08:32:52Z</time>
      </trkpt>
      <trkpt lat="41.611550000" lon="1.746367000">
        <ele>677.40</ele>
        <time>2014-12-07T08:33:11Z</time>
      </trkpt>
      <trkpt lat="41.611738000" lon="1.746519000">
        <ele>675.80</ele>
        <time>2014-12-07T08:33:16Z</time>
      </trkpt>
      <trkpt lat="41.611878000" lon="1.746660000">
        <ele>675.80</ele>
        <time>2014-12-07T08:33:20Z</time>
      </trkpt>
      <trkpt lat="41.612053000" lon="1.747048000">
        <ele>674.60</ele>
        <time>2014-12-07T08:33:28Z</time>
      </trkpt>
      <trkpt lat="41.612250000" lon="1.747510000">
        <ele>674.60</ele>
        <time>2014-12-07T08:33:38Z</time>
      </trkpt>
      <trkpt lat="41.612214000" lon="1.747562000">
        <ele>675.10</ele>
        <time>2014-12-07T08:33:42Z</time>
      </trkpt>
      <trkpt lat="41.612133000" lon="1.747592000">
        <ele>675.70</ele>
        <time>2014-12-07T08:33:48Z</time>
      </trkpt>
      <trkpt lat="41.612060000" lon="1.747615000">
        <ele>676.70</ele>
        <time>2014-12-07T08:33:53Z</time>
      </trkpt>
      <trkpt lat="41.612030000" lon="1.747589000">
        <ele>676.80</ele>
        <time>2014-12-07T08:33:56Z</time>
      </trkpt>
      <trkpt lat="41.611991000" lon="1.747525000">
        <ele>676.90</ele>
        <time>2014-12-07T08:34:10Z</time>
      </trkpt>
      <trkpt lat="41.611993000" lon="1.747530000">
        <ele>676.90</ele>
        <time>2014-12-07T08:34:51Z</time>
      </trkpt>
      <trkpt lat="41.611993000" lon="1.747530000">
        <ele>676.80</ele>
        <time>2014-12-07T08:34:56Z</time>
      </trkpt>
      <trkpt lat="41.611993000" lon="1.747531000">
        <ele>677.50</ele>
        <time>2014-12-07T09:31:51Z</time>
      </trkpt>
      <trkpt lat="41.611993000" lon="1.747531000">
        <ele>677.30</ele>
        <time>2014-12-07T09:31:52Z</time>
      </trkpt>
      <trkpt lat="41.612012000" lon="1.747515000">
        <ele>677.40</ele>
        <time>2014-12-07T09:32:09Z</time>
      </trkpt>
      <trkpt lat="41.612004000" lon="1.747532000">
        <ele>680.60</ele>
        <time>2014-12-07T09:32:51Z</time>
      </trkpt>
      <trkpt lat="41.612005000" lon="1.747537000">
        <ele>683.70</ele>
        <time>2014-12-07T09:33:07Z</time>
      </trkpt>
      <trkpt lat="41.611998000" lon="1.747549000">
        <ele>684.80</ele>
        <time>2014-12-07T09:33:18Z</time>
      </trkpt>
      <trkpt lat="41.612036000" lon="1.747620000">
        <ele>685.00</ele>
        <time>2014-12-07T09:33:23Z</time>
      </trkpt>
      <trkpt lat="41.612225000" lon="1.747463000">
        <ele>682.40</ele>
        <time>2014-12-07T09:33:36Z</time>
      </trkpt>
      <trkpt lat="41.612268000" lon="1.747476000">
        <ele>682.80</ele>
        <time>2014-12-07T09:33:46Z</time>
      </trkpt>
      <trkpt lat="41.612265000" lon="1.747475000">
        <ele>682.50</ele>
        <time>2014-12-07T09:34:16Z</time>
      </trkpt>
      <trkpt lat="41.612098000" lon="1.747195000">
        <ele>682.90</ele>
        <time>2014-12-07T09:34:29Z</time>
      </trkpt>
      <trkpt lat="41.611962000" lon="1.746930000">
        <ele>683.70</ele>
        <time>2014-12-07T09:34:40Z</time>
      </trkpt>
      <trkpt lat="41.611828000" lon="1.746625000">
        <ele>684.90</ele>
        <time>2014-12-07T09:34:53Z</time>
      </trkpt>
      <trkpt lat="41.611794000" lon="1.746560000">
        <ele>684.60</ele>
        <time>2014-12-07T09:34:59Z</time>
      </trkpt>
      <trkpt lat="41.611573000" lon="1.746382000">
        <ele>685.60</ele>
        <time>2014-12-07T09:35:13Z</time>
      </trkpt>
      <trkpt lat="41.611420000" lon="1.746125000">
        <ele>686.50</ele>
        <time>2014-12-07T09:35:26Z</time>
      </trkpt>
      <trkpt lat="41.611398000" lon="1.745717000">
        <ele>685.30</ele>
        <time>2014-12-07T09:35:39Z</time>
      </trkpt>
      <trkpt lat="41.611398000" lon="1.745417000">
        <ele>681.90</ele>
        <time>2014-12-07T09:35:44Z</time>
      </trkpt>
      <trkpt lat="41.611359000" lon="1.745173000">
        <ele>679.60</ele>
        <time>2014-12-07T09:35:47Z</time>
      </trkpt>
      <trkpt lat="41.611227000" lon="1.744660000">
        <ele>675.10</ele>
        <time>2014-12-07T09:35:52Z</time>
      </trkpt>
      <trkpt lat="41.611186000" lon="1.744566000">
        <ele>675.10</ele>
        <time>2014-12-07T09:35:53Z</time>
      </trkpt>
      <trkpt lat="41.611112000" lon="1.744389000">
        <ele>672.70</ele>
        <time>2014-12-07T09:35:55Z</time>
      </trkpt>
      <trkpt lat="41.610878000" lon="1.743933000">
        <ele>669.50</ele>
        <time>2014-12-07T09:36:04Z</time>
      </trkpt>
      <trkpt lat="41.610835000" lon="1.743952000">
        <ele>668.70</ele>
        <time>2014-12-07T09:36:05Z</time>
      </trkpt>
      <trkpt lat="41.610670000" lon="1.744003000">
        <ele>664.70</ele>
        <time>2014-12-07T09:36:10Z</time>
      </trkpt>
      <trkpt lat="41.610649000" lon="1.744005000">
        <ele>668.90</ele>
        <time>2014-12-07T09:36:11Z</time>
      </trkpt>
      <trkpt lat="41.610633000" lon="1.744010000">
        <ele>673.40</ele>
        <time>2014-12-07T09:36:12Z</time>
      </trkpt>
      <trkpt lat="41.610617000" lon="1.744022000">
        <ele>670.10</ele>
        <time>2014-12-07T09:36:13Z</time>
      </trkpt>
      <trkpt lat="41.610578000" lon="1.744040000">
        <ele>671.70</ele>
        <time>2014-12-07T09:36:16Z</time>
      </trkpt>
      <trkpt lat="41.610457000" lon="1.744122000">
        <ele>669.00</ele>
        <time>2014-12-07T09:36:24Z</time>
      </trkpt>
      <trkpt lat="41.610354000" lon="1.744222000">
        <ele>669.50</ele>
        <time>2014-12-07T09:36:29Z</time>
      </trkpt>
      <trkpt lat="41.609863000" lon="1.744710000">
        <ele>669.60</ele>
        <time>2014-12-07T09:36:39Z</time>
      </trkpt>
      <trkpt lat="41.609819000" lon="1.744753000">
        <ele>669.50</ele>
        <time>2014-12-07T09:36:40Z</time>
      </trkpt>
      <trkpt lat="41.609734000" lon="1.744888000">
        <ele>669.40</ele>
        <time>2014-12-07T09:36:44Z</time>
      </trkpt>
      <trkpt lat="41.609695000" lon="1.744955000">
        <ele>669.00</ele>
        <time>2014-12-07T09:36:50Z</time>
      </trkpt>
      <trkpt lat="41.609733000" lon="1.744862000">
        <ele>669.30</ele>
        <time>2014-12-07T09:36:58Z</time>
      </trkpt>
      <trkpt lat="41.610041000" lon="1.744551000">
        <ele>668.80</ele>
        <time>2014-12-07T09:37:14Z</time>
      </trkpt>
      <trkpt lat="41.610368000" lon="1.744179000">
        <ele>669.20</ele>
        <time>2014-12-07T09:37:28Z</time>
      </trkpt>
      <trkpt lat="41.610797000" lon="1.744011000">
        <ele>668.80</ele>
        <time>2014-12-07T09:37:40Z</time>
      </trkpt>
      <trkpt lat="41.610946000" lon="1.743941000">
        <ele>668.70</ele>
        <time>2014-12-07T09:37:44Z</time>
      </trkpt>
      <trkpt lat="41.610994000" lon="1.743912000">
        <ele>669.20</ele>
        <time>2014-12-07T09:37:46Z</time>
      </trkpt>
      <trkpt lat="41.611006000" lon="1.743672000">
        <ele>668.90</ele>
        <time>2014-12-07T09:37:52Z</time>
      </trkpt>
      <trkpt lat="41.610725000" lon="1.742980000">
        <ele>667.40</ele>
        <time>2014-12-07T09:38:09Z</time>
      </trkpt>
      <trkpt lat="41.610609000" lon="1.742762000">
        <ele>665.90</ele>
        <time>2014-12-07T09:38:14Z</time>
      </trkpt>
      <trkpt lat="41.610451000" lon="1.742575000">
        <ele>663.80</ele>
        <time>2014-12-07T09:38:18Z</time>
      </trkpt>
      <trkpt lat="41.610203000" lon="1.742362000">
        <ele>659.70</ele>
        <time>2014-12-07T09:38:23Z</time>
      </trkpt>
      <trkpt lat="41.610014000" lon="1.742222000">
        <ele>655.80</ele>
        <time>2014-12-07T09:38:26Z</time>
      </trkpt>
      <trkpt lat="41.609716000" lon="1.742005000">
        <ele>653.00</ele>
        <time>2014-12-07T09:38:30Z</time>
      </trkpt>
      <trkpt lat="41.608873000" lon="1.741521000">
        <ele>652.90</ele>
        <time>2014-12-07T09:38:43Z</time>
      </trkpt>
      <trkpt lat="41.608753000" lon="1.741461000">
        <ele>652.50</ele>
        <time>2014-12-07T09:38:45Z</time>
      </trkpt>
      <trkpt lat="41.608278000" lon="1.741172000">
        <ele>654.30</ele>
        <time>2014-12-07T09:38:54Z</time>
      </trkpt>
      <trkpt lat="41.608114000" lon="1.741025000">
        <ele>652.80</ele>
        <time>2014-12-07T09:38:58Z</time>
      </trkpt>
      <trkpt lat="41.608020000" lon="1.740954000">
        <ele>651.90</ele>
        <time>2014-12-07T09:39:00Z</time>
      </trkpt>
      <trkpt lat="41.607868000" lon="1.740905000">
        <ele>653.30</ele>
        <time>2014-12-07T09:39:03Z</time>
      </trkpt>
      <trkpt lat="41.607610000" lon="1.740892000">
        <ele>653.90</ele>
        <time>2014-12-07T09:39:09Z</time>
      </trkpt>
      <trkpt lat="41.607293000" lon="1.740920000">
        <ele>651.10</ele>
        <time>2014-12-07T09:39:15Z</time>
      </trkpt>
      <trkpt lat="41.607116000" lon="1.740889000">
        <ele>649.80</ele>
        <time>2014-12-07T09:39:19Z</time>
      </trkpt>
      <trkpt lat="41.607074000" lon="1.740887000">
        <ele>649.20</ele>
        <time>2014-12-07T09:39:22Z</time>
      </trkpt>
      <trkpt lat="41.606902000" lon="1.740835000">
        <ele>647.30</ele>
        <time>2014-12-07T09:39:29Z</time>
      </trkpt>
      <trkpt lat="41.606406000" lon="1.740711000">
        <ele>643.90</ele>
        <time>2014-12-07T09:39:41Z</time>
      </trkpt>
      <trkpt lat="41.606122000" lon="1.740696000">
        <ele>642.40</ele>
        <time>2014-12-07T09:39:49Z</time>
      </trkpt>
      <trkpt lat="41.605895000" lon="1.740584000">
        <ele>638.20</ele>
        <time>2014-12-07T09:39:53Z</time>
      </trkpt>
      <trkpt lat="41.605654000" lon="1.740367000">
        <ele>633.90</ele>
        <time>2014-12-07T09:39:57Z</time>
      </trkpt>
      <trkpt lat="41.605591000" lon="1.740314000">
        <ele>633.70</ele>
        <time>2014-12-07T09:39:58Z</time>
      </trkpt>
      <trkpt lat="41.605237000" lon="1.740021000">
        <ele>632.20</ele>
        <time>2014-12-07T09:40:05Z</time>
      </trkpt>
      <trkpt lat="41.605119000" lon="1.739771000">
        <ele>630.10</ele>
        <time>2014-12-07T09:40:09Z</time>
      </trkpt>
      <trkpt lat="41.605088000" lon="1.739609000">
        <ele>629.00</ele>
        <time>2014-12-07T09:40:11Z</time>
      </trkpt>
      <trkpt lat="41.604880000" lon="1.739335000">
        <ele>626.60</ele>
        <time>2014-12-07T09:40:17Z</time>
      </trkpt>
      <trkpt lat="41.604693000" lon="1.739333000">
        <ele>624.10</ele>
        <time>2014-12-07T09:40:20Z</time>
      </trkpt>
      <trkpt lat="41.604523000" lon="1.739317000">
        <ele>623.40</ele>
        <time>2014-12-07T09:40:23Z</time>
      </trkpt>
      <trkpt lat="41.604258000" lon="1.739492000">
        <ele>621.80</ele>
        <time>2014-12-07T09:40:29Z</time>
      </trkpt>
      <trkpt lat="41.604127000" lon="1.739669000">
        <ele>620.10</ele>
        <time>2014-12-07T09:40:32Z</time>
      </trkpt>
      <trkpt lat="41.603928000" lon="1.739955000">
        <ele>617.90</ele>
        <time>2014-12-07T09:40:38Z</time>
      </trkpt>
      <trkpt lat="41.603715000" lon="1.740053000">
        <ele>613.80</ele>
        <time>2014-12-07T09:40:43Z</time>
      </trkpt>
      <trkpt lat="41.603664000" lon="1.740051000">
        <ele>612.80</ele>
        <time>2014-12-07T09:40:44Z</time>
      </trkpt>
      <trkpt lat="41.603508000" lon="1.740014000">
        <ele>610.50</ele>
        <time>2014-12-07T09:40:47Z</time>
      </trkpt>
      <trkpt lat="41.603460000" lon="1.739997000">
        <ele>610.30</ele>
        <time>2014-12-07T09:40:48Z</time>
      </trkpt>
      <trkpt lat="41.603332000" lon="1.739859000">
        <ele>609.70</ele>
        <time>2014-12-07T09:40:52Z</time>
      </trkpt>
      <trkpt lat="41.603132000" lon="1.739354000">
        <ele>609.50</ele>
        <time>2014-12-07T09:41:07Z</time>
      </trkpt>
      <trkpt lat="41.603029000" lon="1.738937000">
        <ele>608.60</ele>
        <time>2014-12-07T09:41:18Z</time>
      </trkpt>
      <trkpt lat="41.602885000" lon="1.738486000">
        <ele>608.80</ele>
        <time>2014-12-07T09:41:30Z</time>
      </trkpt>
      <trkpt lat="41.602491000" lon="1.737830000">
        <ele>607.80</ele>
        <time>2014-12-07T09:41:44Z</time>
      </trkpt>
      <trkpt lat="41.602336000" lon="1.737641000">
        <ele>608.60</ele>
        <time>2014-12-07T09:41:49Z</time>
      </trkpt>
      <trkpt lat="41.602225000" lon="1.737548000">
        <ele>608.40</ele>
        <time>2014-12-07T09:41:52Z</time>
      </trkpt>
      <trkpt lat="41.602124000" lon="1.737401000">
        <ele>608.60</ele>
        <time>2014-12-07T09:41:55Z</time>
      </trkpt>
      <trkpt lat="41.601916000" lon="1.737043000">
        <ele>607.80</ele>
        <time>2014-12-07T09:42:01Z</time>
      </trkpt>
      <trkpt lat="41.601767000" lon="1.736835000">
        <ele>607.00</ele>
        <time>2014-12-07T09:42:05Z</time>
      </trkpt>
      <trkpt lat="41.601587000" lon="1.736663000">
        <ele>606.10</ele>
        <time>2014-12-07T09:42:09Z</time>
      </trkpt>
      <trkpt lat="41.601211000" lon="1.736495000">
        <ele>608.50</ele>
        <time>2014-12-07T09:42:17Z</time>
      </trkpt>
      <trkpt lat="41.600656000" lon="1.736321000">
        <ele>611.00</ele>
        <time>2014-12-07T09:42:31Z</time>
      </trkpt>
      <trkpt lat="41.600052000" lon="1.736127000">
        <ele>614.10</ele>
        <time>2014-12-07T09:42:48Z</time>
      </trkpt>
      <trkpt lat="41.599673000" lon="1.735758000">
        <ele>616.40</ele>
        <time>2014-12-07T09:43:02Z</time>
      </trkpt>
      <trkpt lat="41.599479000" lon="1.735318000">
        <ele>618.40</ele>
        <time>2014-12-07T09:43:15Z</time>
      </trkpt>
      <trkpt lat="41.599281000" lon="1.734535000">
        <ele>614.80</ele>
        <time>2014-12-07T09:43:30Z</time>
      </trkpt>
      <trkpt lat="41.599220000" lon="1.734317000">
        <ele>612.70</ele>
        <time>2014-12-07T09:43:33Z</time>
      </trkpt>
      <trkpt lat="41.599042000" lon="1.733875000">
        <ele>611.40</ele>
        <time>2014-12-07T09:43:39Z</time>
      </trkpt>
      <trkpt lat="41.598809000" lon="1.733608000">
        <ele>611.60</ele>
        <time>2014-12-07T09:43:44Z</time>
      </trkpt>
      <trkpt lat="41.598544000" lon="1.733457000">
        <ele>612.90</ele>
        <time>2014-12-07T09:43:50Z</time>
      </trkpt>
      <trkpt lat="41.598527000" lon="1.733276000">
        <ele>613.70</ele>
        <time>2014-12-07T09:43:56Z</time>
      </trkpt>
      <trkpt lat="41.598479000" lon="1.733185000">
        <ele>614.00</ele>
        <time>2014-12-07T09:44:00Z</time>
      </trkpt>
      <trkpt lat="41.598327000" lon="1.733121000">
        <ele>615.40</ele>
        <time>2014-12-07T09:44:05Z</time>
      </trkpt>
      <trkpt lat="41.598106000" lon="1.733032000">
        <ele>615.60</ele>
        <time>2014-12-07T09:44:11Z</time>
      </trkpt>
      <trkpt lat="41.598057000" lon="1.732872000">
        <ele>615.90</ele>
        <time>2014-12-07T09:44:15Z</time>
      </trkpt>
      <trkpt lat="41.597925000" lon="1.732769000">
        <ele>615.10</ele>
        <time>2014-12-07T09:44:19Z</time>
      </trkpt>
      <trkpt lat="41.597686000" lon="1.732494000">
        <ele>614.10</ele>
        <time>2014-12-07T09:44:30Z</time>
      </trkpt>
      <trkpt lat="41.597250000" lon="1.732626000">
        <ele>614.60</ele>
        <time>2014-12-07T09:44:43Z</time>
      </trkpt>
      <trkpt lat="41.596856000" lon="1.732825000">
        <ele>618.00</ele>
        <time>2014-12-07T09:44:56Z</time>
      </trkpt>
      <trkpt lat="41.596565000" lon="1.732899000">
        <ele>620.70</ele>
        <time>2014-12-07T09:45:07Z</time>
      </trkpt>
      <trkpt lat="41.596359000" lon="1.733192000">
        <ele>622.70</ele>
        <time>2014-12-07T09:45:19Z</time>
      </trkpt>
      <trkpt lat="41.596240000" lon="1.733316000">
        <ele>623.50</ele>
        <time>2014-12-07T09:45:24Z</time>
      </trkpt>
      <trkpt lat="41.596022000" lon="1.733199000">
        <ele>624.60</ele>
        <time>2014-12-07T09:45:32Z</time>
      </trkpt>
      <trkpt lat="41.595711000" lon="1.732587000">
        <ele>623.30</ele>
        <time>2014-12-07T09:45:49Z</time>
      </trkpt>
      <trkpt lat="41.595374000" lon="1.732470000">
        <ele>623.80</ele>
        <time>2014-12-07T09:46:01Z</time>
      </trkpt>
      <trkpt lat="41.594943000" lon="1.732650000">
        <ele>623.90</ele>
        <time>2014-12-07T09:46:14Z</time>
      </trkpt>
      <trkpt lat="41.594664000" lon="1.732765000">
        <ele>625.90</ele>
        <time>2014-12-07T09:46:26Z</time>
      </trkpt>
      <trkpt lat="41.594470000" lon="1.733034000">
        <ele>628.40</ele>
        <time>2014-12-07T09:46:38Z</time>
      </trkpt>
      <trkpt lat="41.594369000" lon="1.733146000">
        <ele>628.80</ele>
        <time>2014-12-07T09:46:45Z</time>
      </trkpt>
      <trkpt lat="41.594272000" lon="1.733284000">
        <ele>629.40</ele>
        <time>2014-12-07T09:46:52Z</time>
      </trkpt>
      <trkpt lat="41.593957000" lon="1.733540000">
        <ele>628.70</ele>
        <time>2014-12-07T09:47:06Z</time>
      </trkpt>
      <trkpt lat="41.593826000" lon="1.733650000">
        <ele>628.00</ele>
        <time>2014-12-07T09:47:10Z</time>
      </trkpt>
      <trkpt lat="41.593673000" lon="1.733747000">
        <ele>628.10</ele>
        <time>2014-12-07T09:47:14Z</time>
      </trkpt>
      <trkpt lat="41.593146000" lon="1.733986000">
        <ele>629.00</ele>
        <time>2014-12-07T09:47:30Z</time>
      </trkpt>
      <trkpt lat="41.592748000" lon="1.733832000">
        <ele>629.80</ele>
        <time>2014-12-07T09:47:43Z</time>
      </trkpt>
      <trkpt lat="41.592497000" lon="1.733873000">
        <ele>629.70</ele>
        <time>2014-12-07T09:47:54Z</time>
      </trkpt>
      <trkpt lat="41.592430000" lon="1.733949000">
        <ele>629.60</ele>
        <time>2014-12-07T09:47:56Z</time>
      </trkpt>
      <trkpt lat="41.592053000" lon="1.734118000">
        <ele>630.60</ele>
        <time>2014-12-07T09:48:08Z</time>
      </trkpt>
      <trkpt lat="41.591786000" lon="1.734239000">
        <ele>633.70</ele>
        <time>2014-12-07T09:48:19Z</time>
      </trkpt>
      <trkpt lat="41.591523000" lon="1.734468000">
        <ele>636.10</ele>
        <time>2014-12-07T09:48:32Z</time>
      </trkpt>
      <trkpt lat="41.591264000" lon="1.734799000">
        <ele>632.70</ele>
        <time>2014-12-07T09:48:45Z</time>
      </trkpt>
      <trkpt lat="41.590937000" lon="1.734918000">
        <ele>629.50</ele>
        <time>2014-12-07T09:48:53Z</time>
      </trkpt>
      <trkpt lat="41.590849000" lon="1.734951000">
        <ele>629.10</ele>
        <time>2014-12-07T09:48:55Z</time>
      </trkpt>
      <trkpt lat="41.590257000" lon="1.735136000">
        <ele>627.70</ele>
        <time>2014-12-07T09:49:11Z</time>
      </trkpt>
      <trkpt lat="41.589883000" lon="1.735289000">
        <ele>629.00</ele>
        <time>2014-12-07T09:49:25Z</time>
      </trkpt>
      <trkpt lat="41.589658000" lon="1.735489000">
        <ele>632.10</ele>
        <time>2014-12-07T09:49:38Z</time>
      </trkpt>
      <trkpt lat="41.589604000" lon="1.735848000">
        <ele>635.50</ele>
        <time>2014-12-07T09:49:50Z</time>
      </trkpt>
      <trkpt lat="41.589554000" lon="1.736068000">
        <ele>637.50</ele>
        <time>2014-12-07T09:49:58Z</time>
      </trkpt>
      <trkpt lat="41.589541000" lon="1.736107000">
        <ele>637.90</ele>
        <time>2014-12-07T09:50:00Z</time>
      </trkpt>
      <trkpt lat="41.589407000" lon="1.736405000">
        <ele>640.60</ele>
        <time>2014-12-07T09:50:13Z</time>
      </trkpt>
      <trkpt lat="41.589378000" lon="1.736488000">
        <ele>641.70</ele>
        <time>2014-12-07T09:50:17Z</time>
      </trkpt>
      <trkpt lat="41.589295000" lon="1.736668000">
        <ele>645.00</ele>
        <time>2014-12-07T09:50:28Z</time>
      </trkpt>
      <trkpt lat="41.589084000" lon="1.736535000">
        <ele>648.70</ele>
        <time>2014-12-07T09:50:44Z</time>
      </trkpt>
      <trkpt lat="41.589016000" lon="1.736452000">
        <ele>650.30</ele>
        <time>2014-12-07T09:50:50Z</time>
      </trkpt>
      <trkpt lat="41.588848000" lon="1.736204000">
        <ele>653.60</ele>
        <time>2014-12-07T09:51:05Z</time>
      </trkpt>
      <trkpt lat="41.588711000" lon="1.735972000">
        <ele>656.90</ele>
        <time>2014-12-07T09:51:17Z</time>
      </trkpt>
      <trkpt lat="41.588589000" lon="1.735754000">
        <ele>660.10</ele>
        <time>2014-12-07T09:51:29Z</time>
      </trkpt>
      <trkpt lat="41.588512000" lon="1.735641000">
        <ele>661.20</ele>
        <time>2014-12-07T09:51:36Z</time>
      </trkpt>
      <trkpt lat="41.588353000" lon="1.735438000">
        <ele>664.60</ele>
        <time>2014-12-07T09:51:51Z</time>
      </trkpt>
      <trkpt lat="41.588255000" lon="1.735251000">
        <ele>667.80</ele>
        <time>2014-12-07T09:52:03Z</time>
      </trkpt>
      <trkpt lat="41.588171000" lon="1.735084000">
        <ele>670.90</ele>
        <time>2014-12-07T09:52:14Z</time>
      </trkpt>
      <trkpt lat="41.587966000" lon="1.734946000">
        <ele>673.00</ele>
        <time>2014-12-07T09:52:30Z</time>
      </trkpt>
      <trkpt lat="41.587707000" lon="1.734847000">
        <ele>675.10</ele>
        <time>2014-12-07T09:52:47Z</time>
      </trkpt>
      <trkpt lat="41.587551000" lon="1.734813000">
        <ele>676.40</ele>
        <time>2014-12-07T09:52:57Z</time>
      </trkpt>
      <trkpt lat="41.587387000" lon="1.734765000">
        <ele>678.10</ele>
        <time>2014-12-07T09:53:12Z</time>
      </trkpt>
      <trkpt lat="41.587351000" lon="1.734742000">
        <ele>677.80</ele>
        <time>2014-12-07T09:54:33Z</time>
      </trkpt>
      <trkpt lat="41.587317000" lon="1.734702000">
        <ele>678.00</ele>
        <time>2014-12-07T09:54:36Z</time>
      </trkpt>
      <trkpt lat="41.587273000" lon="1.734660000">
        <ele>678.20</ele>
        <time>2014-12-07T09:54:39Z</time>
      </trkpt>
      <trkpt lat="41.587194000" lon="1.734591000">
        <ele>678.70</ele>
        <time>2014-12-07T09:54:45Z</time>
      </trkpt>
      <trkpt lat="41.587052000" lon="1.734517000">
        <ele>678.60</ele>
        <time>2014-12-07T09:54:57Z</time>
      </trkpt>
      <trkpt lat="41.586873000" lon="1.734301000">
        <ele>677.70</ele>
        <time>2014-12-07T09:55:09Z</time>
      </trkpt>
      <trkpt lat="41.586672000" lon="1.734161000">
        <ele>678.80</ele>
        <time>2014-12-07T09:55:18Z</time>
      </trkpt>
      <trkpt lat="41.586643000" lon="1.734162000">
        <ele>678.30</ele>
        <time>2014-12-07T09:55:25Z</time>
      </trkpt>
      <trkpt lat="41.586451000" lon="1.734189000">
        <ele>678.40</ele>
        <time>2014-12-07T09:55:39Z</time>
      </trkpt>
      <trkpt lat="41.586306000" lon="1.734022000">
        <ele>678.40</ele>
        <time>2014-12-07T09:55:51Z</time>
      </trkpt>
      <trkpt lat="41.586287000" lon="1.733988000">
        <ele>678.50</ele>
        <time>2014-12-07T09:55:52Z</time>
      </trkpt>
      <trkpt lat="41.586076000" lon="1.733861000">
        <ele>678.70</ele>
        <time>2014-12-07T09:55:58Z</time>
      </trkpt>
      <trkpt lat="41.585734000" lon="1.733833000">
        <ele>680.30</ele>
        <time>2014-12-07T09:56:07Z</time>
      </trkpt>
      <trkpt lat="41.585699000" lon="1.733667000">
        <ele>680.20</ele>
        <time>2014-12-07T09:56:11Z</time>
      </trkpt>
      <trkpt lat="41.585726000" lon="1.733586000">
        <ele>680.30</ele>
        <time>2014-12-07T09:56:13Z</time>
      </trkpt>
      <trkpt lat="41.585897000" lon="1.733296000">
        <ele>680.10</ele>
        <time>2014-12-07T09:56:20Z</time>
      </trkpt>
      <trkpt lat="41.586066000" lon="1.733121000">
        <ele>680.30</ele>
        <time>2014-12-07T09:56:25Z</time>
      </trkpt>
      <trkpt lat="41.586336000" lon="1.732766000">
        <ele>681.70</ele>
        <time>2014-12-07T09:56:35Z</time>
      </trkpt>
      <trkpt lat="41.586092000" lon="1.732475000">
        <ele>682.60</ele>
        <time>2014-12-07T09:56:45Z</time>
      </trkpt>
      <trkpt lat="41.585692000" lon="1.732526000">
        <ele>683.20</ele>
        <time>2014-12-07T09:56:55Z</time>
      </trkpt>
      <trkpt lat="41.585613000" lon="1.732520000">
        <ele>683.40</ele>
        <time>2014-12-07T09:56:57Z</time>
      </trkpt>
      <trkpt lat="41.585353000" lon="1.732562000">
        <ele>683.50</ele>
        <time>2014-12-07T09:57:03Z</time>
      </trkpt>
      <trkpt lat="41.585197000" lon="1.732404000">
        <ele>683.20</ele>
        <time>2014-12-07T09:57:09Z</time>
      </trkpt>
      <trkpt lat="41.585019000" lon="1.732234000">
        <ele>683.60</ele>
        <time>2014-12-07T09:57:17Z</time>
      </trkpt>
      <trkpt lat="41.584860000" lon="1.732364000">
        <ele>684.60</ele>
        <time>2014-12-07T09:57:22Z</time>
      </trkpt>
      <trkpt lat="41.584695000" lon="1.732400000">
        <ele>685.00</ele>
        <time>2014-12-07T09:57:26Z</time>
      </trkpt>
      <trkpt lat="41.584552000" lon="1.732302000">
        <ele>685.30</ele>
        <time>2014-12-07T09:57:30Z</time>
      </trkpt>
      <trkpt lat="41.584323000" lon="1.731946000">
        <ele>686.50</ele>
        <time>2014-12-07T09:57:39Z</time>
      </trkpt>
      <trkpt lat="41.584279000" lon="1.731793000">
        <ele>686.60</ele>
        <time>2014-12-07T09:57:42Z</time>
      </trkpt>
      <trkpt lat="41.584122000" lon="1.731623000">
        <ele>686.40</ele>
        <time>2014-12-07T09:57:47Z</time>
      </trkpt>
      <trkpt lat="41.583953000" lon="1.731382000">
        <ele>686.90</ele>
        <time>2014-12-07T09:57:53Z</time>
      </trkpt>
      <trkpt lat="41.583844000" lon="1.731023000">
        <ele>687.40</ele>
        <time>2014-12-07T09:58:00Z</time>
      </trkpt>
      <trkpt lat="41.583714000" lon="1.730778000">
        <ele>687.20</ele>
        <time>2014-12-07T09:58:05Z</time>
      </trkpt>
      <trkpt lat="41.583592000" lon="1.730511000">
        <ele>687.20</ele>
        <time>2014-12-07T09:58:10Z</time>
      </trkpt>
      <trkpt lat="41.583514000" lon="1.730240000">
        <ele>687.50</ele>
        <time>2014-12-07T09:58:15Z</time>
      </trkpt>
      <trkpt lat="41.583364000" lon="1.730321000">
        <ele>686.70</ele>
        <time>2014-12-07T09:58:20Z</time>
      </trkpt>
      <trkpt lat="41.583304000" lon="1.730403000">
        <ele>686.40</ele>
        <time>2014-12-07T09:58:22Z</time>
      </trkpt>
      <trkpt lat="41.583203000" lon="1.730498000">
        <ele>687.10</ele>
        <time>2014-12-07T09:58:25Z</time>
      </trkpt>
      <trkpt lat="41.583103000" lon="1.730591000">
        <ele>688.10</ele>
        <time>2014-12-07T09:58:28Z</time>
      </trkpt>
      <trkpt lat="41.582981000" lon="1.730767000">
        <ele>687.40</ele>
        <time>2014-12-07T09:58:32Z</time>
      </trkpt>
      <trkpt lat="41.582840000" lon="1.731114000">
        <ele>685.70</ele>
        <time>2014-12-07T09:58:38Z</time>
      </trkpt>
      <trkpt lat="41.582821000" lon="1.731257000">
        <ele>684.90</ele>
        <time>2014-12-07T09:58:40Z</time>
      </trkpt>
      <trkpt lat="41.582829000" lon="1.731476000">
        <ele>683.20</ele>
        <time>2014-12-07T09:58:43Z</time>
      </trkpt>
      <trkpt lat="41.582650000" lon="1.731607000">
        <ele>682.30</ele>
        <time>2014-12-07T09:58:48Z</time>
      </trkpt>
      <trkpt lat="41.582381000" lon="1.731607000">
        <ele>682.10</ele>
        <time>2014-12-07T09:58:54Z</time>
      </trkpt>
      <trkpt lat="41.582270000" lon="1.731532000">
        <ele>681.30</ele>
        <time>2014-12-07T09:58:57Z</time>
      </trkpt>
      <trkpt lat="41.582154000" lon="1.731255000">
        <ele>682.50</ele>
        <time>2014-12-07T09:59:02Z</time>
      </trkpt>
      <trkpt lat="41.582015000" lon="1.731014000">
        <ele>685.80</ele>
        <time>2014-12-07T09:59:08Z</time>
      </trkpt>
      <trkpt lat="41.581973000" lon="1.730928000">
        <ele>686.50</ele>
        <time>2014-12-07T09:59:10Z</time>
      </trkpt>
      <trkpt lat="41.581909000" lon="1.730670000">
        <ele>686.50</ele>
        <time>2014-12-07T09:59:15Z</time>
      </trkpt>
      <trkpt lat="41.581838000" lon="1.730490000">
        <ele>688.00</ele>
        <time>2014-12-07T09:59:19Z</time>
      </trkpt>
      <trkpt lat="41.581634000" lon="1.730041000">
        <ele>691.30</ele>
        <time>2014-12-07T09:59:32Z</time>
      </trkpt>
      <trkpt lat="41.581569000" lon="1.729926000">
        <ele>692.40</ele>
        <time>2014-12-07T09:59:36Z</time>
      </trkpt>
      <trkpt lat="41.581518000" lon="1.729876000">
        <ele>692.80</ele>
        <time>2014-12-07T09:59:40Z</time>
      </trkpt>
      <trkpt lat="41.581493000" lon="1.729855000">
        <ele>692.70</ele>
        <time>2014-12-07T09:59:42Z</time>
      </trkpt>
      <trkpt lat="41.581496000" lon="1.729891000">
        <ele>693.20</ele>
        <time>2014-12-07T09:59:56Z</time>
      </trkpt>
      <trkpt lat="41.581498000" lon="1.729893000">
        <ele>693.50</ele>
        <time>2014-12-07T10:00:55Z</time>
      </trkpt>
      <trkpt lat="41.581489000" lon="1.729789000">
        <ele>692.70</ele>
        <time>2014-12-07T10:03:24Z</time>
      </trkpt>
      <trkpt lat="41.581494000" lon="1.729754000">
        <ele>692.10</ele>
        <time>2014-12-07T10:03:27Z</time>
      </trkpt>
      <trkpt lat="41.581505000" lon="1.729645000">
        <ele>690.70</ele>
        <time>2014-12-07T10:03:31Z</time>
      </trkpt>
      <trkpt lat="41.581531000" lon="1.729386000">
        <ele>687.10</ele>
        <time>2014-12-07T10:03:36Z</time>
      </trkpt>
      <trkpt lat="41.581555000" lon="1.729092000">
        <ele>683.10</ele>
        <time>2014-12-07T10:03:40Z</time>
      </trkpt>
      <trkpt lat="41.581568000" lon="1.728780000">
        <ele>679.10</ele>
        <time>2014-12-07T10:03:43Z</time>
      </trkpt>
      <trkpt lat="41.581569000" lon="1.728661000">
        <ele>679.00</ele>
        <time>2014-12-07T10:03:44Z</time>
      </trkpt>
      <trkpt lat="41.581571000" lon="1.728355000">
        <ele>677.00</ele>
        <time>2014-12-07T10:03:47Z</time>
      </trkpt>
      <trkpt lat="41.581567000" lon="1.728150000">
        <ele>675.90</ele>
        <time>2014-12-07T10:03:52Z</time>
      </trkpt>
      <trkpt lat="41.581533000" lon="1.728135000">
        <ele>676.20</ele>
        <time>2014-12-07T10:03:55Z</time>
      </trkpt>
      <trkpt lat="41.581520000" lon="1.728191000">
        <ele>675.60</ele>
        <time>2014-12-07T10:03:58Z</time>
      </trkpt>
      <trkpt lat="41.581478000" lon="1.728424000">
        <ele>674.70</ele>
        <time>2014-12-07T10:04:03Z</time>
      </trkpt>
      <trkpt lat="41.581403000" lon="1.728719000">
        <ele>675.00</ele>
        <time>2014-12-07T10:04:09Z</time>
      </trkpt>
      <trkpt lat="41.581343000" lon="1.728894000">
        <ele>673.40</ele>
        <time>2014-12-07T10:04:12Z</time>
      </trkpt>
      <trkpt lat="41.581172000" lon="1.729134000">
        <ele>668.90</ele>
        <time>2014-12-07T10:04:17Z</time>
      </trkpt>
      <trkpt lat="41.581136000" lon="1.729184000">
        <ele>668.60</ele>
        <time>2014-12-07T10:04:18Z</time>
      </trkpt>
      <trkpt lat="41.580851000" lon="1.729835000">
        <ele>666.00</ele>
        <time>2014-12-07T10:04:28Z</time>
      </trkpt>
      <trkpt lat="41.580763000" lon="1.730146000">
        <ele>665.80</ele>
        <time>2014-12-07T10:04:33Z</time>
      </trkpt>
      <trkpt lat="41.580754000" lon="1.730324000">
        <ele>666.30</ele>
        <time>2014-12-07T10:04:36Z</time>
      </trkpt>
      <trkpt lat="41.580586000" lon="1.730359000">
        <ele>665.30</ele>
        <time>2014-12-07T10:04:42Z</time>
      </trkpt>
      <trkpt lat="41.580543000" lon="1.730263000">
        <ele>665.70</ele>
        <time>2014-12-07T10:04:44Z</time>
      </trkpt>
      <trkpt lat="41.580446000" lon="1.729806000">
        <ele>662.30</ele>
        <time>2014-12-07T10:04:53Z</time>
      </trkpt>
      <trkpt lat="41.580401000" lon="1.729499000">
        <ele>659.30</ele>
        <time>2014-12-07T10:04:58Z</time>
      </trkpt>
      <trkpt lat="41.580349000" lon="1.729217000">
        <ele>658.60</ele>
        <time>2014-12-07T10:05:02Z</time>
      </trkpt>
      <trkpt lat="41.580292000" lon="1.728883000">
        <ele>657.60</ele>
        <time>2014-12-07T10:05:07Z</time>
      </trkpt>
      <trkpt lat="41.580227000" lon="1.728620000">
        <ele>656.80</ele>
        <time>2014-12-07T10:05:11Z</time>
      </trkpt>
      <trkpt lat="41.580073000" lon="1.728211000">
        <ele>655.20</ele>
        <time>2014-12-07T10:05:17Z</time>
      </trkpt>
      <trkpt lat="41.579793000" lon="1.727759000">
        <ele>651.80</ele>
        <time>2014-12-07T10:05:24Z</time>
      </trkpt>
      <trkpt lat="41.579650000" lon="1.727492000">
        <ele>652.70</ele>
        <time>2014-12-07T10:05:28Z</time>
      </trkpt>
      <trkpt lat="41.579387000" lon="1.727085000">
        <ele>651.90</ele>
        <time>2014-12-07T10:05:36Z</time>
      </trkpt>
      <trkpt lat="41.579234000" lon="1.726917000">
        <ele>651.50</ele>
        <time>2014-12-07T10:05:40Z</time>
      </trkpt>
      <trkpt lat="41.578981000" lon="1.726725000">
        <ele>651.90</ele>
        <time>2014-12-07T10:05:46Z</time>
      </trkpt>
      <trkpt lat="41.578792000" lon="1.726633000">
        <ele>651.20</ele>
        <time>2014-12-07T10:05:50Z</time>
      </trkpt>
      <trkpt lat="41.578545000" lon="1.726892000">
        <ele>648.60</ele>
        <time>2014-12-07T10:05:57Z</time>
      </trkpt>
      <trkpt lat="41.578510000" lon="1.726955000">
        <ele>648.30</ele>
        <time>2014-12-07T10:05:58Z</time>
      </trkpt>
      <trkpt lat="41.578196000" lon="1.727219000">
        <ele>645.50</ele>
        <time>2014-12-07T10:06:04Z</time>
      </trkpt>
      <trkpt lat="41.578051000" lon="1.727278000">
        <ele>645.80</ele>
        <time>2014-12-07T10:06:07Z</time>
      </trkpt>
      <trkpt lat="41.578055000" lon="1.727520000">
        <ele>645.10</ele>
        <time>2014-12-07T10:06:12Z</time>
      </trkpt>
      <trkpt lat="41.578345000" lon="1.728048000">
        <ele>644.30</ele>
        <time>2014-12-07T10:06:23Z</time>
      </trkpt>
      <trkpt lat="41.578445000" lon="1.728207000">
        <ele>644.80</ele>
        <time>2014-12-07T10:06:27Z</time>
      </trkpt>
      <trkpt lat="41.578350000" lon="1.728516000">
        <ele>644.40</ele>
        <time>2014-12-07T10:06:33Z</time>
      </trkpt>
      <trkpt lat="41.578010000" lon="1.729022000">
        <ele>645.00</ele>
        <time>2014-12-07T10:06:45Z</time>
      </trkpt>
      <trkpt lat="41.578047000" lon="1.729302000">
        <ele>644.30</ele>
        <time>2014-12-07T10:06:50Z</time>
      </trkpt>
      <trkpt lat="41.578248000" lon="1.729816000">
        <ele>644.30</ele>
        <time>2014-12-07T10:06:59Z</time>
      </trkpt>
      <trkpt lat="41.578358000" lon="1.730068000">
        <ele>643.20</ele>
        <time>2014-12-07T10:07:04Z</time>
      </trkpt>
      <trkpt lat="41.578288000" lon="1.730547000">
        <ele>644.30</ele>
        <time>2014-12-07T10:07:14Z</time>
      </trkpt>
      <trkpt lat="41.578308000" lon="1.730658000">
        <ele>643.80</ele>
        <time>2014-12-07T10:07:16Z</time>
      </trkpt>
      <trkpt lat="41.578177000" lon="1.730743000">
        <ele>643.90</ele>
        <time>2014-12-07T10:07:21Z</time>
      </trkpt>
      <trkpt lat="41.577823000" lon="1.730427000">
        <ele>644.10</ele>
        <time>2014-12-07T10:07:32Z</time>
      </trkpt>
      <trkpt lat="41.577305000" lon="1.730248000">
        <ele>642.40</ele>
        <time>2014-12-07T10:07:46Z</time>
      </trkpt>
      <trkpt lat="41.576930000" lon="1.729999000">
        <ele>642.50</ele>
        <time>2014-12-07T10:07:55Z</time>
      </trkpt>
      <trkpt lat="41.576743000" lon="1.729861000">
        <ele>644.10</ele>
        <time>2014-12-07T10:08:00Z</time>
      </trkpt>
      <trkpt lat="41.576637000" lon="1.729751000">
        <ele>643.40</ele>
        <time>2014-12-07T10:08:03Z</time>
      </trkpt>
      <trkpt lat="41.576533000" lon="1.729649000">
        <ele>643.20</ele>
        <time>2014-12-07T10:08:06Z</time>
      </trkpt>
      <trkpt lat="41.576430000" lon="1.729533000">
        <ele>643.50</ele>
        <time>2014-12-07T10:08:09Z</time>
      </trkpt>
      <trkpt lat="41.576318000" lon="1.729435000">
        <ele>645.10</ele>
        <time>2014-12-07T10:08:12Z</time>
      </trkpt>
      <trkpt lat="41.576202000" lon="1.729362000">
        <ele>645.50</ele>
        <time>2014-12-07T10:08:15Z</time>
      </trkpt>
      <trkpt lat="41.575947000" lon="1.729227000">
        <ele>645.90</ele>
        <time>2014-12-07T10:08:22Z</time>
      </trkpt>
      <trkpt lat="41.575737000" lon="1.729314000">
        <ele>646.30</ele>
        <time>2014-12-07T10:08:27Z</time>
      </trkpt>
      <trkpt lat="41.575652000" lon="1.729779000">
        <ele>644.90</ele>
        <time>2014-12-07T10:08:35Z</time>
      </trkpt>
      <trkpt lat="41.575672000" lon="1.729911000">
        <ele>644.30</ele>
        <time>2014-12-07T10:08:37Z</time>
      </trkpt>
      <trkpt lat="41.575778000" lon="1.730266000">
        <ele>641.60</ele>
        <time>2014-12-07T10:08:42Z</time>
      </trkpt>
      <trkpt lat="41.576014000" lon="1.730705000">
        <ele>640.40</ele>
        <time>2014-12-07T10:08:52Z</time>
      </trkpt>
      <trkpt lat="41.576153000" lon="1.730932000">
        <ele>639.90</ele>
        <time>2014-12-07T10:08:57Z</time>
      </trkpt>
      <trkpt lat="41.576265000" lon="1.731042000">
        <ele>639.60</ele>
        <time>2014-12-07T10:09:00Z</time>
      </trkpt>
      <trkpt lat="41.576406000" lon="1.731195000">
        <ele>639.80</ele>
        <time>2014-12-07T10:09:04Z</time>
      </trkpt>
      <trkpt lat="41.576542000" lon="1.731369000">
        <ele>639.60</ele>
        <time>2014-12-07T10:09:08Z</time>
      </trkpt>
      <trkpt lat="41.576735000" lon="1.731868000">
        <ele>640.40</ele>
        <time>2014-12-07T10:09:17Z</time>
      </trkpt>
      <trkpt lat="41.576836000" lon="1.732402000">
        <ele>640.60</ele>
        <time>2014-12-07T10:09:27Z</time>
      </trkpt>
      <trkpt lat="41.576978000" lon="1.732926000">
        <ele>639.60</ele>
        <time>2014-12-07T10:09:38Z</time>
      </trkpt>
      <trkpt lat="41.576936000" lon="1.733201000">
        <ele>640.50</ele>
        <time>2014-12-07T10:09:44Z</time>
      </trkpt>
      <trkpt lat="41.577105000" lon="1.733694000">
        <ele>640.90</ele>
        <time>2014-12-07T10:09:57Z</time>
      </trkpt>
      <trkpt lat="41.577249000" lon="1.733789000">
        <ele>641.00</ele>
        <time>2014-12-07T10:10:03Z</time>
      </trkpt>
      <trkpt lat="41.577197000" lon="1.733970000">
        <ele>641.10</ele>
        <time>2014-12-07T10:10:09Z</time>
      </trkpt>
      <trkpt lat="41.576641000" lon="1.734172000">
        <ele>640.50</ele>
        <time>2014-12-07T10:10:25Z</time>
      </trkpt>
      <trkpt lat="41.576537000" lon="1.734004000">
        <ele>641.00</ele>
        <time>2014-12-07T10:10:31Z</time>
      </trkpt>
      <trkpt lat="41.576515000" lon="1.733897000">
        <ele>639.80</ele>
        <time>2014-12-07T10:10:33Z</time>
      </trkpt>
      <trkpt lat="41.576469000" lon="1.733778000">
        <ele>639.10</ele>
        <time>2014-12-07T10:10:35Z</time>
      </trkpt>
      <trkpt lat="41.576291000" lon="1.733552000">
        <ele>638.00</ele>
        <time>2014-12-07T10:10:40Z</time>
      </trkpt>
      <trkpt lat="41.576060000" lon="1.733152000">
        <ele>635.00</ele>
        <time>2014-12-07T10:10:46Z</time>
      </trkpt>
      <trkpt lat="41.575815000" lon="1.732874000">
        <ele>633.10</ele>
        <time>2014-12-07T10:10:50Z</time>
      </trkpt>
      <trkpt lat="41.575601000" lon="1.732744000">
        <ele>631.30</ele>
        <time>2014-12-07T10:10:53Z</time>
      </trkpt>
      <trkpt lat="41.575522000" lon="1.732723000">
        <ele>631.60</ele>
        <time>2014-12-07T10:10:54Z</time>
      </trkpt>
      <trkpt lat="41.574976000" lon="1.732581000">
        <ele>632.50</ele>
        <time>2014-12-07T10:11:01Z</time>
      </trkpt>
      <trkpt lat="41.574770000" lon="1.732619000">
        <ele>633.90</ele>
        <time>2014-12-07T10:11:05Z</time>
      </trkpt>
      <trkpt lat="41.574667000" lon="1.732742000">
        <ele>634.20</ele>
        <time>2014-12-07T10:11:08Z</time>
      </trkpt>
      <trkpt lat="41.574614000" lon="1.732843000">
        <ele>634.20</ele>
        <time>2014-12-07T10:11:10Z</time>
      </trkpt>
      <trkpt lat="41.574432000" lon="1.732809000">
        <ele>635.30</ele>
        <time>2014-12-07T10:11:15Z</time>
      </trkpt>
      <trkpt lat="41.574005000" lon="1.732589000">
        <ele>638.70</ele>
        <time>2014-12-07T10:11:35Z</time>
      </trkpt>
      <trkpt lat="41.573785000" lon="1.732756000">
        <ele>640.40</ele>
        <time>2014-12-07T10:11:46Z</time>
      </trkpt>
      <trkpt lat="41.573777000" lon="1.732809000">
        <ele>639.50</ele>
        <time>2014-12-07T10:11:47Z</time>
      </trkpt>
      <trkpt lat="41.573684000" lon="1.732986000">
        <ele>635.30</ele>
        <time>2014-12-07T10:11:50Z</time>
      </trkpt>
      <trkpt lat="41.573585000" lon="1.733074000">
        <ele>633.40</ele>
        <time>2014-12-07T10:11:52Z</time>
      </trkpt>
      <trkpt lat="41.573288000" lon="1.733356000">
        <ele>626.40</ele>
        <time>2014-12-07T10:11:57Z</time>
      </trkpt>
      <trkpt lat="41.573063000" lon="1.733437000">
        <ele>623.20</ele>
        <time>2014-12-07T10:12:00Z</time>
      </trkpt>
      <trkpt lat="41.572869000" lon="1.733544000">
        <ele>620.80</ele>
        <time>2014-12-07T10:12:03Z</time>
      </trkpt>
      <trkpt lat="41.572743000" lon="1.733934000">
        <ele>615.30</ele>
        <time>2014-12-07T10:12:08Z</time>
      </trkpt>
      <trkpt lat="41.572761000" lon="1.734021000">
        <ele>614.40</ele>
        <time>2014-12-07T10:12:09Z</time>
      </trkpt>
      <trkpt lat="41.572846000" lon="1.734276000">
        <ele>612.60</ele>
        <time>2014-12-07T10:12:12Z</time>
      </trkpt>
      <trkpt lat="41.572765000" lon="1.734514000">
        <ele>611.60</ele>
        <time>2014-12-07T10:12:17Z</time>
      </trkpt>
      <trkpt lat="41.572514000" lon="1.734551000">
        <ele>609.00</ele>
        <time>2014-12-07T10:12:21Z</time>
      </trkpt>
      <trkpt lat="41.572309000" lon="1.734371000">
        <ele>607.70</ele>
        <time>2014-12-07T10:12:25Z</time>
      </trkpt>
      <trkpt lat="41.571865000" lon="1.733984000">
        <ele>609.40</ele>
        <time>2014-12-07T10:12:33Z</time>
      </trkpt>
      <trkpt lat="41.571639000" lon="1.733913000">
        <ele>610.70</ele>
        <time>2014-12-07T10:12:37Z</time>
      </trkpt>
      <trkpt lat="41.571488000" lon="1.733762000">
        <ele>611.30</ele>
        <time>2014-12-07T10:12:41Z</time>
      </trkpt>
      <trkpt lat="41.571402000" lon="1.733602000">
        <ele>610.80</ele>
        <time>2014-12-07T10:12:44Z</time>
      </trkpt>
      <trkpt lat="41.571124000" lon="1.733545000">
        <ele>607.80</ele>
        <time>2014-12-07T10:12:50Z</time>
      </trkpt>
      <trkpt lat="41.571050000" lon="1.733695000">
        <ele>606.70</ele>
        <time>2014-12-07T10:12:52Z</time>
      </trkpt>
      <trkpt lat="41.570982000" lon="1.733979000">
        <ele>603.80</ele>
        <time>2014-12-07T10:12:55Z</time>
      </trkpt>
      <trkpt lat="41.570728000" lon="1.734141000">
        <ele>600.50</ele>
        <time>2014-12-07T10:13:00Z</time>
      </trkpt>
      <trkpt lat="41.570603000" lon="1.734057000">
        <ele>598.40</ele>
        <time>2014-12-07T10:13:02Z</time>
      </trkpt>
      <trkpt lat="41.570460000" lon="1.733992000">
        <ele>597.80</ele>
        <time>2014-12-07T10:13:04Z</time>
      </trkpt>
      <trkpt lat="41.570312000" lon="1.733919000">
        <ele>597.10</ele>
        <time>2014-12-07T10:13:06Z</time>
      </trkpt>
      <trkpt lat="41.570158000" lon="1.733830000">
        <ele>595.40</ele>
        <time>2014-12-07T10:13:08Z</time>
      </trkpt>
      <trkpt lat="41.569922000" lon="1.733663000">
        <ele>592.00</ele>
        <time>2014-12-07T10:13:11Z</time>
      </trkpt>
      <trkpt lat="41.569434000" lon="1.733827000">
        <ele>592.70</ele>
        <time>2014-12-07T10:13:18Z</time>
      </trkpt>
      <trkpt lat="41.569155000" lon="1.734489000">
        <ele>589.00</ele>
        <time>2014-12-07T10:13:25Z</time>
      </trkpt>
      <trkpt lat="41.569213000" lon="1.735124000">
        <ele>585.80</ele>
        <time>2014-12-07T10:13:31Z</time>
      </trkpt>
      <trkpt lat="41.569401000" lon="1.735297000">
        <ele>585.30</ele>
        <time>2014-12-07T10:13:34Z</time>
      </trkpt>
      <trkpt lat="41.569515000" lon="1.735584000">
        <ele>582.80</ele>
        <time>2014-12-07T10:13:39Z</time>
      </trkpt>
      <trkpt lat="41.569317000" lon="1.735731000">
        <ele>580.20</ele>
        <time>2014-12-07T10:13:43Z</time>
      </trkpt>
      <trkpt lat="41.569153000" lon="1.735863000">
        <ele>579.30</ele>
        <time>2014-12-07T10:13:48Z</time>
      </trkpt>
      <trkpt lat="41.568985000" lon="1.736024000">
        <ele>579.90</ele>
        <time>2014-12-07T10:13:53Z</time>
      </trkpt>
      <trkpt lat="41.568873000" lon="1.736242000">
        <ele>580.30</ele>
        <time>2014-12-07T10:13:58Z</time>
      </trkpt>
      <trkpt lat="41.568815000" lon="1.736486000">
        <ele>580.30</ele>
        <time>2014-12-07T10:14:02Z</time>
      </trkpt>
      <trkpt lat="41.568804000" lon="1.736610000">
        <ele>579.90</ele>
        <time>2014-12-07T10:14:04Z</time>
      </trkpt>
      <trkpt lat="41.568807000" lon="1.736805000">
        <ele>580.10</ele>
        <time>2014-12-07T10:14:07Z</time>
      </trkpt>
      <trkpt lat="41.569065000" lon="1.737011000">
        <ele>581.40</ele>
        <time>2014-12-07T10:14:15Z</time>
      </trkpt>
      <trkpt lat="41.569145000" lon="1.736978000">
        <ele>581.10</ele>
        <time>2014-12-07T10:14:17Z</time>
      </trkpt>
      <trkpt lat="41.569221000" lon="1.736926000">
        <ele>581.40</ele>
        <time>2014-12-07T10:14:19Z</time>
      </trkpt>
      <trkpt lat="41.569594000" lon="1.736992000">
        <ele>579.20</ele>
        <time>2014-12-07T10:14:29Z</time>
      </trkpt>
      <trkpt lat="41.569539000" lon="1.737056000">
        <ele>578.50</ele>
        <time>2014-12-07T10:14:31Z</time>
      </trkpt>
      <trkpt lat="41.569370000" lon="1.737471000">
        <ele>572.70</ele>
        <time>2014-12-07T10:14:36Z</time>
      </trkpt>
      <trkpt lat="41.569355000" lon="1.737567000">
        <ele>571.70</ele>
        <time>2014-12-07T10:14:37Z</time>
      </trkpt>
      <trkpt lat="41.569382000" lon="1.737826000">
        <ele>567.30</ele>
        <time>2014-12-07T10:14:40Z</time>
      </trkpt>
      <trkpt lat="41.569389000" lon="1.737905000">
        <ele>566.90</ele>
        <time>2014-12-07T10:14:41Z</time>
      </trkpt>
      <trkpt lat="41.569221000" lon="1.738066000">
        <ele>562.70</ele>
        <time>2014-12-07T10:14:45Z</time>
      </trkpt>
      <trkpt lat="41.568756000" lon="1.738215000">
        <ele>556.50</ele>
        <time>2014-12-07T10:14:51Z</time>
      </trkpt>
      <trkpt lat="41.568484000" lon="1.738230000">
        <ele>554.40</ele>
        <time>2014-12-07T10:14:54Z</time>
      </trkpt>
      <trkpt lat="41.568387000" lon="1.738244000">
        <ele>551.00</ele>
        <time>2014-12-07T10:14:55Z</time>
      </trkpt>
      <trkpt lat="41.567988000" lon="1.738337000">
        <ele>547.80</ele>
        <time>2014-12-07T10:14:59Z</time>
      </trkpt>
      <trkpt lat="41.567571000" lon="1.738375000">
        <ele>543.90</ele>
        <time>2014-12-07T10:15:03Z</time>
      </trkpt>
      <trkpt lat="41.567156000" lon="1.738532000">
        <ele>540.70</ele>
        <time>2014-12-07T10:15:07Z</time>
      </trkpt>
      <trkpt lat="41.566984000" lon="1.738641000">
        <ele>540.80</ele>
        <time>2014-12-07T10:15:09Z</time>
      </trkpt>
      <trkpt lat="41.566717000" lon="1.738699000">
        <ele>535.90</ele>
        <time>2014-12-07T10:15:13Z</time>
      </trkpt>
      <trkpt lat="41.566632000" lon="1.738676000">
        <ele>534.70</ele>
        <time>2014-12-07T10:15:14Z</time>
      </trkpt>
      <trkpt lat="41.566359000" lon="1.738581000">
        <ele>530.80</ele>
        <time>2014-12-07T10:15:17Z</time>
      </trkpt>
      <trkpt lat="41.565937000" lon="1.738535000">
        <ele>526.80</ele>
        <time>2014-12-07T10:15:21Z</time>
      </trkpt>
      <trkpt lat="41.565717000" lon="1.738526000">
        <ele>521.90</ele>
        <time>2014-12-07T10:15:23Z</time>
      </trkpt>
      <trkpt lat="41.565360000" lon="1.738561000">
        <ele>518.70</ele>
        <time>2014-12-07T10:15:26Z</time>
      </trkpt>
      <trkpt lat="41.565249000" lon="1.738583000">
        <ele>518.80</ele>
        <time>2014-12-07T10:15:27Z</time>
      </trkpt>
      <trkpt lat="41.564786000" lon="1.738911000">
        <ele>514.70</ele>
        <time>2014-12-07T10:15:32Z</time>
      </trkpt>
      <trkpt lat="41.564641000" lon="1.739277000">
        <ele>512.30</ele>
        <time>2014-12-07T10:15:35Z</time>
      </trkpt>
      <trkpt lat="41.564254000" lon="1.740041000">
        <ele>511.40</ele>
        <time>2014-12-07T10:15:42Z</time>
      </trkpt>
      <trkpt lat="41.564009000" lon="1.740268000">
        <ele>508.10</ele>
        <time>2014-12-07T10:15:45Z</time>
      </trkpt>
      <trkpt lat="41.563924000" lon="1.740342000">
        <ele>508.00</ele>
        <time>2014-12-07T10:15:46Z</time>
      </trkpt>
      <trkpt lat="41.563744000" lon="1.740475000">
        <ele>505.40</ele>
        <time>2014-12-07T10:15:48Z</time>
      </trkpt>
      <trkpt lat="41.563502000" lon="1.740744000">
        <ele>501.00</ele>
        <time>2014-12-07T10:15:51Z</time>
      </trkpt>
      <trkpt lat="41.563285000" lon="1.741099000">
        <ele>496.90</ele>
        <time>2014-12-07T10:15:54Z</time>
      </trkpt>
      <trkpt lat="41.563138000" lon="1.741349000">
        <ele>493.40</ele>
        <time>2014-12-07T10:15:56Z</time>
      </trkpt>
      <trkpt lat="41.562966000" lon="1.741697000">
        <ele>491.90</ele>
        <time>2014-12-07T10:15:59Z</time>
      </trkpt>
      <trkpt lat="41.562792000" lon="1.741893000">
        <ele>488.10</ele>
        <time>2014-12-07T10:16:02Z</time>
      </trkpt>
      <trkpt lat="41.562645000" lon="1.742027000">
        <ele>484.50</ele>
        <time>2014-12-07T10:16:04Z</time>
      </trkpt>
      <trkpt lat="41.562441000" lon="1.742320000">
        <ele>479.90</ele>
        <time>2014-12-07T10:16:07Z</time>
      </trkpt>
      <trkpt lat="41.562090000" lon="1.742273000">
        <ele>477.80</ele>
        <time>2014-12-07T10:16:13Z</time>
      </trkpt>
      <trkpt lat="41.561970000" lon="1.742304000">
        <ele>477.20</ele>
        <time>2014-12-07T10:16:15Z</time>
      </trkpt>
      <trkpt lat="41.561673000" lon="1.742327000">
        <ele>474.80</ele>
        <time>2014-12-07T10:16:19Z</time>
      </trkpt>
      <trkpt lat="41.561426000" lon="1.742428000">
        <ele>471.00</ele>
        <time>2014-12-07T10:16:22Z</time>
      </trkpt>
      <trkpt lat="41.561165000" lon="1.742460000">
        <ele>469.60</ele>
        <time>2014-12-07T10:16:25Z</time>
      </trkpt>
      <trkpt lat="41.561094000" lon="1.742437000">
        <ele>469.70</ele>
        <time>2014-12-07T10:16:26Z</time>
      </trkpt>
      <trkpt lat="41.560970000" lon="1.742414000">
        <ele>466.80</ele>
        <time>2014-12-07T10:16:28Z</time>
      </trkpt>
      <trkpt lat="41.560755000" lon="1.742560000">
        <ele>461.40</ele>
        <time>2014-12-07T10:16:32Z</time>
      </trkpt>
      <trkpt lat="41.560704000" lon="1.742613000">
        <ele>459.60</ele>
        <time>2014-12-07T10:16:33Z</time>
      </trkpt>
      <trkpt lat="41.560424000" lon="1.742731000">
        <ele>453.80</ele>
        <time>2014-12-07T10:16:37Z</time>
      </trkpt>
      <trkpt lat="41.560346000" lon="1.742773000">
        <ele>451.60</ele>
        <time>2014-12-07T10:16:38Z</time>
      </trkpt>
      <trkpt lat="41.560107000" lon="1.742951000">
        <ele>447.90</ele>
        <time>2014-12-07T10:16:41Z</time>
      </trkpt>
      <trkpt lat="41.559983000" lon="1.743087000">
        <ele>446.70</ele>
        <time>2014-12-07T10:16:43Z</time>
      </trkpt>
      <trkpt lat="41.559870000" lon="1.743252000">
        <ele>444.30</ele>
        <time>2014-12-07T10:16:45Z</time>
      </trkpt>
      <trkpt lat="41.559557000" lon="1.743599000">
        <ele>442.90</ele>
        <time>2014-12-07T10:16:50Z</time>
      </trkpt>
      <trkpt lat="41.559266000" lon="1.743741000">
        <ele>442.70</ele>
        <time>2014-12-07T10:16:54Z</time>
      </trkpt>
      <trkpt lat="41.559057000" lon="1.743738000">
        <ele>440.00</ele>
        <time>2014-12-07T10:16:57Z</time>
      </trkpt>
      <trkpt lat="41.558878000" lon="1.743859000">
        <ele>438.50</ele>
        <time>2014-12-07T10:17:00Z</time>
      </trkpt>
      <trkpt lat="41.558847000" lon="1.743946000">
        <ele>438.20</ele>
        <time>2014-12-07T10:17:01Z</time>
      </trkpt>
      <trkpt lat="41.558654000" lon="1.744104000">
        <ele>436.30</ele>
        <time>2014-12-07T10:17:06Z</time>
      </trkpt>
      <trkpt lat="41.558458000" lon="1.743994000">
        <ele>432.60</ele>
        <time>2014-12-07T10:17:09Z</time>
      </trkpt>
      <trkpt lat="41.558242000" lon="1.743930000">
        <ele>428.80</ele>
        <time>2014-12-07T10:17:12Z</time>
      </trkpt>
      <trkpt lat="41.558026000" lon="1.743818000">
        <ele>425.00</ele>
        <time>2014-12-07T10:17:15Z</time>
      </trkpt>
      <trkpt lat="41.557806000" lon="1.743647000">
        <ele>420.70</ele>
        <time>2014-12-07T10:17:18Z</time>
      </trkpt>
      <trkpt lat="41.557640000" lon="1.743587000">
        <ele>418.90</ele>
        <time>2014-12-07T10:17:20Z</time>
      </trkpt>
      <trkpt lat="41.557368000" lon="1.743837000">
        <ele>419.00</ele>
        <time>2014-12-07T10:17:27Z</time>
      </trkpt>
      <trkpt lat="41.557044000" lon="1.744166000">
        <ele>418.70</ele>
        <time>2014-12-07T10:17:39Z</time>
      </trkpt>
      <trkpt lat="41.556869000" lon="1.744352000">
        <ele>418.30</ele>
        <time>2014-12-07T10:17:51Z</time>
      </trkpt>
      <trkpt lat="41.556673000" lon="1.744668000">
        <ele>417.90</ele>
        <time>2014-12-07T10:18:06Z</time>
      </trkpt>
      <trkpt lat="41.556370000" lon="1.744900000">
        <ele>417.40</ele>
        <time>2014-12-07T10:18:20Z</time>
      </trkpt>
      <trkpt lat="41.556006000" lon="1.745178000">
        <ele>416.50</ele>
        <time>2014-12-07T10:18:35Z</time>
      </trkpt>
      <trkpt lat="41.555598000" lon="1.745386000">
        <ele>416.20</ele>
        <time>2014-12-07T10:18:52Z</time>
      </trkpt>
      <trkpt lat="41.555536000" lon="1.745391000">
        <ele>416.30</ele>
        <time>2014-12-07T10:19:08Z</time>
      </trkpt>
      <trkpt lat="41.555538000" lon="1.745389000">
        <ele>416.40</ele>
        <time>2014-12-07T10:20:30Z</time>
      </trkpt>
      <trkpt lat="41.555268000" lon="1.745403000">
        <ele>415.70</ele>
        <time>2014-12-07T10:20:41Z</time>
      </trkpt>
      <trkpt lat="41.554903000" lon="1.745454000">
        <ele>415.40</ele>
        <time>2014-12-07T10:20:53Z</time>
      </trkpt>
      <trkpt lat="41.554724000" lon="1.745627000">
        <ele>415.80</ele>
        <time>2014-12-07T10:21:02Z</time>
      </trkpt>
      <trkpt lat="41.554718000" lon="1.745657000">
        <ele>415.90</ele>
        <time>2014-12-07T10:21:16Z</time>
      </trkpt>
      <trkpt lat="41.554727000" lon="1.745776000">
        <ele>415.30</ele>
        <time>2014-12-07T10:21:25Z</time>
      </trkpt>
      <trkpt lat="41.554714000" lon="1.746192000">
        <ele>417.70</ele>
        <time>2014-12-07T10:21:41Z</time>
      </trkpt>
      <trkpt lat="41.554711000" lon="1.746399000">
        <ele>419.90</ele>
        <time>2014-12-07T10:21:48Z</time>
      </trkpt>
      <trkpt lat="41.554637000" lon="1.746935000">
        <ele>422.20</ele>
        <time>2014-12-07T10:22:06Z</time>
      </trkpt>
      <trkpt lat="41.554398000" lon="1.747473000">
        <ele>424.60</ele>
        <time>2014-12-07T10:22:25Z</time>
      </trkpt>
      <trkpt lat="41.554524000" lon="1.747698000">
        <ele>425.00</ele>
        <time>2014-12-07T10:22:33Z</time>
      </trkpt>
      <trkpt lat="41.554510000" lon="1.747817000">
        <ele>425.40</ele>
        <time>2014-12-07T10:22:38Z</time>
      </trkpt>
      <trkpt lat="41.554359000" lon="1.748298000">
        <ele>424.10</ele>
        <time>2014-12-07T10:22:51Z</time>
      </trkpt>
      <trkpt lat="41.554234000" lon="1.748612000">
        <ele>423.20</ele>
        <time>2014-12-07T10:22:57Z</time>
      </trkpt>
      <trkpt lat="41.553935000" lon="1.749224000">
        <ele>421.70</ele>
        <time>2014-12-07T10:23:08Z</time>
      </trkpt>
      <trkpt lat="41.553296000" lon="1.749973000">
        <ele>420.90</ele>
        <time>2014-12-07T10:23:25Z</time>
      </trkpt>
      <trkpt lat="41.553002000" lon="1.750532000">
        <ele>417.90</ele>
        <time>2014-12-07T10:23:34Z</time>
      </trkpt>
      <trkpt lat="41.552836000" lon="1.751020000">
        <ele>414.20</ele>
        <time>2014-12-07T10:23:40Z</time>
      </trkpt>
      <trkpt lat="41.552768000" lon="1.751185000">
        <ele>413.20</ele>
        <time>2014-12-07T10:23:42Z</time>
      </trkpt>
      <trkpt lat="41.552299000" lon="1.752337000">
        <ele>414.70</ele>
        <time>2014-12-07T10:23:57Z</time>
      </trkpt>
      <trkpt lat="41.551953000" lon="1.753001000">
        <ele>416.10</ele>
        <time>2014-12-07T10:24:11Z</time>
      </trkpt>
      <trkpt lat="41.551902000" lon="1.753091000">
        <ele>416.10</ele>
        <time>2014-12-07T10:24:13Z</time>
      </trkpt>
      <trkpt lat="41.551578000" lon="1.753474000">
        <ele>416.10</ele>
        <time>2014-12-07T10:24:23Z</time>
      </trkpt>
      <trkpt lat="41.551178000" lon="1.754003000">
        <ele>418.90</ele>
        <time>2014-12-07T10:24:39Z</time>
      </trkpt>
      <trkpt lat="41.550973000" lon="1.754466000">
        <ele>421.90</ele>
        <time>2014-12-07T10:24:52Z</time>
      </trkpt>
      <trkpt lat="41.550742000" lon="1.754948000">
        <ele>423.70</ele>
        <time>2014-12-07T10:25:07Z</time>
      </trkpt>
      <trkpt lat="41.550738000" lon="1.755622000">
        <ele>426.80</ele>
        <time>2014-12-07T10:25:23Z</time>
      </trkpt>
      <trkpt lat="41.550647000" lon="1.756184000">
        <ele>429.90</ele>
        <time>2014-12-07T10:25:39Z</time>
      </trkpt>
      <trkpt lat="41.550433000" lon="1.756402000">
        <ele>431.20</ele>
        <time>2014-12-07T10:25:51Z</time>
      </trkpt>
      <trkpt lat="41.550385000" lon="1.756539000">
        <ele>431.70</ele>
        <time>2014-12-07T10:25:56Z</time>
      </trkpt>
      <trkpt lat="41.550406000" lon="1.756663000">
        <ele>432.10</ele>
        <time>2014-12-07T10:26:00Z</time>
      </trkpt>
      <trkpt lat="41.550336000" lon="1.756781000">
        <ele>432.20</ele>
        <time>2014-12-07T10:26:05Z</time>
      </trkpt>
      <trkpt lat="41.550216000" lon="1.756913000">
        <ele>430.70</ele>
        <time>2014-12-07T10:26:09Z</time>
      </trkpt>
      <trkpt lat="41.550090000" lon="1.756996000">
        <ele>429.70</ele>
        <time>2014-12-07T10:26:12Z</time>
      </trkpt>
      <trkpt lat="41.549744000" lon="1.757261000">
        <ele>427.10</ele>
        <time>2014-12-07T10:26:20Z</time>
      </trkpt>
      <trkpt lat="41.549613000" lon="1.757397000">
        <ele>425.60</ele>
        <time>2014-12-07T10:26:23Z</time>
      </trkpt>
      <trkpt lat="41.549449000" lon="1.757581000">
        <ele>423.60</ele>
        <time>2014-12-07T10:26:27Z</time>
      </trkpt>
      <trkpt lat="41.549101000" lon="1.757965000">
        <ele>420.40</ele>
        <time>2014-12-07T10:26:34Z</time>
      </trkpt>
      <trkpt lat="41.549003000" lon="1.758087000">
        <ele>419.40</ele>
        <time>2014-12-07T10:26:36Z</time>
      </trkpt>
      <trkpt lat="41.548851000" lon="1.758285000">
        <ele>417.80</ele>
        <time>2014-12-07T10:26:39Z</time>
      </trkpt>
      <trkpt lat="41.548505000" lon="1.758581000">
        <ele>415.10</ele>
        <time>2014-12-07T10:26:44Z</time>
      </trkpt>
      <trkpt lat="41.548428000" lon="1.758640000">
        <ele>415.00</ele>
        <time>2014-12-07T10:26:45Z</time>
      </trkpt>
      <trkpt lat="41.548187000" lon="1.758756000">
        <ele>413.00</ele>
        <time>2014-12-07T10:26:48Z</time>
      </trkpt>
      <trkpt lat="41.547951000" lon="1.758746000">
        <ele>413.00</ele>
        <time>2014-12-07T10:26:51Z</time>
      </trkpt>
      <trkpt lat="41.547237000" lon="1.758559000">
        <ele>416.30</ele>
        <time>2014-12-07T10:27:02Z</time>
      </trkpt>
      <trkpt lat="41.546389000" lon="1.758437000">
        <ele>413.30</ele>
        <time>2014-12-07T10:27:18Z</time>
      </trkpt>
      <trkpt lat="41.546193000" lon="1.758436000">
        <ele>412.50</ele>
        <time>2014-12-07T10:27:21Z</time>
      </trkpt>
      <trkpt lat="41.545793000" lon="1.758599000">
        <ele>410.90</ele>
        <time>2014-12-07T10:27:27Z</time>
      </trkpt>
      <trkpt lat="41.545124000" lon="1.759167000">
        <ele>407.30</ele>
        <time>2014-12-07T10:27:38Z</time>
      </trkpt>
      <trkpt lat="41.544774000" lon="1.759760000">
        <ele>405.60</ele>
        <time>2014-12-07T10:27:45Z</time>
      </trkpt>
      <trkpt lat="41.544255000" lon="1.760129000">
        <ele>403.10</ele>
        <time>2014-12-07T10:27:54Z</time>
      </trkpt>
      <trkpt lat="41.543964000" lon="1.760286000">
        <ele>402.60</ele>
        <time>2014-12-07T10:28:05Z</time>
      </trkpt>
      <trkpt lat="41.543028000" lon="1.760518000">
        <ele>399.20</ele>
        <time>2014-12-07T10:28:23Z</time>
      </trkpt>
      <trkpt lat="41.542173000" lon="1.760774000">
        <ele>397.20</ele>
        <time>2014-12-07T10:28:37Z</time>
      </trkpt>
      <trkpt lat="41.541983000" lon="1.760828000">
        <ele>396.60</ele>
        <time>2014-12-07T10:28:40Z</time>
      </trkpt>
      <trkpt lat="41.541790000" lon="1.761056000">
        <ele>396.40</ele>
        <time>2014-12-07T10:28:44Z</time>
      </trkpt>
      <trkpt lat="41.541619000" lon="1.761417000">
        <ele>394.50</ele>
        <time>2014-12-07T10:28:49Z</time>
      </trkpt>
      <trkpt lat="41.540949000" lon="1.762253000">
        <ele>391.50</ele>
        <time>2014-12-07T10:29:03Z</time>
      </trkpt>
      <trkpt lat="41.540503000" lon="1.762809000">
        <ele>388.00</ele>
        <time>2014-12-07T10:29:11Z</time>
      </trkpt>
      <trkpt lat="41.540191000" lon="1.763283000">
        <ele>387.30</ele>
        <time>2014-12-07T10:29:18Z</time>
      </trkpt>
      <trkpt lat="41.540117000" lon="1.763404000">
        <ele>386.90</ele>
        <time>2014-12-07T10:29:21Z</time>
      </trkpt>
      <trkpt lat="41.540172000" lon="1.763601000">
        <ele>386.90</ele>
        <time>2014-12-07T10:29:25Z</time>
      </trkpt>
      <trkpt lat="41.540213000" lon="1.763636000">
        <ele>386.30</ele>
        <time>2014-12-07T10:29:27Z</time>
      </trkpt>
      <trkpt lat="41.540213000" lon="1.763695000">
        <ele>386.20</ele>
        <time>2014-12-07T10:29:37Z</time>
      </trkpt>
      <trkpt lat="41.540243000" lon="1.763646000">
        <ele>385.80</ele>
        <time>2014-12-07T10:29:40Z</time>
      </trkpt>
      <trkpt lat="41.540291000" lon="1.763411000">
        <ele>386.80</ele>
        <time>2014-12-07T10:29:48Z</time>
      </trkpt>
      <trkpt lat="41.540219000" lon="1.763320000">
        <ele>387.40</ele>
        <time>2014-12-07T10:29:52Z</time>
      </trkpt>
      <trkpt lat="41.540059000" lon="1.763254000">
        <ele>386.30</ele>
        <time>2014-12-07T10:29:57Z</time>
      </trkpt>
      <trkpt lat="41.539971000" lon="1.763116000">
        <ele>384.30</ele>
        <time>2014-12-07T10:30:00Z</time>
      </trkpt>
      <trkpt lat="41.539936000" lon="1.763052000">
        <ele>383.90</ele>
        <time>2014-12-07T10:30:01Z</time>
      </trkpt>
      <trkpt lat="41.539697000" lon="1.763017000">
        <ele>382.40</ele>
        <time>2014-12-07T10:30:05Z</time>
      </trkpt>
      <trkpt lat="41.538837000" lon="1.763899000">
        <ele>378.40</ele>
        <time>2014-12-07T10:30:19Z</time>
      </trkpt>
      <trkpt lat="41.538632000" lon="1.764115000">
        <ele>377.00</ele>
        <time>2014-12-07T10:30:22Z</time>
      </trkpt>
      <trkpt lat="41.538126000" lon="1.764606000">
        <ele>373.70</ele>
        <time>2014-12-07T10:30:29Z</time>
      </trkpt>
      <trkpt lat="41.537801000" lon="1.764918000">
        <ele>370.40</ele>
        <time>2014-12-07T10:30:34Z</time>
      </trkpt>
      <trkpt lat="41.537758000" lon="1.764959000">
        <ele>370.20</ele>
        <time>2014-12-07T10:30:35Z</time>
      </trkpt>
      <trkpt lat="41.537150000" lon="1.765631000">
        <ele>370.30</ele>
        <time>2014-12-07T10:30:51Z</time>
      </trkpt>
      <trkpt lat="41.536510000" lon="1.766276000">
        <ele>368.30</ele>
        <time>2014-12-07T10:31:08Z</time>
      </trkpt>
      <trkpt lat="41.535813000" lon="1.767008000">
        <ele>364.90</ele>
        <time>2014-12-07T10:31:23Z</time>
      </trkpt>
      <trkpt lat="41.535460000" lon="1.767376000">
        <ele>361.70</ele>
        <time>2014-12-07T10:31:34Z</time>
      </trkpt>
      <trkpt lat="41.535088000" lon="1.767759000">
        <ele>358.50</ele>
        <time>2014-12-07T10:31:42Z</time>
      </trkpt>
      <trkpt lat="41.534864000" lon="1.767976000">
        <ele>355.80</ele>
        <time>2014-12-07T10:31:46Z</time>
      </trkpt>
      <trkpt lat="41.534578000" lon="1.768279000">
        <ele>353.90</ele>
        <time>2014-12-07T10:31:53Z</time>
      </trkpt>
      <trkpt lat="41.534252000" lon="1.768514000">
        <ele>351.00</ele>
        <time>2014-12-07T10:32:04Z</time>
      </trkpt>
      <trkpt lat="41.534056000" lon="1.768500000">
        <ele>349.80</ele>
        <time>2014-12-07T10:32:10Z</time>
      </trkpt>
      <trkpt lat="41.533877000" lon="1.768639000">
        <ele>349.40</ele>
        <time>2014-12-07T10:32:15Z</time>
      </trkpt>
      <trkpt lat="41.533349000" lon="1.769456000">
        <ele>349.80</ele>
        <time>2014-12-07T10:32:33Z</time>
      </trkpt>
      <trkpt lat="41.532929000" lon="1.770102000">
        <ele>348.00</ele>
        <time>2014-12-07T10:32:48Z</time>
      </trkpt>
      <trkpt lat="41.532869000" lon="1.770205000">
        <ele>347.90</ele>
        <time>2014-12-07T10:32:51Z</time>
      </trkpt>
      <trkpt lat="41.532908000" lon="1.770384000">
        <ele>348.50</ele>
        <time>2014-12-07T10:32:56Z</time>
      </trkpt>
      <trkpt lat="41.532999000" lon="1.770465000">
        <ele>350.10</ele>
        <time>2014-12-07T10:33:00Z</time>
      </trkpt>
      <trkpt lat="41.533026000" lon="1.770666000">
        <ele>351.90</ele>
        <time>2014-12-07T10:33:06Z</time>
      </trkpt>
      <trkpt lat="41.532747000" lon="1.771317000">
        <ele>351.30</ele>
        <time>2014-12-07T10:33:23Z</time>
      </trkpt>
      <trkpt lat="41.532692000" lon="1.771414000">
        <ele>351.10</ele>
        <time>2014-12-07T10:33:25Z</time>
      </trkpt>
      <trkpt lat="41.532593000" lon="1.771660000">
        <ele>348.00</ele>
        <time>2014-12-07T10:33:29Z</time>
      </trkpt>
      <trkpt lat="41.532372000" lon="1.771957000">
        <ele>346.30</ele>
        <time>2014-12-07T10:33:34Z</time>
      </trkpt>
      <trkpt lat="41.532112000" lon="1.772242000">
        <ele>346.10</ele>
        <time>2014-12-07T10:33:43Z</time>
      </trkpt>
      <trkpt lat="41.531393000" lon="1.773095000">
        <ele>344.80</ele>
        <time>2014-12-07T10:34:01Z</time>
      </trkpt>
      <trkpt lat="41.530653000" lon="1.773929000">
        <ele>342.00</ele>
        <time>2014-12-07T10:34:21Z</time>
      </trkpt>
      <trkpt lat="41.529946000" lon="1.774712000">
        <ele>339.30</ele>
        <time>2014-12-07T10:34:38Z</time>
      </trkpt>
      <trkpt lat="41.529333000" lon="1.775426000">
        <ele>336.20</ele>
        <time>2014-12-07T10:34:51Z</time>
      </trkpt>
      <trkpt lat="41.528904000" lon="1.775943000">
        <ele>333.80</ele>
        <time>2014-12-07T10:34:59Z</time>
      </trkpt>
      <trkpt lat="41.528695000" lon="1.776251000">
        <ele>332.50</ele>
        <time>2014-12-07T10:35:03Z</time>
      </trkpt>
      <trkpt lat="41.527953000" lon="1.777593000">
        <ele>329.50</ele>
        <time>2014-12-07T10:35:20Z</time>
      </trkpt>
      <trkpt lat="41.527638000" lon="1.778328000">
        <ele>326.80</ele>
        <time>2014-12-07T10:35:29Z</time>
      </trkpt>
      <trkpt lat="41.527570000" lon="1.778478000">
        <ele>328.00</ele>
        <time>2014-12-07T10:35:31Z</time>
      </trkpt>
      <trkpt lat="41.527634000" lon="1.778764000">
        <ele>326.90</ele>
        <time>2014-12-07T10:35:35Z</time>
      </trkpt>
      <trkpt lat="41.527723000" lon="1.778874000">
        <ele>327.00</ele>
        <time>2014-12-07T10:35:37Z</time>
      </trkpt>
      <trkpt lat="41.527713000" lon="1.779245000">
        <ele>326.00</ele>
        <time>2014-12-07T10:35:42Z</time>
      </trkpt>
      <trkpt lat="41.527108000" lon="1.780218000">
        <ele>326.00</ele>
        <time>2014-12-07T10:35:58Z</time>
      </trkpt>
      <trkpt lat="41.526806000" lon="1.780635000">
        <ele>323.80</ele>
        <time>2014-12-07T10:36:05Z</time>
      </trkpt>
      <trkpt lat="41.526660000" lon="1.780812000">
        <ele>323.20</ele>
        <time>2014-12-07T10:36:08Z</time>
      </trkpt>
      <trkpt lat="41.526517000" lon="1.781218000">
        <ele>322.10</ele>
        <time>2014-12-07T10:36:13Z</time>
      </trkpt>
      <trkpt lat="41.525792000" lon="1.782389000">
        <ele>318.80</ele>
        <time>2014-12-07T10:36:30Z</time>
      </trkpt>
      <trkpt lat="41.525461000" lon="1.782953000">
        <ele>315.70</ele>
        <time>2014-12-07T10:36:37Z</time>
      </trkpt>
      <trkpt lat="41.525208000" lon="1.783406000">
        <ele>313.90</ele>
        <time>2014-12-07T10:36:42Z</time>
      </trkpt>
      <trkpt lat="41.524791000" lon="1.784204000">
        <ele>311.30</ele>
        <time>2014-12-07T10:36:51Z</time>
      </trkpt>
      <trkpt lat="41.524676000" lon="1.784498000">
        <ele>309.50</ele>
        <time>2014-12-07T10:36:54Z</time>
      </trkpt>
      <trkpt lat="41.524513000" lon="1.785564000">
        <ele>306.00</ele>
        <time>2014-12-07T10:37:03Z</time>
      </trkpt>
      <trkpt lat="41.524443000" lon="1.785933000">
        <ele>304.70</ele>
        <time>2014-12-07T10:37:06Z</time>
      </trkpt>
      <trkpt lat="41.524253000" lon="1.786506000">
        <ele>301.70</ele>
        <time>2014-12-07T10:37:11Z</time>
      </trkpt>
      <trkpt lat="41.524108000" lon="1.786796000">
        <ele>301.00</ele>
        <time>2014-12-07T10:37:14Z</time>
      </trkpt>
      <trkpt lat="41.524058000" lon="1.787009000">
        <ele>301.80</ele>
        <time>2014-12-07T10:37:16Z</time>
      </trkpt>
      <trkpt lat="41.523894000" lon="1.787375000">
        <ele>301.60</ele>
        <time>2014-12-07T10:37:20Z</time>
      </trkpt>
      <trkpt lat="41.523795000" lon="1.787544000">
        <ele>301.20</ele>
        <time>2014-12-07T10:37:22Z</time>
      </trkpt>
      <trkpt lat="41.523710000" lon="1.787939000">
        <ele>301.60</ele>
        <time>2014-12-07T10:37:26Z</time>
      </trkpt>
      <trkpt lat="41.523573000" lon="1.788304000">
        <ele>301.50</ele>
        <time>2014-12-07T10:37:30Z</time>
      </trkpt>
      <trkpt lat="41.523231000" lon="1.788783000">
        <ele>299.20</ele>
        <time>2014-12-07T10:37:36Z</time>
      </trkpt>
      <trkpt lat="41.522943000" lon="1.788989000">
        <ele>298.50</ele>
        <time>2014-12-07T10:37:40Z</time>
      </trkpt>
      <trkpt lat="41.522760000" lon="1.789458000">
        <ele>298.80</ele>
        <time>2014-12-07T10:37:45Z</time>
      </trkpt>
      <trkpt lat="41.522687000" lon="1.789661000">
        <ele>298.30</ele>
        <time>2014-12-07T10:37:47Z</time>
      </trkpt>
      <trkpt lat="41.522499000" lon="1.789940000">
        <ele>299.70</ele>
        <time>2014-12-07T10:37:51Z</time>
      </trkpt>
      <trkpt lat="41.522356000" lon="1.790278000">
        <ele>298.70</ele>
        <time>2014-12-07T10:38:02Z</time>
      </trkpt>
      <trkpt lat="41.522373000" lon="1.790280000">
        <ele>298.50</ele>
        <time>2014-12-07T10:38:04Z</time>
      </trkpt>
      <trkpt lat="41.522425000" lon="1.790139000">
        <ele>298.70</ele>
        <time>2014-12-07T10:38:13Z</time>
      </trkpt>
      <trkpt lat="41.522516000" lon="1.789933000">
        <ele>299.60</ele>
        <time>2014-12-07T10:38:26Z</time>
      </trkpt>
      <trkpt lat="41.522275000" lon="1.789764000">
        <ele>300.30</ele>
        <time>2014-12-07T10:38:36Z</time>
      </trkpt>
      <trkpt lat="41.522087000" lon="1.789655000">
        <ele>297.80</ele>
        <time>2014-12-07T10:38:41Z</time>
      </trkpt>
      <trkpt lat="41.521834000" lon="1.789368000">
        <ele>294.10</ele>
        <time>2014-12-07T10:38:46Z</time>
      </trkpt>
      <trkpt lat="41.521420000" lon="1.789368000">
        <ele>291.80</ele>
        <time>2014-12-07T10:38:52Z</time>
      </trkpt>
      <trkpt lat="41.521356000" lon="1.789424000">
        <ele>291.60</ele>
        <time>2014-12-07T10:38:53Z</time>
      </trkpt>
      <trkpt lat="41.521233000" lon="1.789542000">
        <ele>291.90</ele>
        <time>2014-12-07T10:38:55Z</time>
      </trkpt>
      <trkpt lat="41.520913000" lon="1.789606000">
        <ele>292.00</ele>
        <time>2014-12-07T10:39:00Z</time>
      </trkpt>
      <trkpt lat="41.520802000" lon="1.789570000">
        <ele>292.10</ele>
        <time>2014-12-07T10:39:02Z</time>
      </trkpt>
      <trkpt lat="41.520527000" lon="1.789637000">
        <ele>292.50</ele>
        <time>2014-12-07T10:39:07Z</time>
      </trkpt>
      <trkpt lat="41.520426000" lon="1.789714000">
        <ele>292.40</ele>
        <time>2014-12-07T10:39:09Z</time>
      </trkpt>
      <trkpt lat="41.519805000" lon="1.789964000">
        <ele>291.40</ele>
        <time>2014-12-07T10:39:20Z</time>
      </trkpt>
      <trkpt lat="41.519560000" lon="1.789985000">
        <ele>291.20</ele>
        <time>2014-12-07T10:39:24Z</time>
      </trkpt>
      <trkpt lat="41.518741000" lon="1.790620000">
        <ele>289.00</ele>
        <time>2014-12-07T10:39:38Z</time>
      </trkpt>
      <trkpt lat="41.518624000" lon="1.790703000">
        <ele>289.10</ele>
        <time>2014-12-07T10:39:40Z</time>
      </trkpt>
      <trkpt lat="41.518026000" lon="1.791559000">
        <ele>289.10</ele>
        <time>2014-12-07T10:39:54Z</time>
      </trkpt>
      <trkpt lat="41.517579000" lon="1.792236000">
        <ele>285.90</ele>
        <time>2014-12-07T10:40:03Z</time>
      </trkpt>
      <trkpt lat="41.517523000" lon="1.792316000">
        <ele>285.70</ele>
        <time>2014-12-07T10:40:04Z</time>
      </trkpt>
      <trkpt lat="41.517280000" lon="1.792503000">
        <ele>283.00</ele>
        <time>2014-12-07T10:40:08Z</time>
      </trkpt>
      <trkpt lat="41.517161000" lon="1.792578000">
        <ele>284.10</ele>
        <time>2014-12-07T10:40:10Z</time>
      </trkpt>
      <trkpt lat="41.516973000" lon="1.792872000">
        <ele>283.00</ele>
        <time>2014-12-07T10:40:14Z</time>
      </trkpt>
      <trkpt lat="41.516766000" lon="1.793397000">
        <ele>283.10</ele>
        <time>2014-12-07T10:40:20Z</time>
      </trkpt>
      <trkpt lat="41.516649000" lon="1.793635000">
        <ele>282.10</ele>
        <time>2014-12-07T10:40:23Z</time>
      </trkpt>
      <trkpt lat="41.516515000" lon="1.794045000">
        <ele>283.00</ele>
        <time>2014-12-07T10:40:28Z</time>
      </trkpt>
      <trkpt lat="41.516384000" lon="1.794342000">
        <ele>282.60</ele>
        <time>2014-12-07T10:40:32Z</time>
      </trkpt>
      <trkpt lat="41.516290000" lon="1.794727000">
        <ele>282.20</ele>
        <time>2014-12-07T10:40:37Z</time>
      </trkpt>
      <trkpt lat="41.516148000" lon="1.794965000">
        <ele>281.50</ele>
        <time>2014-12-07T10:40:41Z</time>
      </trkpt>
      <trkpt lat="41.516067000" lon="1.795224000">
        <ele>282.90</ele>
        <time>2014-12-07T10:40:45Z</time>
      </trkpt>
      <trkpt lat="41.516042000" lon="1.795289000">
        <ele>282.90</ele>
        <time>2014-12-07T10:40:46Z</time>
      </trkpt>
      <trkpt lat="41.515786000" lon="1.795777000">
        <ele>282.60</ele>
        <time>2014-12-07T10:40:58Z</time>
      </trkpt>
      <trkpt lat="41.515754000" lon="1.795820000">
        <ele>281.60</ele>
        <time>2014-12-07T10:41:14Z</time>
      </trkpt>
      <trkpt lat="41.515764000" lon="1.795807000">
        <ele>281.30</ele>
        <time>2014-12-07T10:41:16Z</time>
      </trkpt>
      <trkpt lat="41.515816000" lon="1.795724000">
        <ele>280.40</ele>
        <time>2014-12-07T10:41:21Z</time>
      </trkpt>
      <trkpt lat="41.515886000" lon="1.795593000">
        <ele>282.00</ele>
        <time>2014-12-07T10:41:26Z</time>
      </trkpt>
      <trkpt lat="41.515984000" lon="1.795400000">
        <ele>282.10</ele>
        <time>2014-12-07T10:41:38Z</time>
      </trkpt>
      <trkpt lat="41.516078000" lon="1.795179000">
        <ele>281.90</ele>
        <time>2014-12-07T10:41:47Z</time>
      </trkpt>
      <trkpt lat="41.515973000" lon="1.795148000">
        <ele>282.10</ele>
        <time>2014-12-07T10:41:53Z</time>
      </trkpt>
      <trkpt lat="41.515581000" lon="1.795564000">
        <ele>281.30</ele>
        <time>2014-12-07T10:42:09Z</time>
      </trkpt>
      <trkpt lat="41.515383000" lon="1.795870000">
        <ele>279.70</ele>
        <time>2014-12-07T10:42:16Z</time>
      </trkpt>
      <trkpt lat="41.515188000" lon="1.796000000">
        <ele>278.70</ele>
        <time>2014-12-07T10:42:20Z</time>
      </trkpt>
      <trkpt lat="41.514976000" lon="1.796058000">
        <ele>277.30</ele>
        <time>2014-12-07T10:42:24Z</time>
      </trkpt>
      <trkpt lat="41.514821000" lon="1.796007000">
        <ele>276.50</ele>
        <time>2014-12-07T10:42:28Z</time>
      </trkpt>
      <trkpt lat="41.514772000" lon="1.795950000">
        <ele>275.40</ele>
        <time>2014-12-07T10:42:30Z</time>
      </trkpt>
      <trkpt lat="41.514713000" lon="1.795857000">
        <ele>274.40</ele>
        <time>2014-12-07T10:42:32Z</time>
      </trkpt>
      <trkpt lat="41.514630000" lon="1.795664000">
        <ele>272.60</ele>
        <time>2014-12-07T10:42:35Z</time>
      </trkpt>
      <trkpt lat="41.514599000" lon="1.795601000">
        <ele>272.40</ele>
        <time>2014-12-07T10:42:36Z</time>
      </trkpt>
      <trkpt lat="41.514341000" lon="1.795514000">
        <ele>275.00</ele>
        <time>2014-12-07T10:42:42Z</time>
      </trkpt>
      <trkpt lat="41.514188000" lon="1.795591000">
        <ele>274.00</ele>
        <time>2014-12-07T10:42:46Z</time>
      </trkpt>
      <trkpt lat="41.513897000" lon="1.795895000">
        <ele>271.70</ele>
        <time>2014-12-07T10:42:53Z</time>
      </trkpt>
      <trkpt lat="41.513812000" lon="1.796117000">
        <ele>271.10</ele>
        <time>2014-12-07T10:42:57Z</time>
      </trkpt>
      <trkpt lat="41.513813000" lon="1.796220000">
        <ele>270.60</ele>
        <time>2014-12-07T10:42:59Z</time>
      </trkpt>
      <trkpt lat="41.513722000" lon="1.796323000">
        <ele>269.90</ele>
        <time>2014-12-07T10:43:03Z</time>
      </trkpt>
      <trkpt lat="41.513436000" lon="1.796385000">
        <ele>271.00</ele>
        <time>2014-12-07T10:43:15Z</time>
      </trkpt>
      <trkpt lat="41.513117000" lon="1.796584000">
        <ele>272.30</ele>
        <time>2014-12-07T10:43:28Z</time>
      </trkpt>
      <trkpt lat="41.512689000" lon="1.796690000">
        <ele>271.40</ele>
        <time>2014-12-07T10:43:42Z</time>
      </trkpt>
      <trkpt lat="41.512639000" lon="1.796700000">
        <ele>271.20</ele>
        <time>2014-12-07T10:43:43Z</time>
      </trkpt>
      <trkpt lat="41.512336000" lon="1.797084000">
        <ele>267.80</ele>
        <time>2014-12-07T10:43:51Z</time>
      </trkpt>
      <trkpt lat="41.512179000" lon="1.797366000">
        <ele>265.20</ele>
        <time>2014-12-07T10:43:55Z</time>
      </trkpt>
      <trkpt lat="41.511861000" lon="1.797893000">
        <ele>261.80</ele>
        <time>2014-12-07T10:44:03Z</time>
      </trkpt>
      <trkpt lat="41.511675000" lon="1.798242000">
        <ele>258.20</ele>
        <time>2014-12-07T10:44:08Z</time>
      </trkpt>
      <trkpt lat="41.511507000" lon="1.798562000">
        <ele>256.30</ele>
        <time>2014-12-07T10:44:12Z</time>
      </trkpt>
      <trkpt lat="41.511434000" lon="1.798875000">
        <ele>256.00</ele>
        <time>2014-12-07T10:44:21Z</time>
      </trkpt>
      <trkpt lat="41.511442000" lon="1.798843000">
        <ele>256.80</ele>
        <time>2014-12-07T10:44:50Z</time>
      </trkpt>
      <trkpt lat="41.511456000" lon="1.798695000">
        <ele>257.00</ele>
        <time>2014-12-07T10:44:57Z</time>
      </trkpt>
      <trkpt lat="41.511591000" lon="1.798387000">
        <ele>256.90</ele>
        <time>2014-12-07T10:45:08Z</time>
      </trkpt>
      <trkpt lat="41.511862000" lon="1.797927000">
        <ele>260.20</ele>
        <time>2014-12-07T10:45:25Z</time>
      </trkpt>
      <trkpt lat="41.511951000" lon="1.797768000">
        <ele>261.90</ele>
        <time>2014-12-07T10:45:30Z</time>
      </trkpt>
      <trkpt lat="41.512193000" lon="1.797368000">
        <ele>265.10</ele>
        <time>2014-12-07T10:45:44Z</time>
      </trkpt>
      <trkpt lat="41.512420000" lon="1.796950000">
        <ele>268.50</ele>
        <time>2014-12-07T10:45:58Z</time>
      </trkpt>
      <trkpt lat="41.512788000" lon="1.796643000">
        <ele>271.20</ele>
        <time>2014-12-07T10:46:14Z</time>
      </trkpt>
      <trkpt lat="41.513071000" lon="1.796567000">
        <ele>272.50</ele>
        <time>2014-12-07T10:46:27Z</time>
      </trkpt>
      <trkpt lat="41.513398000" lon="1.796383000">
        <ele>269.60</ele>
        <time>2014-12-07T10:46:40Z</time>
      </trkpt>
      <trkpt lat="41.513804000" lon="1.796247000">
        <ele>268.90</ele>
        <time>2014-12-07T10:46:51Z</time>
      </trkpt>
      <trkpt lat="41.513822000" lon="1.796172000">
        <ele>269.90</ele>
        <time>2014-12-07T10:46:53Z</time>
      </trkpt>
      <trkpt lat="41.513965000" lon="1.795788000">
        <ele>271.10</ele>
        <time>2014-12-07T10:47:05Z</time>
      </trkpt>
      <trkpt lat="41.514462000" lon="1.795472000">
        <ele>273.10</ele>
        <time>2014-12-07T10:47:24Z</time>
      </trkpt>
      <trkpt lat="41.514500000" lon="1.795487000">
        <ele>272.60</ele>
        <time>2014-12-07T10:47:25Z</time>
      </trkpt>
      <trkpt lat="41.514666000" lon="1.795684000">
        <ele>271.60</ele>
        <time>2014-12-07T10:47:30Z</time>
      </trkpt>
      <trkpt lat="41.514911000" lon="1.796036000">
        <ele>275.30</ele>
        <time>2014-12-07T10:47:40Z</time>
      </trkpt>
      <trkpt lat="41.515286000" lon="1.795953000">
        <ele>276.70</ele>
        <time>2014-12-07T10:47:51Z</time>
      </trkpt>
      <trkpt lat="41.515637000" lon="1.795477000">
        <ele>279.40</ele>
        <time>2014-12-07T10:48:06Z</time>
      </trkpt>
      <trkpt lat="41.515964000" lon="1.795157000">
        <ele>280.20</ele>
        <time>2014-12-07T10:48:19Z</time>
      </trkpt>
      <trkpt lat="41.516005000" lon="1.795109000">
        <ele>280.90</ele>
        <time>2014-12-07T10:48:21Z</time>
      </trkpt>
      <trkpt lat="41.516081000" lon="1.795209000">
        <ele>280.50</ele>
        <time>2014-12-07T10:48:27Z</time>
      </trkpt>
      <trkpt lat="41.515892000" lon="1.795584000">
        <ele>281.10</ele>
        <time>2014-12-07T10:48:45Z</time>
      </trkpt>
      <trkpt lat="41.515859000" lon="1.795641000">
        <ele>280.60</ele>
        <time>2014-12-07T10:49:00Z</time>
      </trkpt>
      <trkpt lat="41.515731000" lon="1.795850000">
        <ele>280.00</ele>
        <time>2014-12-07T10:50:13Z</time>
      </trkpt>
      <trkpt lat="41.515535000" lon="1.796216000">
        <ele>279.00</ele>
        <time>2014-12-07T10:50:22Z</time>
      </trkpt>
      <trkpt lat="41.515014000" lon="1.797151000">
        <ele>275.50</ele>
        <time>2014-12-07T10:50:40Z</time>
      </trkpt>
      <trkpt lat="41.514557000" lon="1.797944000">
        <ele>274.10</ele>
        <time>2014-12-07T10:50:54Z</time>
      </trkpt>
      <trkpt lat="41.514237000" lon="1.798497000">
        <ele>273.60</ele>
        <time>2014-12-07T10:51:09Z</time>
      </trkpt>
      <trkpt lat="41.513952000" lon="1.798879000">
        <ele>273.10</ele>
        <time>2014-12-07T10:51:22Z</time>
      </trkpt>
      <trkpt lat="41.513627000" lon="1.799549000">
        <ele>270.60</ele>
        <time>2014-12-07T10:51:38Z</time>
      </trkpt>
      <trkpt lat="41.513590000" lon="1.799788000">
        <ele>270.00</ele>
        <time>2014-12-07T10:51:42Z</time>
      </trkpt>
      <trkpt lat="41.513602000" lon="1.800044000">
        <ele>269.00</ele>
        <time>2014-12-07T10:51:46Z</time>
      </trkpt>
      <trkpt lat="41.513565000" lon="1.801050000">
        <ele>266.20</ele>
        <time>2014-12-07T10:52:00Z</time>
      </trkpt>
      <trkpt lat="41.513484000" lon="1.801761000">
        <ele>262.60</ele>
        <time>2014-12-07T10:52:10Z</time>
      </trkpt>
      <trkpt lat="41.513479000" lon="1.801848000">
        <ele>262.40</ele>
        <time>2014-12-07T10:52:11Z</time>
      </trkpt>
      <trkpt lat="41.513492000" lon="1.802414000">
        <ele>260.00</ele>
        <time>2014-12-07T10:52:17Z</time>
      </trkpt>
      <trkpt lat="41.513560000" lon="1.803287000">
        <ele>256.20</ele>
        <time>2014-12-07T10:52:26Z</time>
      </trkpt>
      <trkpt lat="41.513478000" lon="1.803674000">
        <ele>253.40</ele>
        <time>2014-12-07T10:52:31Z</time>
      </trkpt>
      <trkpt lat="41.513461000" lon="1.803738000">
        <ele>253.40</ele>
        <time>2014-12-07T10:52:32Z</time>
      </trkpt>
      <trkpt lat="41.513439000" lon="1.804086000">
        <ele>250.00</ele>
        <time>2014-12-07T10:52:37Z</time>
      </trkpt>
      <trkpt lat="41.513408000" lon="1.804483000">
        <ele>246.50</ele>
        <time>2014-12-07T10:52:42Z</time>
      </trkpt>
      <trkpt lat="41.513391000" lon="1.804630000">
        <ele>245.80</ele>
        <time>2014-12-07T10:52:44Z</time>
      </trkpt>
      <trkpt lat="41.513362000" lon="1.804832000">
        <ele>244.00</ele>
        <time>2014-12-07T10:52:47Z</time>
      </trkpt>
      <trkpt lat="41.513290000" lon="1.805178000">
        <ele>241.40</ele>
        <time>2014-12-07T10:52:51Z</time>
      </trkpt>
      <trkpt lat="41.513180000" lon="1.805743000">
        <ele>237.60</ele>
        <time>2014-12-07T10:52:58Z</time>
      </trkpt>
      <trkpt lat="41.513104000" lon="1.805901000">
        <ele>235.70</ele>
        <time>2014-12-07T10:53:01Z</time>
      </trkpt>
      <trkpt lat="41.512968000" lon="1.805985000">
        <ele>232.90</ele>
        <time>2014-12-07T10:53:04Z</time>
      </trkpt>
      <trkpt lat="41.512707000" lon="1.806187000">
        <ele>227.80</ele>
        <time>2014-12-07T10:53:09Z</time>
      </trkpt>
      <trkpt lat="41.512577000" lon="1.806306000">
        <ele>224.80</ele>
        <time>2014-12-07T10:53:11Z</time>
      </trkpt>
      <trkpt lat="41.512301000" lon="1.806451000">
        <ele>219.90</ele>
        <time>2014-12-07T10:53:15Z</time>
      </trkpt>
      <trkpt lat="41.512043000" lon="1.806686000">
        <ele>215.00</ele>
        <time>2014-12-07T10:53:19Z</time>
      </trkpt>
      <trkpt lat="41.511910000" lon="1.806809000">
        <ele>212.80</ele>
        <time>2014-12-07T10:53:21Z</time>
      </trkpt>
      <trkpt lat="41.511659000" lon="1.806821000">
        <ele>208.10</ele>
        <time>2014-12-07T10:53:25Z</time>
      </trkpt>
      <trkpt lat="41.511592000" lon="1.806803000">
        <ele>206.60</ele>
        <time>2014-12-07T10:53:26Z</time>
      </trkpt>
      <trkpt lat="41.511353000" lon="1.806828000">
        <ele>201.10</ele>
        <time>2014-12-07T10:53:31Z</time>
      </trkpt>
      <trkpt lat="41.511247000" lon="1.806849000">
        <ele>198.40</ele>
        <time>2014-12-07T10:53:34Z</time>
      </trkpt>
      <trkpt lat="41.511002000" lon="1.806946000">
        <ele>197.50</ele>
        <time>2014-12-07T10:53:47Z</time>
      </trkpt>
      <trkpt lat="41.510848000" lon="1.807202000">
        <ele>197.30</ele>
        <time>2014-12-07T10:53:59Z</time>
      </trkpt>
      <trkpt lat="41.510776000" lon="1.807723000">
        <ele>197.20</ele>
        <time>2014-12-07T10:54:15Z</time>
      </trkpt>
      <trkpt lat="41.510528000" lon="1.808001000">
        <ele>197.00</ele>
        <time>2014-12-07T10:54:30Z</time>
      </trkpt>
      <trkpt lat="41.510198000" lon="1.808389000">
        <ele>196.20</ele>
        <time>2014-12-07T10:54:46Z</time>
      </trkpt>
      <trkpt lat="41.509984000" lon="1.808632000">
        <ele>195.80</ele>
        <time>2014-12-07T10:55:00Z</time>
      </trkpt>
      <trkpt lat="41.510000000" lon="1.808723000">
        <ele>195.80</ele>
        <time>2014-12-07T10:55:04Z</time>
      </trkpt>
      <trkpt lat="41.510156000" lon="1.808911000">
        <ele>195.40</ele>
        <time>2014-12-07T10:55:16Z</time>
      </trkpt>
      <trkpt lat="41.510170000" lon="1.809007000">
        <ele>195.80</ele>
        <time>2014-12-07T10:55:20Z</time>
      </trkpt>
      <trkpt lat="41.509983000" lon="1.809437000">
        <ele>198.00</ele>
        <time>2014-12-07T10:55:41Z</time>
      </trkpt>
      <trkpt lat="41.509916000" lon="1.809487000">
        <ele>197.00</ele>
        <time>2014-12-07T10:55:43Z</time>
      </trkpt>
      <trkpt lat="41.509705000" lon="1.809561000">
        <ele>194.40</ele>
        <time>2014-12-07T10:55:47Z</time>
      </trkpt>
      <trkpt lat="41.509280000" lon="1.809812000">
        <ele>192.60</ele>
        <time>2014-12-07T10:55:58Z</time>
      </trkpt>
      <trkpt lat="41.509081000" lon="1.809969000">
        <ele>192.50</ele>
        <time>2014-12-07T10:56:05Z</time>
      </trkpt>
      <trkpt lat="41.508839000" lon="1.810340000">
        <ele>191.80</ele>
        <time>2014-12-07T10:56:15Z</time>
      </trkpt>
      <trkpt lat="41.508571000" lon="1.810583000">
        <ele>192.10</ele>
        <time>2014-12-07T10:56:26Z</time>
      </trkpt>
      <trkpt lat="41.508228000" lon="1.810679000">
        <ele>194.10</ele>
        <time>2014-12-07T10:56:40Z</time>
      </trkpt>
      <trkpt lat="41.508013000" lon="1.810688000">
        <ele>196.90</ele>
        <time>2014-12-07T10:56:50Z</time>
      </trkpt>
      <trkpt lat="41.507792000" lon="1.810674000">
        <ele>200.00</ele>
        <time>2014-12-07T10:57:01Z</time>
      </trkpt>
      <trkpt lat="41.507673000" lon="1.810709000">
        <ele>203.10</ele>
        <time>2014-12-07T10:57:08Z</time>
      </trkpt>
      <trkpt lat="41.507574000" lon="1.810815000">
        <ele>206.30</ele>
        <time>2014-12-07T10:57:15Z</time>
      </trkpt>
      <trkpt lat="41.507479000" lon="1.810959000">
        <ele>209.10</ele>
        <time>2014-12-07T10:57:23Z</time>
      </trkpt>
      <trkpt lat="41.507454000" lon="1.810973000">
        <ele>209.90</ele>
        <time>2014-12-07T10:57:25Z</time>
      </trkpt>
      <trkpt lat="41.507368000" lon="1.810960000">
        <ele>211.30</ele>
        <time>2014-12-07T10:57:31Z</time>
      </trkpt>
      <trkpt lat="41.507265000" lon="1.810699000">
        <ele>214.40</ele>
        <time>2014-12-07T10:57:45Z</time>
      </trkpt>
      <trkpt lat="41.507174000" lon="1.810510000">
        <ele>217.50</ele>
        <time>2014-12-07T10:57:56Z</time>
      </trkpt>
      <trkpt lat="41.507144000" lon="1.810443000">
        <ele>220.20</ele>
        <time>2014-12-07T10:58:00Z</time>
      </trkpt>
      <trkpt lat="41.507005000" lon="1.810183000">
        <ele>223.60</ele>
        <time>2014-12-07T10:58:15Z</time>
      </trkpt>
      <trkpt lat="41.506887000" lon="1.810013000">
        <ele>226.60</ele>
        <time>2014-12-07T10:58:26Z</time>
      </trkpt>
      <trkpt lat="41.506760000" lon="1.809883000">
        <ele>229.90</ele>
        <time>2014-12-07T10:58:36Z</time>
      </trkpt>
      <trkpt lat="41.506579000" lon="1.809660000">
        <ele>232.60</ele>
        <time>2014-12-07T10:58:53Z</time>
      </trkpt>
      <trkpt lat="41.506529000" lon="1.809617000">
        <ele>233.30</ele>
        <time>2014-12-07T10:58:58Z</time>
      </trkpt>
      <trkpt lat="41.506352000" lon="1.809714000">
        <ele>234.60</ele>
        <time>2014-12-07T10:59:15Z</time>
      </trkpt>
      <trkpt lat="41.506304000" lon="1.809763000">
        <ele>235.10</ele>
        <time>2014-12-07T10:59:21Z</time>
      </trkpt>
      <trkpt lat="41.506011000" lon="1.809841000">
        <ele>235.90</ele>
        <time>2014-12-07T10:59:43Z</time>
      </trkpt>
      <trkpt lat="41.505683000" lon="1.810017000">
        <ele>237.40</ele>
        <time>2014-12-07T11:00:02Z</time>
      </trkpt>
      <trkpt lat="41.505326000" lon="1.810211000">
        <ele>240.50</ele>
        <time>2014-12-07T11:00:22Z</time>
      </trkpt>
      <trkpt lat="41.504990000" lon="1.810308000">
        <ele>243.60</ele>
        <time>2014-12-07T11:00:42Z</time>
      </trkpt>
      <trkpt lat="41.504944000" lon="1.810319000">
        <ele>243.20</ele>
        <time>2014-12-07T11:00:46Z</time>
      </trkpt>
      <trkpt lat="41.504815000" lon="1.810276000">
        <ele>244.20</ele>
        <time>2014-12-07T11:01:03Z</time>
      </trkpt>
      <trkpt lat="41.504709000" lon="1.810222000">
        <ele>245.40</ele>
        <time>2014-12-07T11:01:16Z</time>
      </trkpt>
      <trkpt lat="41.504520000" lon="1.810094000">
        <ele>246.40</ele>
        <time>2014-12-07T11:01:32Z</time>
      </trkpt>
      <trkpt lat="41.504211000" lon="1.809938000">
        <ele>249.40</ele>
        <time>2014-12-07T11:01:53Z</time>
      </trkpt>
      <trkpt lat="41.504104000" lon="1.809871000">
        <ele>250.40</ele>
        <time>2014-12-07T11:02:01Z</time>
      </trkpt>
      <trkpt lat="41.504032000" lon="1.809870000">
        <ele>251.30</ele>
        <time>2014-12-07T11:02:08Z</time>
      </trkpt>
      <trkpt lat="41.504001000" lon="1.809838000">
        <ele>251.30</ele>
        <time>2014-12-07T11:02:23Z</time>
      </trkpt>
      <trkpt lat="41.503998000" lon="1.809834000">
        <ele>251.30</ele>
        <time>2014-12-07T11:02:53Z</time>
      </trkpt>
      <trkpt lat="41.504000000" lon="1.809830000">
        <ele>251.30</ele>
        <time>2014-12-07T11:04:10Z</time>
      </trkpt>
      <trkpt lat="41.503997000" lon="1.809833000">
        <ele>251.80</ele>
        <time>2014-12-07T11:05:32Z</time>
      </trkpt>
      <trkpt lat="41.503990000" lon="1.809826000">
        <ele>251.80</ele>
        <time>2014-12-07T11:05:54Z</time>
      </trkpt>
      <trkpt lat="41.503896000" lon="1.810155000">
        <ele>249.20</ele>
        <time>2014-12-07T11:06:04Z</time>
      </trkpt>
      <trkpt lat="41.503795000" lon="1.810565000">
        <ele>246.80</ele>
        <time>2014-12-07T11:06:16Z</time>
      </trkpt>
      <trkpt lat="41.503740000" lon="1.810727000">
        <ele>245.30</ele>
        <time>2014-12-07T11:06:20Z</time>
      </trkpt>
      <trkpt lat="41.503635000" lon="1.811085000">
        <ele>243.90</ele>
        <time>2014-12-07T11:06:26Z</time>
      </trkpt>
      <trkpt lat="41.503312000" lon="1.812068000">
        <ele>243.20</ele>
        <time>2014-12-07T11:06:42Z</time>
      </trkpt>
      <trkpt lat="41.503164000" lon="1.812628000">
        <ele>245.60</ele>
        <time>2014-12-07T11:06:56Z</time>
      </trkpt>
      <trkpt lat="41.502982000" lon="1.813135000">
        <ele>247.00</ele>
        <time>2014-12-07T11:07:08Z</time>
      </trkpt>
      <trkpt lat="41.502906000" lon="1.813337000">
        <ele>248.10</ele>
        <time>2014-12-07T11:07:16Z</time>
      </trkpt>
      <trkpt lat="41.502881000" lon="1.813453000">
        <ele>248.50</ele>
        <time>2014-12-07T11:07:23Z</time>
      </trkpt>
      <trkpt lat="41.502911000" lon="1.813509000">
        <ele>248.40</ele>
        <time>2014-12-07T11:07:27Z</time>
      </trkpt>
      <trkpt lat="41.503001000" lon="1.813528000">
        <ele>248.00</ele>
        <time>2014-12-07T11:07:40Z</time>
      </trkpt>
      <trkpt lat="41.502953000" lon="1.813458000">
        <ele>248.20</ele>
        <time>2014-12-07T11:07:45Z</time>
      </trkpt>
      <trkpt lat="41.502677000" lon="1.813279000">
        <ele>249.80</ele>
        <time>2014-12-07T11:07:57Z</time>
      </trkpt>
      <trkpt lat="41.502623000" lon="1.813266000">
        <ele>249.90</ele>
        <time>2014-12-07T11:07:59Z</time>
      </trkpt>
      <trkpt lat="41.502506000" lon="1.813499000">
        <ele>251.10</ele>
        <time>2014-12-07T11:08:08Z</time>
      </trkpt>
      <trkpt lat="41.502371000" lon="1.813906000">
        <ele>251.90</ele>
        <time>2014-12-07T11:08:20Z</time>
      </trkpt>
      <trkpt lat="41.502109000" lon="1.814642000">
        <ele>253.70</ele>
        <time>2014-12-07T11:08:40Z</time>
      </trkpt>
      <trkpt lat="41.501973000" lon="1.814936000">
        <ele>254.60</ele>
        <time>2014-12-07T11:08:51Z</time>
      </trkpt>
      <trkpt lat="41.501952000" lon="1.814967000">
        <ele>254.90</ele>
        <time>2014-12-07T11:08:55Z</time>
      </trkpt>
      <trkpt lat="41.501830000" lon="1.815414000">
        <ele>255.30</ele>
        <time>2014-12-07T11:09:09Z</time>
      </trkpt>
      <trkpt lat="41.501670000" lon="1.816241000">
        <ele>255.10</ele>
        <time>2014-12-07T11:09:28Z</time>
      </trkpt>
      <trkpt lat="41.501651000" lon="1.816885000">
        <ele>258.30</ele>
        <time>2014-12-07T11:09:42Z</time>
      </trkpt>
      <trkpt lat="41.501734000" lon="1.817257000">
        <ele>261.40</ele>
        <time>2014-12-07T11:09:52Z</time>
      </trkpt>
      <trkpt lat="41.501806000" lon="1.817576000">
        <ele>264.50</ele>
        <time>2014-12-07T11:10:00Z</time>
      </trkpt>
      <trkpt lat="41.501866000" lon="1.817935000">
        <ele>267.50</ele>
        <time>2014-12-07T11:10:09Z</time>
      </trkpt>
      <trkpt lat="41.501871000" lon="1.817974000">
        <ele>268.10</ele>
        <time>2014-12-07T11:10:10Z</time>
      </trkpt>
      <trkpt lat="41.501823000" lon="1.818094000">
        <ele>269.80</ele>
        <time>2014-12-07T11:10:15Z</time>
      </trkpt>
      <trkpt lat="41.501831000" lon="1.818182000">
        <ele>269.60</ele>
        <time>2014-12-07T11:10:19Z</time>
      </trkpt>
      <trkpt lat="41.501835000" lon="1.818211000">
        <ele>268.90</ele>
        <time>2014-12-07T11:10:21Z</time>
      </trkpt>
      <trkpt lat="41.502085000" lon="1.818618000">
        <ele>271.60</ele>
        <time>2014-12-07T11:10:38Z</time>
      </trkpt>
      <trkpt lat="41.502287000" lon="1.818968000">
        <ele>274.90</ele>
        <time>2014-12-07T11:10:50Z</time>
      </trkpt>
      <trkpt lat="41.502598000" lon="1.819578000">
        <ele>275.40</ele>
        <time>2014-12-07T11:11:10Z</time>
      </trkpt>
      <trkpt lat="41.502588000" lon="1.820264000">
        <ele>275.20</ele>
        <time>2014-12-07T11:11:25Z</time>
      </trkpt>
      <trkpt lat="41.502268000" lon="1.821240000">
        <ele>275.80</ele>
        <time>2014-12-07T11:11:44Z</time>
      </trkpt>
      <trkpt lat="41.501972000" lon="1.821572000">
        <ele>278.00</ele>
        <time>2014-12-07T11:11:55Z</time>
      </trkpt>
      <trkpt lat="41.501791000" lon="1.821674000">
        <ele>280.90</ele>
        <time>2014-12-07T11:12:01Z</time>
      </trkpt>
      <trkpt lat="41.501650000" lon="1.821753000">
        <ele>283.20</ele>
        <time>2014-12-07T11:12:06Z</time>
      </trkpt>
      <trkpt lat="41.501480000" lon="1.821849000">
        <ele>286.20</ele>
        <time>2014-12-07T11:12:12Z</time>
      </trkpt>
      <trkpt lat="41.501382000" lon="1.822077000">
        <ele>288.20</ele>
        <time>2014-12-07T11:12:22Z</time>
      </trkpt>
      <trkpt lat="41.501349000" lon="1.822112000">
        <ele>288.20</ele>
        <time>2014-12-07T11:12:26Z</time>
      </trkpt>
      <trkpt lat="41.501392000" lon="1.822112000">
        <ele>288.30</ele>
        <time>2014-12-07T11:12:49Z</time>
      </trkpt>
      <trkpt lat="41.501394000" lon="1.822113000">
        <ele>288.40</ele>
        <time>2014-12-07T11:14:33Z</time>
      </trkpt>
      <trkpt lat="41.501394000" lon="1.822239000">
        <ele>287.60</ele>
        <time>2014-12-07T11:14:39Z</time>
      </trkpt>
      <trkpt lat="41.501408000" lon="1.823041000">
        <ele>286.90</ele>
        <time>2014-12-07T11:14:58Z</time>
      </trkpt>
      <trkpt lat="41.501396000" lon="1.823525000">
        <ele>288.80</ele>
        <time>2014-12-07T11:15:10Z</time>
      </trkpt>
      <trkpt lat="41.501341000" lon="1.824463000">
        <ele>291.70</ele>
        <time>2014-12-07T11:15:31Z</time>
      </trkpt>
      <trkpt lat="41.501263000" lon="1.824645000">
        <ele>292.90</ele>
        <time>2014-12-07T11:15:40Z</time>
      </trkpt>
      <trkpt lat="41.501264000" lon="1.824659000">
        <ele>293.00</ele>
        <time>2014-12-07T11:17:33Z</time>
      </trkpt>
      <trkpt lat="41.501274000" lon="1.824717000">
        <ele>292.90</ele>
        <time>2014-12-07T11:17:36Z</time>
      </trkpt>
      <trkpt lat="41.501171000" lon="1.825125000">
        <ele>294.90</ele>
        <time>2014-12-07T11:17:47Z</time>
      </trkpt>
      <trkpt lat="41.501271000" lon="1.826074000">
        <ele>297.70</ele>
        <time>2014-12-07T11:18:04Z</time>
      </trkpt>
      <trkpt lat="41.501369000" lon="1.826847000">
        <ele>296.90</ele>
        <time>2014-12-07T11:18:16Z</time>
      </trkpt>
      <trkpt lat="41.501303000" lon="1.827152000">
        <ele>296.40</ele>
        <time>2014-12-07T11:18:20Z</time>
      </trkpt>
      <trkpt lat="41.500870000" lon="1.828364000">
        <ele>295.90</ele>
        <time>2014-12-07T11:18:36Z</time>
      </trkpt>
      <trkpt lat="41.500847000" lon="1.828521000">
        <ele>295.30</ele>
        <time>2014-12-07T11:18:40Z</time>
      </trkpt>
      <trkpt lat="41.500756000" lon="1.828808000">
        <ele>294.50</ele>
        <time>2014-12-07T11:18:44Z</time>
      </trkpt>
      <trkpt lat="41.500497000" lon="1.829860000">
        <ele>290.60</ele>
        <time>2014-12-07T11:18:55Z</time>
      </trkpt>
      <trkpt lat="41.500385000" lon="1.830335000">
        <ele>290.20</ele>
        <time>2014-12-07T11:19:00Z</time>
      </trkpt>
      <trkpt lat="41.500364000" lon="1.830627000">
        <ele>289.40</ele>
        <time>2014-12-07T11:19:03Z</time>
      </trkpt>
      <trkpt lat="41.500523000" lon="1.832232000">
        <ele>288.70</ele>
        <time>2014-12-07T11:19:19Z</time>
      </trkpt>
      <trkpt lat="41.500417000" lon="1.832809000">
        <ele>288.50</ele>
        <time>2014-12-07T11:19:25Z</time>
      </trkpt>
      <trkpt lat="41.499737000" lon="1.833716000">
        <ele>289.00</ele>
        <time>2014-12-07T11:19:38Z</time>
      </trkpt>
      <trkpt lat="41.499630000" lon="1.833827000">
        <ele>288.50</ele>
        <time>2014-12-07T11:19:40Z</time>
      </trkpt>
      <trkpt lat="41.499488000" lon="1.834051000">
        <ele>285.90</ele>
        <time>2014-12-07T11:19:43Z</time>
      </trkpt>
      <trkpt lat="41.499314000" lon="1.834450000">
        <ele>284.00</ele>
        <time>2014-12-07T11:19:47Z</time>
      </trkpt>
      <trkpt lat="41.499107000" lon="1.835040000">
        <ele>278.90</ele>
        <time>2014-12-07T11:19:52Z</time>
      </trkpt>
      <trkpt lat="41.499019000" lon="1.835271000">
        <ele>278.00</ele>
        <time>2014-12-07T11:19:54Z</time>
      </trkpt>
      <trkpt lat="41.498758000" lon="1.835893000">
        <ele>281.30</ele>
        <time>2014-12-07T11:20:00Z</time>
      </trkpt>
      <trkpt lat="41.498658000" lon="1.836110000">
        <ele>282.80</ele>
        <time>2014-12-07T11:20:03Z</time>
      </trkpt>
      <trkpt lat="41.498399000" lon="1.836724000">
        <ele>284.60</ele>
        <time>2014-12-07T11:20:16Z</time>
      </trkpt>
      <trkpt lat="41.498304000" lon="1.836856000">
        <ele>284.10</ele>
        <time>2014-12-07T11:20:24Z</time>
      </trkpt>
      <trkpt lat="41.498209000" lon="1.837086000">
        <ele>283.60</ele>
        <time>2014-12-07T11:20:28Z</time>
      </trkpt>
      <trkpt lat="41.498184000" lon="1.837245000">
        <ele>283.00</ele>
        <time>2014-12-07T11:20:30Z</time>
      </trkpt>
      <trkpt lat="41.498401000" lon="1.837917000">
        <ele>280.40</ele>
        <time>2014-12-07T11:20:38Z</time>
      </trkpt>
      <trkpt lat="41.498684000" lon="1.838181000">
        <ele>278.40</ele>
        <time>2014-12-07T11:20:43Z</time>
      </trkpt>
      <trkpt lat="41.498731000" lon="1.838219000">
        <ele>279.20</ele>
        <time>2014-12-07T11:20:44Z</time>
      </trkpt>
      <trkpt lat="41.498868000" lon="1.838314000">
        <ele>278.60</ele>
        <time>2014-12-07T11:20:47Z</time>
      </trkpt>
      <trkpt lat="41.499047000" lon="1.838430000">
        <ele>277.60</ele>
        <time>2014-12-07T11:20:51Z</time>
      </trkpt>
      <trkpt lat="41.499514000" lon="1.838516000">
        <ele>279.80</ele>
        <time>2014-12-07T11:21:04Z</time>
      </trkpt>
      <trkpt lat="41.499710000" lon="1.838537000">
        <ele>278.10</ele>
        <time>2014-12-07T11:21:10Z</time>
      </trkpt>
      <trkpt lat="41.499975000" lon="1.838502000">
        <ele>276.80</ele>
        <time>2014-12-07T11:21:17Z</time>
      </trkpt>
      <trkpt lat="41.500188000" lon="1.838557000">
        <ele>273.00</ele>
        <time>2014-12-07T11:21:21Z</time>
      </trkpt>
      <trkpt lat="41.500493000" lon="1.838783000">
        <ele>271.40</ele>
        <time>2014-12-07T11:21:26Z</time>
      </trkpt>
      <trkpt lat="41.500558000" lon="1.838842000">
        <ele>270.90</ele>
        <time>2014-12-07T11:21:27Z</time>
      </trkpt>
      <trkpt lat="41.500803000" lon="1.839173000">
        <ele>269.20</ele>
        <time>2014-12-07T11:21:31Z</time>
      </trkpt>
      <trkpt lat="41.501067000" lon="1.839594000">
        <ele>265.70</ele>
        <time>2014-12-07T11:21:35Z</time>
      </trkpt>
      <trkpt lat="41.501224000" lon="1.839805000">
        <ele>262.00</ele>
        <time>2014-12-07T11:21:37Z</time>
      </trkpt>
      <trkpt lat="41.501388000" lon="1.839993000">
        <ele>261.30</ele>
        <time>2014-12-07T11:21:39Z</time>
      </trkpt>
      <trkpt lat="41.501692000" lon="1.840197000">
        <ele>260.20</ele>
        <time>2014-12-07T11:21:43Z</time>
      </trkpt>
      <trkpt lat="41.501891000" lon="1.840440000">
        <ele>261.90</ele>
        <time>2014-12-07T11:21:47Z</time>
      </trkpt>
      <trkpt lat="41.502670000" lon="1.840807000">
        <ele>263.40</ele>
        <time>2014-12-07T11:22:01Z</time>
      </trkpt>
      <trkpt lat="41.503309000" lon="1.841042000">
        <ele>266.50</ele>
        <time>2014-12-07T11:22:15Z</time>
      </trkpt>
      <trkpt lat="41.503352000" lon="1.841049000">
        <ele>266.60</ele>
        <time>2014-12-07T11:22:16Z</time>
      </trkpt>
      <trkpt lat="41.503858000" lon="1.841240000">
        <ele>269.10</ele>
        <time>2014-12-07T11:22:31Z</time>
      </trkpt>
      <trkpt lat="41.504152000" lon="1.841004000">
        <ele>272.30</ele>
        <time>2014-12-07T11:22:42Z</time>
      </trkpt>
      <trkpt lat="41.504467000" lon="1.840985000">
        <ele>271.90</ele>
        <time>2014-12-07T11:22:52Z</time>
      </trkpt>
      <trkpt lat="41.504731000" lon="1.841074000">
        <ele>269.00</ele>
        <time>2014-12-07T11:22:57Z</time>
      </trkpt>
      <trkpt lat="41.505018000" lon="1.841267000">
        <ele>268.80</ele>
        <time>2014-12-07T11:23:02Z</time>
      </trkpt>
      <trkpt lat="41.505613000" lon="1.841919000">
        <ele>271.30</ele>
        <time>2014-12-07T11:23:19Z</time>
      </trkpt>
      <trkpt lat="41.505993000" lon="1.842342000">
        <ele>274.60</ele>
        <time>2014-12-07T11:23:34Z</time>
      </trkpt>
      <trkpt lat="41.506344000" lon="1.842594000">
        <ele>277.80</ele>
        <time>2014-12-07T11:23:49Z</time>
      </trkpt>
      <trkpt lat="41.506638000" lon="1.842802000">
        <ele>281.10</ele>
        <time>2014-12-07T11:24:04Z</time>
      </trkpt>
      <trkpt lat="41.506840000" lon="1.843066000">
        <ele>282.60</ele>
        <time>2014-12-07T11:24:19Z</time>
      </trkpt>
      <trkpt lat="41.506886000" lon="1.843137000">
        <ele>282.70</ele>
        <time>2014-12-07T11:24:29Z</time>
      </trkpt>
      <trkpt lat="41.507084000" lon="1.843417000">
        <ele>282.50</ele>
        <time>2014-12-07T11:24:42Z</time>
      </trkpt>
      <trkpt lat="41.507194000" lon="1.843558000">
        <ele>283.10</ele>
        <time>2014-12-07T11:24:48Z</time>
      </trkpt>
      <trkpt lat="41.507116000" lon="1.843946000">
        <ele>284.60</ele>
        <time>2014-12-07T11:25:00Z</time>
      </trkpt>
      <trkpt lat="41.507083000" lon="1.844080000">
        <ele>284.90</ele>
        <time>2014-12-07T11:25:04Z</time>
      </trkpt>
      <trkpt lat="41.507258000" lon="1.844509000">
        <ele>284.30</ele>
        <time>2014-12-07T11:25:17Z</time>
      </trkpt>
      <trkpt lat="41.507466000" lon="1.844778000">
        <ele>284.50</ele>
        <time>2014-12-07T11:25:25Z</time>
      </trkpt>
      <trkpt lat="41.507443000" lon="1.844894000">
        <ele>284.20</ele>
        <time>2014-12-07T11:25:29Z</time>
      </trkpt>
      <trkpt lat="41.507079000" lon="1.845294000">
        <ele>284.30</ele>
        <time>2014-12-07T11:25:45Z</time>
      </trkpt>
      <trkpt lat="41.507019000" lon="1.845420000">
        <ele>283.90</ele>
        <time>2014-12-07T11:25:48Z</time>
      </trkpt>
      <trkpt lat="41.507093000" lon="1.845617000">
        <ele>282.50</ele>
        <time>2014-12-07T11:25:53Z</time>
      </trkpt>
      <trkpt lat="41.507176000" lon="1.845678000">
        <ele>281.70</ele>
        <time>2014-12-07T11:25:55Z</time>
      </trkpt>
      <trkpt lat="41.507308000" lon="1.845766000">
        <ele>281.20</ele>
        <time>2014-12-07T11:25:58Z</time>
      </trkpt>
      <trkpt lat="41.507430000" lon="1.846035000">
        <ele>279.00</ele>
        <time>2014-12-07T11:26:02Z</time>
      </trkpt>
      <trkpt lat="41.507583000" lon="1.846289000">
        <ele>277.30</ele>
        <time>2014-12-07T11:26:06Z</time>
      </trkpt>
      <trkpt lat="41.507665000" lon="1.846450000">
        <ele>276.90</ele>
        <time>2014-12-07T11:26:08Z</time>
      </trkpt>
      <trkpt lat="41.507587000" lon="1.846871000">
        <ele>274.50</ele>
        <time>2014-12-07T11:26:14Z</time>
      </trkpt>
      <trkpt lat="41.507479000" lon="1.847049000">
        <ele>272.30</ele>
        <time>2014-12-07T11:26:17Z</time>
      </trkpt>
      <trkpt lat="41.507431000" lon="1.847113000">
        <ele>271.60</ele>
        <time>2014-12-07T11:26:18Z</time>
      </trkpt>
      <trkpt lat="41.507188000" lon="1.847330000">
        <ele>271.70</ele>
        <time>2014-12-07T11:26:22Z</time>
      </trkpt>
      <trkpt lat="41.507104000" lon="1.847487000">
        <ele>272.00</ele>
        <time>2014-12-07T11:26:26Z</time>
      </trkpt>
      <trkpt lat="41.507099000" lon="1.848134000">
        <ele>271.20</ele>
        <time>2014-12-07T11:26:42Z</time>
      </trkpt>
      <trkpt lat="41.506985000" lon="1.849214000">
        <ele>272.60</ele>
        <time>2014-12-07T11:27:03Z</time>
      </trkpt>
      <trkpt lat="41.506998000" lon="1.849301000">
        <ele>272.30</ele>
        <time>2014-12-07T11:27:05Z</time>
      </trkpt>
      <trkpt lat="41.506974000" lon="1.849610000">
        <ele>269.30</ele>
        <time>2014-12-07T11:27:10Z</time>
      </trkpt>
      <trkpt lat="41.506953000" lon="1.849838000">
        <ele>265.70</ele>
        <time>2014-12-07T11:27:13Z</time>
      </trkpt>
      <trkpt lat="41.506942000" lon="1.850009000">
        <ele>263.40</ele>
        <time>2014-12-07T11:27:15Z</time>
      </trkpt>
      <trkpt lat="41.506843000" lon="1.850431000">
        <ele>260.30</ele>
        <time>2014-12-07T11:27:20Z</time>
      </trkpt>
      <trkpt lat="41.506590000" lon="1.850828000">
        <ele>257.40</ele>
        <time>2014-12-07T11:27:26Z</time>
      </trkpt>
      <trkpt lat="41.506475000" lon="1.851055000">
        <ele>256.40</ele>
        <time>2014-12-07T11:27:29Z</time>
      </trkpt>
      <trkpt lat="41.506427000" lon="1.851560000">
        <ele>255.00</ele>
        <time>2014-12-07T11:27:35Z</time>
      </trkpt>
      <trkpt lat="41.506515000" lon="1.851968000">
        <ele>254.80</ele>
        <time>2014-12-07T11:27:40Z</time>
      </trkpt>
      <trkpt lat="41.506786000" lon="1.853076000">
        <ele>257.30</ele>
        <time>2014-12-07T11:27:55Z</time>
      </trkpt>
      <trkpt lat="41.506888000" lon="1.853443000">
        <ele>257.80</ele>
        <time>2014-12-07T11:28:01Z</time>
      </trkpt>
      <trkpt lat="41.506999000" lon="1.853779000">
        <ele>259.20</ele>
        <time>2014-12-07T11:28:07Z</time>
      </trkpt>
      <trkpt lat="41.507101000" lon="1.853950000">
        <ele>261.50</ele>
        <time>2014-12-07T11:28:11Z</time>
      </trkpt>
      <trkpt lat="41.507211000" lon="1.854078000">
        <ele>259.70</ele>
        <time>2014-12-07T11:28:15Z</time>
      </trkpt>
      <trkpt lat="41.507340000" lon="1.854151000">
        <ele>256.30</ele>
        <time>2014-12-07T11:28:18Z</time>
      </trkpt>
      <trkpt lat="41.507439000" lon="1.854192000">
        <ele>253.20</ele>
        <time>2014-12-07T11:28:20Z</time>
      </trkpt>
      <trkpt lat="41.507487000" lon="1.854216000">
        <ele>251.50</ele>
        <time>2014-12-07T11:28:21Z</time>
      </trkpt>
      <trkpt lat="41.507739000" lon="1.854250000">
        <ele>246.60</ele>
        <time>2014-12-07T11:28:25Z</time>
      </trkpt>
      <trkpt lat="41.508109000" lon="1.854367000">
        <ele>244.50</ele>
        <time>2014-12-07T11:28:30Z</time>
      </trkpt>
      <trkpt lat="41.508317000" lon="1.854493000">
        <ele>244.90</ele>
        <time>2014-12-07T11:28:38Z</time>
      </trkpt>
      <trkpt lat="41.508292000" lon="1.854479000">
        <ele>245.10</ele>
        <time>2014-12-07T11:28:47Z</time>
      </trkpt>
      <trkpt lat="41.507926000" lon="1.854282000">
        <ele>245.60</ele>
        <time>2014-12-07T11:29:00Z</time>
      </trkpt>
      <trkpt lat="41.507706000" lon="1.854189000">
        <ele>248.00</ele>
        <time>2014-12-07T11:29:13Z</time>
      </trkpt>
      <trkpt lat="41.507642000" lon="1.854169000">
        <ele>249.10</ele>
        <time>2014-12-07T11:29:31Z</time>
      </trkpt>
      <trkpt lat="41.507643000" lon="1.854154000">
        <ele>249.50</ele>
        <time>2014-12-07T11:29:53Z</time>
      </trkpt>
      <trkpt lat="41.507644000" lon="1.854150000">
        <ele>248.60</ele>
        <time>2014-12-07T11:31:49Z</time>
      </trkpt>
      <trkpt lat="41.507644000" lon="1.854150000">
        <ele>248.50</ele>
        <time>2014-12-07T11:31:54Z</time>
      </trkpt>
      <trkpt lat="41.507864000" lon="1.854240000">
        <ele>244.90</ele>
        <time>2014-12-07T11:32:00Z</time>
      </trkpt>
      <trkpt lat="41.507970000" lon="1.854278000">
        <ele>243.90</ele>
        <time>2014-12-07T11:32:02Z</time>
      </trkpt>
      <trkpt lat="41.508023000" lon="1.854297000">
        <ele>243.40</ele>
        <time>2014-12-07T11:32:03Z</time>
      </trkpt>
      <trkpt lat="41.508515000" lon="1.854753000">
        <ele>243.00</ele>
        <time>2014-12-07T11:32:19Z</time>
      </trkpt>
      <trkpt lat="41.508563000" lon="1.855012000">
        <ele>242.40</ele>
        <time>2014-12-07T11:32:24Z</time>
      </trkpt>
      <trkpt lat="41.508590000" lon="1.855847000">
        <ele>240.60</ele>
        <time>2014-12-07T11:32:40Z</time>
      </trkpt>
      <trkpt lat="41.508640000" lon="1.856200000">
        <ele>240.60</ele>
        <time>2014-12-07T11:32:46Z</time>
      </trkpt>
      <trkpt lat="41.508492000" lon="1.857021000">
        <ele>237.90</ele>
        <time>2014-12-07T11:33:00Z</time>
      </trkpt>
      <trkpt lat="41.508442000" lon="1.857179000">
        <ele>237.00</ele>
        <time>2014-12-07T11:33:02Z</time>
      </trkpt>
      <trkpt lat="41.508312000" lon="1.857536000">
        <ele>232.40</ele>
        <time>2014-12-07T11:33:06Z</time>
      </trkpt>
      <trkpt lat="41.508215000" lon="1.858004000">
        <ele>228.00</ele>
        <time>2014-12-07T11:33:10Z</time>
      </trkpt>
      <trkpt lat="41.508153000" lon="1.858386000">
        <ele>226.60</ele>
        <time>2014-12-07T11:33:13Z</time>
      </trkpt>
      <trkpt lat="41.508046000" lon="1.859116000">
        <ele>226.50</ele>
        <time>2014-12-07T11:33:19Z</time>
      </trkpt>
      <trkpt lat="41.508147000" lon="1.859679000">
        <ele>226.90</ele>
        <time>2014-12-07T11:33:28Z</time>
      </trkpt>
      <trkpt lat="41.508168000" lon="1.859750000">
        <ele>226.30</ele>
        <time>2014-12-07T11:33:29Z</time>
      </trkpt>
      <trkpt lat="41.508324000" lon="1.860050000">
        <ele>221.90</ele>
        <time>2014-12-07T11:33:33Z</time>
      </trkpt>
      <trkpt lat="41.508521000" lon="1.860456000">
        <ele>218.00</ele>
        <time>2014-12-07T11:33:38Z</time>
      </trkpt>
      <trkpt lat="41.508631000" lon="1.860701000">
        <ele>216.50</ele>
        <time>2014-12-07T11:33:41Z</time>
      </trkpt>
      <trkpt lat="41.508780000" lon="1.861003000">
        <ele>213.40</ele>
        <time>2014-12-07T11:33:45Z</time>
      </trkpt>
      <trkpt lat="41.508842000" lon="1.861133000">
        <ele>212.30</ele>
        <time>2014-12-07T11:33:47Z</time>
      </trkpt>
      <trkpt lat="41.508980000" lon="1.861427000">
        <ele>208.90</ele>
        <time>2014-12-07T11:33:51Z</time>
      </trkpt>
      <trkpt lat="41.509009000" lon="1.861504000">
        <ele>208.60</ele>
        <time>2014-12-07T11:33:52Z</time>
      </trkpt>
      <trkpt lat="41.509121000" lon="1.861782000">
        <ele>205.20</ele>
        <time>2014-12-07T11:33:56Z</time>
      </trkpt>
      <trkpt lat="41.509290000" lon="1.861989000">
        <ele>204.00</ele>
        <time>2014-12-07T11:34:02Z</time>
      </trkpt>
      <trkpt lat="41.509613000" lon="1.862046000">
        <ele>201.60</ele>
        <time>2014-12-07T11:34:11Z</time>
      </trkpt>
      <trkpt lat="41.509699000" lon="1.862029000">
        <ele>201.70</ele>
        <time>2014-12-07T11:34:13Z</time>
      </trkpt>
      <trkpt lat="41.510294000" lon="1.862144000">
        <ele>201.80</ele>
        <time>2014-12-07T11:34:29Z</time>
      </trkpt>
      <trkpt lat="41.510385000" lon="1.862159000">
        <ele>200.90</ele>
        <time>2014-12-07T11:34:31Z</time>
      </trkpt>
      <trkpt lat="41.510606000" lon="1.862269000">
        <ele>197.20</ele>
        <time>2014-12-07T11:34:35Z</time>
      </trkpt>
      <trkpt lat="41.510778000" lon="1.862397000">
        <ele>195.70</ele>
        <time>2014-12-07T11:34:38Z</time>
      </trkpt>
      <trkpt lat="41.510962000" lon="1.862499000">
        <ele>195.50</ele>
        <time>2014-12-07T11:34:41Z</time>
      </trkpt>
      <trkpt lat="41.511196000" lon="1.862612000">
        <ele>198.40</ele>
        <time>2014-12-07T11:34:46Z</time>
      </trkpt>
      <trkpt lat="41.511221000" lon="1.862615000">
        <ele>198.70</ele>
        <time>2014-12-07T11:34:47Z</time>
      </trkpt>
      <trkpt lat="41.511350000" lon="1.862590000">
        <ele>198.00</ele>
        <time>2014-12-07T11:34:53Z</time>
      </trkpt>
      <trkpt lat="41.511435000" lon="1.862543000">
        <ele>196.40</ele>
        <time>2014-12-07T11:34:56Z</time>
      </trkpt>
      <trkpt lat="41.511674000" lon="1.862610000">
        <ele>195.70</ele>
        <time>2014-12-07T11:35:04Z</time>
      </trkpt>
      <trkpt lat="41.511799000" lon="1.862730000">
        <ele>194.20</ele>
        <time>2014-12-07T11:35:12Z</time>
      </trkpt>
      <trkpt lat="41.511859000" lon="1.862710000">
        <ele>192.20</ele>
        <time>2014-12-07T11:35:15Z</time>
      </trkpt>
      <trkpt lat="41.511882000" lon="1.862679000">
        <ele>190.90</ele>
        <time>2014-12-07T11:35:17Z</time>
      </trkpt>
      <trkpt lat="41.511916000" lon="1.862674000">
        <ele>190.00</ele>
        <time>2014-12-07T11:35:19Z</time>
      </trkpt>
      <trkpt lat="41.511943000" lon="1.862642000">
        <ele>188.30</ele>
        <time>2014-12-07T11:35:22Z</time>
      </trkpt>
      <trkpt lat="41.512105000" lon="1.862621000">
        <ele>185.60</ele>
        <time>2014-12-07T11:35:29Z</time>
      </trkpt>
      <trkpt lat="41.512199000" lon="1.862661000">
        <ele>181.30</ele>
        <time>2014-12-07T11:35:32Z</time>
      </trkpt>
      <trkpt lat="41.512264000" lon="1.862707000">
        <ele>181.20</ele>
        <time>2014-12-07T11:35:33Z</time>
      </trkpt>
      <trkpt lat="41.512382000" lon="1.862775000">
        <ele>181.40</ele>
        <time>2014-12-07T11:35:35Z</time>
      </trkpt>
      <trkpt lat="41.512752000" lon="1.862878000">
        <ele>183.10</ele>
        <time>2014-12-07T11:35:41Z</time>
      </trkpt>
      <trkpt lat="41.513035000" lon="1.863061000">
        <ele>183.30</ele>
        <time>2014-12-07T11:35:46Z</time>
      </trkpt>
      <trkpt lat="41.513128000" lon="1.863186000">
        <ele>182.90</ele>
        <time>2014-12-07T11:35:48Z</time>
      </trkpt>
      <trkpt lat="41.513423000" lon="1.863862000">
        <ele>184.20</ele>
        <time>2014-12-07T11:35:58Z</time>
      </trkpt>
      <trkpt lat="41.513548000" lon="1.864056000">
        <ele>185.30</ele>
        <time>2014-12-07T11:36:02Z</time>
      </trkpt>
      <trkpt lat="41.513652000" lon="1.864170000">
        <ele>186.00</ele>
        <time>2014-12-07T11:36:05Z</time>
      </trkpt>
      <trkpt lat="41.513792000" lon="1.864446000">
        <ele>186.00</ele>
        <time>2014-12-07T11:36:11Z</time>
      </trkpt>
      <trkpt lat="41.514000000" lon="1.865570000">
        <ele>185.00</ele>
        <time>2014-12-07T11:36:28Z</time>
      </trkpt>
      <trkpt lat="41.513998000" lon="1.866010000">
        <ele>187.60</ele>
        <time>2014-12-07T11:36:36Z</time>
      </trkpt>
      <trkpt lat="41.514274000" lon="1.866494000">
        <ele>190.60</ele>
        <time>2014-12-07T11:36:53Z</time>
      </trkpt>
      <trkpt lat="41.514413000" lon="1.867058000">
        <ele>193.80</ele>
        <time>2014-12-07T11:37:08Z</time>
      </trkpt>
      <trkpt lat="41.514620000" lon="1.867481000">
        <ele>197.00</ele>
        <time>2014-12-07T11:37:20Z</time>
      </trkpt>
      <trkpt lat="41.514962000" lon="1.868297000">
        <ele>196.40</ele>
        <time>2014-12-07T11:37:40Z</time>
      </trkpt>
      <trkpt lat="41.514977000" lon="1.868408000">
        <ele>196.40</ele>
        <time>2014-12-07T11:37:42Z</time>
      </trkpt>
      <trkpt lat="41.514973000" lon="1.868581000">
        <ele>196.50</ele>
        <time>2014-12-07T11:37:45Z</time>
      </trkpt>
      <trkpt lat="41.515093000" lon="1.868888000">
        <ele>196.40</ele>
        <time>2014-12-07T11:37:56Z</time>
      </trkpt>
      <trkpt lat="41.515089000" lon="1.868920000">
        <ele>196.20</ele>
        <time>2014-12-07T11:37:59Z</time>
      </trkpt>
      <trkpt lat="41.514953000" lon="1.869225000">
        <ele>195.20</ele>
        <time>2014-12-07T11:38:11Z</time>
      </trkpt>
      <trkpt lat="41.514805000" lon="1.869644000">
        <ele>194.70</ele>
        <time>2014-12-07T11:38:26Z</time>
      </trkpt>
      <trkpt lat="41.514708000" lon="1.870230000">
        <ele>195.20</ele>
        <time>2014-12-07T11:38:40Z</time>
      </trkpt>
      <trkpt lat="41.514994000" lon="1.871157000">
        <ele>191.90</ele>
        <time>2014-12-07T11:38:55Z</time>
      </trkpt>
      <trkpt lat="41.515268000" lon="1.871638000">
        <ele>188.40</ele>
        <time>2014-12-07T11:39:02Z</time>
      </trkpt>
      <trkpt lat="41.515681000" lon="1.872438000">
        <ele>187.10</ele>
        <time>2014-12-07T11:39:15Z</time>
      </trkpt>
      <trkpt lat="41.515731000" lon="1.872545000">
        <ele>186.20</ele>
        <time>2014-12-07T11:39:17Z</time>
      </trkpt>
      <trkpt lat="41.515947000" lon="1.872993000">
        <ele>184.10</ele>
        <time>2014-12-07T11:39:26Z</time>
      </trkpt>
      <trkpt lat="41.515995000" lon="1.873100000">
        <ele>183.70</ele>
        <time>2014-12-07T11:39:28Z</time>
      </trkpt>
      <trkpt lat="41.516117000" lon="1.873276000">
        <ele>184.40</ele>
        <time>2014-12-07T11:39:32Z</time>
      </trkpt>
      <trkpt lat="41.516365000" lon="1.873792000">
        <ele>183.50</ele>
        <time>2014-12-07T11:39:43Z</time>
      </trkpt>
      <trkpt lat="41.516381000" lon="1.874070000">
        <ele>180.20</ele>
        <time>2014-12-07T11:39:47Z</time>
      </trkpt>
      <trkpt lat="41.516375000" lon="1.874162000">
        <ele>179.90</ele>
        <time>2014-12-07T11:39:48Z</time>
      </trkpt>
      <trkpt lat="41.516347000" lon="1.874559000">
        <ele>177.20</ele>
        <time>2014-12-07T11:39:52Z</time>
      </trkpt>
      <trkpt lat="41.516341000" lon="1.874649000">
        <ele>176.60</ele>
        <time>2014-12-07T11:39:53Z</time>
      </trkpt>
      <trkpt lat="41.516269000" lon="1.874934000">
        <ele>175.50</ele>
        <time>2014-12-07T11:39:57Z</time>
      </trkpt>
      <trkpt lat="41.516238000" lon="1.875143000">
        <ele>174.10</ele>
        <time>2014-12-07T11:40:00Z</time>
      </trkpt>
      <trkpt lat="41.516260000" lon="1.875985000">
        <ele>172.00</ele>
        <time>2014-12-07T11:40:10Z</time>
      </trkpt>
      <trkpt lat="41.516436000" lon="1.876267000">
        <ele>173.50</ele>
        <time>2014-12-07T11:40:16Z</time>
      </trkpt>
      <trkpt lat="41.516604000" lon="1.876329000">
        <ele>170.20</ele>
        <time>2014-12-07T11:40:21Z</time>
      </trkpt>
      <trkpt lat="41.516682000" lon="1.876355000">
        <ele>169.20</ele>
        <time>2014-12-07T11:40:23Z</time>
      </trkpt>
      <trkpt lat="41.516816000" lon="1.876403000">
        <ele>166.00</ele>
        <time>2014-12-07T11:40:26Z</time>
      </trkpt>
      <trkpt lat="41.517004000" lon="1.876478000">
        <ele>161.80</ele>
        <time>2014-12-07T11:40:30Z</time>
      </trkpt>
      <trkpt lat="41.517145000" lon="1.876558000">
        <ele>157.20</ele>
        <time>2014-12-07T11:40:33Z</time>
      </trkpt>
      <trkpt lat="41.517211000" lon="1.876768000">
        <ele>155.20</ele>
        <time>2014-12-07T11:40:37Z</time>
      </trkpt>
      <trkpt lat="41.517162000" lon="1.877059000">
        <ele>154.00</ele>
        <time>2014-12-07T11:40:41Z</time>
      </trkpt>
      <trkpt lat="41.517070000" lon="1.877353000">
        <ele>151.50</ele>
        <time>2014-12-07T11:40:45Z</time>
      </trkpt>
      <trkpt lat="41.517085000" lon="1.877598000">
        <ele>149.60</ele>
        <time>2014-12-07T11:40:48Z</time>
      </trkpt>
      <trkpt lat="41.517128000" lon="1.877805000">
        <ele>148.70</ele>
        <time>2014-12-07T11:40:51Z</time>
      </trkpt>
      <trkpt lat="41.517100000" lon="1.878108000">
        <ele>146.00</ele>
        <time>2014-12-07T11:40:55Z</time>
      </trkpt>
      <trkpt lat="41.517100000" lon="1.878174000">
        <ele>146.00</ele>
        <time>2014-12-07T11:40:56Z</time>
      </trkpt>
      <trkpt lat="41.517147000" lon="1.878382000">
        <ele>143.50</ele>
        <time>2014-12-07T11:41:00Z</time>
      </trkpt>
      <trkpt lat="41.517156000" lon="1.878722000">
        <ele>141.50</ele>
        <time>2014-12-07T11:41:07Z</time>
      </trkpt>
      <trkpt lat="41.517190000" lon="1.878954000">
        <ele>140.20</ele>
        <time>2014-12-07T11:41:10Z</time>
      </trkpt>
      <trkpt lat="41.517220000" lon="1.879095000">
        <ele>139.70</ele>
        <time>2014-12-07T11:41:12Z</time>
      </trkpt>
      <trkpt lat="41.517192000" lon="1.879377000">
        <ele>139.50</ele>
        <time>2014-12-07T11:41:16Z</time>
      </trkpt>
      <trkpt lat="41.517188000" lon="1.879577000">
        <ele>140.00</ele>
        <time>2014-12-07T11:41:19Z</time>
      </trkpt>
      <trkpt lat="41.517148000" lon="1.879876000">
        <ele>141.50</ele>
        <time>2014-12-07T11:41:24Z</time>
      </trkpt>
      <trkpt lat="41.517129000" lon="1.880116000">
        <ele>143.80</ele>
        <time>2014-12-07T11:41:29Z</time>
      </trkpt>
      <trkpt lat="41.517249000" lon="1.880754000">
        <ele>146.80</ele>
        <time>2014-12-07T11:41:44Z</time>
      </trkpt>
      <trkpt lat="41.517522000" lon="1.881151000">
        <ele>149.80</ele>
        <time>2014-12-07T11:41:58Z</time>
      </trkpt>
      <trkpt lat="41.517919000" lon="1.881735000">
        <ele>153.20</ele>
        <time>2014-12-07T11:42:18Z</time>
      </trkpt>
      <trkpt lat="41.518050000" lon="1.882207000">
        <ele>156.50</ele>
        <time>2014-12-07T11:42:31Z</time>
      </trkpt>
      <trkpt lat="41.518142000" lon="1.882733000">
        <ele>158.60</ele>
        <time>2014-12-07T11:42:45Z</time>
      </trkpt>
      <trkpt lat="41.518385000" lon="1.883299000">
        <ele>157.10</ele>
        <time>2014-12-07T11:42:59Z</time>
      </trkpt>
      <trkpt lat="41.518540000" lon="1.883889000">
        <ele>156.00</ele>
        <time>2014-12-07T11:43:10Z</time>
      </trkpt>
      <trkpt lat="41.518516000" lon="1.884136000">
        <ele>155.10</ele>
        <time>2014-12-07T11:43:14Z</time>
      </trkpt>
      <trkpt lat="41.518319000" lon="1.884650000">
        <ele>154.10</ele>
        <time>2014-12-07T11:43:22Z</time>
      </trkpt>
      <trkpt lat="41.518255000" lon="1.884896000">
        <ele>153.90</ele>
        <time>2014-12-07T11:43:28Z</time>
      </trkpt>
      <trkpt lat="41.518317000" lon="1.884900000">
        <ele>153.00</ele>
        <time>2014-12-07T11:43:30Z</time>
      </trkpt>
      <trkpt lat="41.518717000" lon="1.884831000">
        <ele>149.60</ele>
        <time>2014-12-07T11:43:38Z</time>
      </trkpt>
      <trkpt lat="41.519111000" lon="1.884882000">
        <ele>148.70</ele>
        <time>2014-12-07T11:43:48Z</time>
      </trkpt>
      <trkpt lat="41.519152000" lon="1.885013000">
        <ele>148.10</ele>
        <time>2014-12-07T11:43:52Z</time>
      </trkpt>
      <trkpt lat="41.519163000" lon="1.885229000">
        <ele>147.10</ele>
        <time>2014-12-07T11:43:56Z</time>
      </trkpt>
      <trkpt lat="41.519250000" lon="1.886017000">
        <ele>144.00</ele>
        <time>2014-12-07T11:44:08Z</time>
      </trkpt>
      <trkpt lat="41.519256000" lon="1.886802000">
        <ele>142.70</ele>
        <time>2014-12-07T11:44:23Z</time>
      </trkpt>
      <trkpt lat="41.519246000" lon="1.886829000">
        <ele>142.60</ele>
        <time>2014-12-07T11:44:25Z</time>
      </trkpt>
      <trkpt lat="41.519275000" lon="1.886820000">
        <ele>141.70</ele>
        <time>2014-12-07T11:44:34Z</time>
      </trkpt>
      <trkpt lat="41.519270000" lon="1.886752000">
        <ele>142.50</ele>
        <time>2014-12-07T11:44:43Z</time>
      </trkpt>
      <trkpt lat="41.519248000" lon="1.886931000">
        <ele>142.80</ele>
        <time>2014-12-07T11:44:58Z</time>
      </trkpt>
      <trkpt lat="41.519191000" lon="1.887230000">
        <ele>141.30</ele>
        <time>2014-12-07T11:45:33Z</time>
      </trkpt>
      <trkpt lat="41.519082000" lon="1.887979000">
        <ele>138.10</ele>
        <time>2014-12-07T11:45:45Z</time>
      </trkpt>
      <trkpt lat="41.518975000" lon="1.888845000">
        <ele>134.70</ele>
        <time>2014-12-07T11:45:56Z</time>
      </trkpt>
      <trkpt lat="41.518929000" lon="1.889643000">
        <ele>131.50</ele>
        <time>2014-12-07T11:46:05Z</time>
      </trkpt>
      <trkpt lat="41.518932000" lon="1.890431000">
        <ele>128.20</ele>
        <time>2014-12-07T11:46:13Z</time>
      </trkpt>
      <trkpt lat="41.518959000" lon="1.891636000">
        <ele>125.20</ele>
        <time>2014-12-07T11:46:25Z</time>
      </trkpt>
      <trkpt lat="41.518953000" lon="1.892033000">
        <ele>124.80</ele>
        <time>2014-12-07T11:46:29Z</time>
      </trkpt>
      <trkpt lat="41.518913000" lon="1.892295000">
        <ele>123.90</ele>
        <time>2014-12-07T11:46:32Z</time>
      </trkpt>
      <trkpt lat="41.519046000" lon="1.893085000">
        <ele>123.40</ele>
        <time>2014-12-07T11:46:42Z</time>
      </trkpt>
      <trkpt lat="41.519075000" lon="1.893238000">
        <ele>122.70</ele>
        <time>2014-12-07T11:46:44Z</time>
      </trkpt>
      <trkpt lat="41.519325000" lon="1.893845000">
        <ele>118.70</ele>
        <time>2014-12-07T11:46:52Z</time>
      </trkpt>
      <trkpt lat="41.519419000" lon="1.893997000">
        <ele>117.80</ele>
        <time>2014-12-07T11:46:54Z</time>
      </trkpt>
      <trkpt lat="41.519702000" lon="1.894403000">
        <ele>113.60</ele>
        <time>2014-12-07T11:46:59Z</time>
      </trkpt>
      <trkpt lat="41.519908000" lon="1.894702000">
        <ele>110.20</ele>
        <time>2014-12-07T11:47:02Z</time>
      </trkpt>
      <trkpt lat="41.520056000" lon="1.894910000">
        <ele>108.10</ele>
        <time>2014-12-07T11:47:04Z</time>
      </trkpt>
      <trkpt lat="41.520272000" lon="1.895371000">
        <ele>110.10</ele>
        <time>2014-12-07T11:47:08Z</time>
      </trkpt>
      <trkpt lat="41.520653000" lon="1.895797000">
        <ele>112.30</ele>
        <time>2014-12-07T11:47:15Z</time>
      </trkpt>
      <trkpt lat="41.520689000" lon="1.896109000">
        <ele>112.70</ele>
        <time>2014-12-07T11:47:19Z</time>
      </trkpt>
      <trkpt lat="41.520874000" lon="1.896503000">
        <ele>110.80</ele>
        <time>2014-12-07T11:47:25Z</time>
      </trkpt>
      <trkpt lat="41.520940000" lon="1.896895000">
        <ele>109.50</ele>
        <time>2014-12-07T11:47:30Z</time>
      </trkpt>
      <trkpt lat="41.520763000" lon="1.897395000">
        <ele>106.00</ele>
        <time>2014-12-07T11:47:35Z</time>
      </trkpt>
      <trkpt lat="41.520612000" lon="1.897735000">
        <ele>102.20</ele>
        <time>2014-12-07T11:47:38Z</time>
      </trkpt>
      <trkpt lat="41.520499000" lon="1.897954000">
        <ele>101.00</ele>
        <time>2014-12-07T11:47:40Z</time>
      </trkpt>
      <trkpt lat="41.520289000" lon="1.898311000">
        <ele>104.10</ele>
        <time>2014-12-07T11:47:44Z</time>
      </trkpt>
      <trkpt lat="41.520198000" lon="1.898439000">
        <ele>105.20</ele>
        <time>2014-12-07T11:47:46Z</time>
      </trkpt>
      <trkpt lat="41.520069000" lon="1.898591000">
        <ele>106.10</ele>
        <time>2014-12-07T11:47:49Z</time>
      </trkpt>
      <trkpt lat="41.519823000" lon="1.898472000">
        <ele>105.50</ele>
        <time>2014-12-07T11:47:55Z</time>
      </trkpt>
      <trkpt lat="41.519832000" lon="1.898280000">
        <ele>107.70</ele>
        <time>2014-12-07T11:47:58Z</time>
      </trkpt>
      <trkpt lat="41.519911000" lon="1.898176000">
        <ele>109.50</ele>
        <time>2014-12-07T11:48:01Z</time>
      </trkpt>
      <trkpt lat="41.520078000" lon="1.898090000">
        <ele>109.00</ele>
        <time>2014-12-07T11:48:05Z</time>
      </trkpt>
      <trkpt lat="41.521235000" lon="1.897986000">
        <ele>107.40</ele>
        <time>2014-12-07T11:48:25Z</time>
      </trkpt>
      <trkpt lat="41.522434000" lon="1.898440000">
        <ele>107.70</ele>
        <time>2014-12-07T11:48:44Z</time>
      </trkpt>
      <trkpt lat="41.523336000" lon="1.899254000">
        <ele>107.10</ele>
        <time>2014-12-07T11:49:00Z</time>
      </trkpt>
      <trkpt lat="41.524023000" lon="1.900484000">
        <ele>104.40</ele>
        <time>2014-12-07T11:49:16Z</time>
      </trkpt>
      <trkpt lat="41.524285000" lon="1.901325000">
        <ele>101.00</ele>
        <time>2014-12-07T11:49:24Z</time>
      </trkpt>
      <trkpt lat="41.524315000" lon="1.901445000">
        <ele>100.80</ele>
        <time>2014-12-07T11:49:25Z</time>
      </trkpt>
      <trkpt lat="41.524453000" lon="1.902211000">
        <ele>98.30</ele>
        <time>2014-12-07T11:49:31Z</time>
      </trkpt>
      <trkpt lat="41.524543000" lon="1.902771000">
        <ele>94.70</ele>
        <time>2014-12-07T11:49:35Z</time>
      </trkpt>
      <trkpt lat="41.524622000" lon="1.903208000">
        <ele>93.40</ele>
        <time>2014-12-07T11:49:38Z</time>
      </trkpt>
      <trkpt lat="41.524760000" lon="1.903812000">
        <ele>91.20</ele>
        <time>2014-12-07T11:49:42Z</time>
      </trkpt>
      <trkpt lat="41.524928000" lon="1.904410000">
        <ele>87.80</ele>
        <time>2014-12-07T11:49:46Z</time>
      </trkpt>
      <trkpt lat="41.525031000" lon="1.904677000">
        <ele>87.20</ele>
        <time>2014-12-07T11:49:48Z</time>
      </trkpt>
      <trkpt lat="41.525513000" lon="1.905492000">
        <ele>84.10</ele>
        <time>2014-12-07T11:49:55Z</time>
      </trkpt>
      <trkpt lat="41.525686000" lon="1.905675000">
        <ele>83.30</ele>
        <time>2014-12-07T11:49:57Z</time>
      </trkpt>
      <trkpt lat="41.525877000" lon="1.905829000">
        <ele>81.70</ele>
        <time>2014-12-07T11:49:59Z</time>
      </trkpt>
      <trkpt lat="41.526816000" lon="1.906124000">
        <ele>79.70</ele>
        <time>2014-12-07T11:50:08Z</time>
      </trkpt>
      <trkpt lat="41.528021000" lon="1.905855000">
        <ele>78.70</ele>
        <time>2014-12-07T11:50:20Z</time>
      </trkpt>
      <trkpt lat="41.528406000" lon="1.905689000">
        <ele>78.90</ele>
        <time>2014-12-07T11:50:24Z</time>
      </trkpt>
      <trkpt lat="41.529838000" lon="1.905006000">
        <ele>79.80</ele>
        <time>2014-12-07T11:50:42Z</time>
      </trkpt>
      <trkpt lat="41.531178000" lon="1.904224000">
        <ele>80.50</ele>
        <time>2014-12-07T11:51:02Z</time>
      </trkpt>
      <trkpt lat="41.531902000" lon="1.903090000">
        <ele>79.50</ele>
        <time>2014-12-07T11:51:17Z</time>
      </trkpt>
      <trkpt lat="41.532730000" lon="1.901235000">
        <ele>77.10</ele>
        <time>2014-12-07T11:51:39Z</time>
      </trkpt>
      <trkpt lat="41.533202000" lon="1.900658000">
        <ele>77.20</ele>
        <time>2014-12-07T11:51:48Z</time>
      </trkpt>
      <trkpt lat="41.534521000" lon="1.899634000">
        <ele>77.90</ele>
        <time>2014-12-07T11:52:09Z</time>
      </trkpt>
      <trkpt lat="41.536159000" lon="1.898162000">
        <ele>77.60</ele>
        <time>2014-12-07T11:52:36Z</time>
      </trkpt>
      <trkpt lat="41.536692000" lon="1.897130000">
        <ele>78.90</ele>
        <time>2014-12-07T11:52:50Z</time>
      </trkpt>
      <trkpt lat="41.536932000" lon="1.895986000">
        <ele>79.80</ele>
        <time>2014-12-07T11:53:06Z</time>
      </trkpt>
      <trkpt lat="41.536953000" lon="1.894805000">
        <ele>79.90</ele>
        <time>2014-12-07T11:53:23Z</time>
      </trkpt>
      <trkpt lat="41.536967000" lon="1.894057000">
        <ele>80.40</ele>
        <time>2014-12-07T11:53:34Z</time>
      </trkpt>
      <trkpt lat="41.537098000" lon="1.893797000">
        <ele>80.10</ele>
        <time>2014-12-07T11:53:39Z</time>
      </trkpt>
      <trkpt lat="41.537316000" lon="1.893636000">
        <ele>78.60</ele>
        <time>2014-12-07T11:53:44Z</time>
      </trkpt>
      <trkpt lat="41.537763000" lon="1.893614000">
        <ele>78.00</ele>
        <time>2014-12-07T11:53:51Z</time>
      </trkpt>
      <trkpt lat="41.538369000" lon="1.893868000">
        <ele>79.30</ele>
        <time>2014-12-07T11:54:02Z</time>
      </trkpt>
      <trkpt lat="41.538404000" lon="1.894158000">
        <ele>80.30</ele>
        <time>2014-12-07T11:54:07Z</time>
      </trkpt>
      <trkpt lat="41.538377000" lon="1.894238000">
        <ele>80.40</ele>
        <time>2014-12-07T11:54:08Z</time>
      </trkpt>
      <trkpt lat="41.538261000" lon="1.894492000">
        <ele>82.80</ele>
        <time>2014-12-07T11:54:12Z</time>
      </trkpt>
      <trkpt lat="41.538234000" lon="1.894601000">
        <ele>83.70</ele>
        <time>2014-12-07T11:54:14Z</time>
      </trkpt>
      <trkpt lat="41.538234000" lon="1.894733000">
        <ele>84.40</ele>
        <time>2014-12-07T11:54:16Z</time>
      </trkpt>
      <trkpt lat="41.538445000" lon="1.895050000">
        <ele>86.00</ele>
        <time>2014-12-07T11:54:23Z</time>
      </trkpt>
      <trkpt lat="41.538659000" lon="1.895113000">
        <ele>87.10</ele>
        <time>2014-12-07T11:54:28Z</time>
      </trkpt>
      <trkpt lat="41.538958000" lon="1.895159000">
        <ele>87.50</ele>
        <time>2014-12-07T11:54:35Z</time>
      </trkpt>
      <trkpt lat="41.539032000" lon="1.894983000">
        <ele>87.30</ele>
        <time>2014-12-07T11:54:39Z</time>
      </trkpt>
      <trkpt lat="41.539254000" lon="1.893852000">
        <ele>88.70</ele>
        <time>2014-12-07T11:54:56Z</time>
      </trkpt>
      <trkpt lat="41.539478000" lon="1.892856000">
        <ele>90.30</ele>
        <time>2014-12-07T11:55:13Z</time>
      </trkpt>
      <trkpt lat="41.539627000" lon="1.892037000">
        <ele>89.80</ele>
        <time>2014-12-07T11:55:26Z</time>
      </trkpt>
      <trkpt lat="41.539774000" lon="1.891107000">
        <ele>90.00</ele>
        <time>2014-12-07T11:55:41Z</time>
      </trkpt>
      <trkpt lat="41.539784000" lon="1.891040000">
        <ele>90.00</ele>
        <time>2014-12-07T11:55:42Z</time>
      </trkpt>
      <trkpt lat="41.539999000" lon="1.890846000">
        <ele>90.20</ele>
        <time>2014-12-07T11:55:48Z</time>
      </trkpt>
      <trkpt lat="41.540792000" lon="1.891135000">
        <ele>93.00</ele>
        <time>2014-12-07T11:56:05Z</time>
      </trkpt>
      <trkpt lat="41.540994000" lon="1.891177000">
        <ele>94.20</ele>
        <time>2014-12-07T11:56:09Z</time>
      </trkpt>
      <trkpt lat="41.541145000" lon="1.891221000">
        <ele>95.10</ele>
        <time>2014-12-07T11:56:12Z</time>
      </trkpt>
      <trkpt lat="41.541294000" lon="1.891135000">
        <ele>95.10</ele>
        <time>2014-12-07T11:56:17Z</time>
      </trkpt>
      <trkpt lat="41.541457000" lon="1.890262000">
        <ele>95.40</ele>
        <time>2014-12-07T11:56:32Z</time>
      </trkpt>
      <trkpt lat="41.541458000" lon="1.890205000">
        <ele>95.20</ele>
        <time>2014-12-07T11:56:33Z</time>
      </trkpt>
      <trkpt lat="41.541664000" lon="1.889326000">
        <ele>94.20</ele>
        <time>2014-12-07T11:56:48Z</time>
      </trkpt>
      <trkpt lat="41.541836000" lon="1.888482000">
        <ele>92.30</ele>
        <time>2014-12-07T11:57:03Z</time>
      </trkpt>
      <trkpt lat="41.541969000" lon="1.887727000">
        <ele>92.70</ele>
        <time>2014-12-07T11:57:15Z</time>
      </trkpt>
      <trkpt lat="41.541980000" lon="1.887670000">
        <ele>92.20</ele>
        <time>2014-12-07T11:57:16Z</time>
      </trkpt>
      <trkpt lat="41.541986000" lon="1.887483000">
        <ele>92.10</ele>
        <time>2014-12-07T11:57:19Z</time>
      </trkpt>
      <trkpt lat="41.542200000" lon="1.887101000">
        <ele>91.30</ele>
        <time>2014-12-07T11:57:26Z</time>
      </trkpt>
      <trkpt lat="41.542614000" lon="1.886836000">
        <ele>92.00</ele>
        <time>2014-12-07T11:57:35Z</time>
      </trkpt>
      <trkpt lat="41.542891000" lon="1.886797000">
        <ele>92.90</ele>
        <time>2014-12-07T11:57:41Z</time>
      </trkpt>
      <trkpt lat="41.542978000" lon="1.886797000">
        <ele>92.60</ele>
        <time>2014-12-07T11:57:43Z</time>
      </trkpt>
      <trkpt lat="41.543183000" lon="1.886862000">
        <ele>94.20</ele>
        <time>2014-12-07T11:57:48Z</time>
      </trkpt>
      <trkpt lat="41.543266000" lon="1.886894000">
        <ele>95.20</ele>
        <time>2014-12-07T11:57:50Z</time>
      </trkpt>
      <trkpt lat="41.543400000" lon="1.887028000">
        <ele>96.10</ele>
        <time>2014-12-07T11:57:54Z</time>
      </trkpt>
      <trkpt lat="41.543450000" lon="1.887129000">
        <ele>96.40</ele>
        <time>2014-12-07T11:57:56Z</time>
      </trkpt>
      <trkpt lat="41.543775000" lon="1.887199000">
        <ele>96.80</ele>
        <time>2014-12-07T11:58:04Z</time>
      </trkpt>
      <trkpt lat="41.543861000" lon="1.886853000">
        <ele>96.50</ele>
        <time>2014-12-07T11:58:10Z</time>
      </trkpt>
      <trkpt lat="41.543858000" lon="1.886733000">
        <ele>96.80</ele>
        <time>2014-12-07T11:58:12Z</time>
      </trkpt>
      <trkpt lat="41.544120000" lon="1.886231000">
        <ele>96.50</ele>
        <time>2014-12-07T11:58:22Z</time>
      </trkpt>
      <trkpt lat="41.544336000" lon="1.886069000">
        <ele>96.70</ele>
        <time>2014-12-07T11:58:28Z</time>
      </trkpt>
      <trkpt lat="41.544661000" lon="1.886175000">
        <ele>98.70</ele>
        <time>2014-12-07T11:58:41Z</time>
      </trkpt>
    </trkseg>
  </trk>
</gpx>
